<?xml version="1.0" encoding="UTF-8" standalone="no" ?>
<gpx xmlns="http://www.topografix.com/GPX/1/1" xmlns:xsi="http://www.w3.org/2001/XMLSchema-instance" xsi:schemaLocation="http://www.topografix.com/GPX/1/1 http://www.topografix.com/GPX/1/1/gpx.xsd" version="1.1" creator="VisuGPX - https://www.visugpx.com">
  <metadata>
    <name>St Ange La madeleine</name>
    <desc><![CDATA[col de la madeleine drome]]></desc>
  </metadata>
  <trk>
    <name><![CDATA[St Ange La madeleine]]></name>
    <cmt><![CDATA[Jean MArie, Brigitte, PAtrick, Jean]]></cmt>
    <trkseg>
      <trkpt lat="45.11993" lon="4.98412">
        <ele>224.90199279785</ele>
        <time>2009-11-11T12:33:12Z</time>
      </trkpt>
      <trkpt lat="45.1199" lon="4.98414">
        <ele>221.77299499512</ele>
        <time>2009-11-11T12:36:42Z</time>
      </trkpt>
      <trkpt lat="45.11989" lon="4.98412">
        <ele>221.55999755859</ele>
        <time>2009-11-11T12:36:45Z</time>
      </trkpt>
      <trkpt lat="45.11982" lon="4.98409">
        <ele>221.51699829102</ele>
        <time>2009-11-11T12:36:52Z</time>
      </trkpt>
      <trkpt lat="45.1198" lon="4.98396">
        <ele>221.82000732422</ele>
        <time>2009-11-11T12:36:57Z</time>
      </trkpt>
      <trkpt lat="45.11981" lon="4.98393">
        <ele>221.7799987793</ele>
        <time>2009-11-11T12:36:58Z</time>
      </trkpt>
      <trkpt lat="45.11991" lon="4.98391">
        <ele>221.45100402832</ele>
        <time>2009-11-11T12:37:02Z</time>
      </trkpt>
      <trkpt lat="45.12014" lon="4.98401">
        <ele>221.78700256348</ele>
        <time>2009-11-11T12:37:10Z</time>
      </trkpt>
      <trkpt lat="45.12029" lon="4.98419">
        <ele>222.85400390625</ele>
        <time>2009-11-11T12:37:16Z</time>
      </trkpt>
      <trkpt lat="45.1203" lon="4.98429">
        <ele>222.52400207519</ele>
        <time>2009-11-11T12:37:18Z</time>
      </trkpt>
      <trkpt lat="45.12021" lon="4.98472">
        <ele>222.78700256348</ele>
        <time>2009-11-11T12:37:25Z</time>
      </trkpt>
      <trkpt lat="45.12017" lon="4.9853">
        <ele>222.47799682617</ele>
        <time>2009-11-11T12:37:33Z</time>
      </trkpt>
      <trkpt lat="45.12017" lon="4.98614">
        <ele>222.76400756836</ele>
        <time>2009-11-11T12:37:44Z</time>
      </trkpt>
      <trkpt lat="45.12024" lon="4.98683">
        <ele>222.85200500488</ele>
        <time>2009-11-11T12:37:53Z</time>
      </trkpt>
      <trkpt lat="45.1204" lon="4.98758">
        <ele>222.52600097656</ele>
        <time>2009-11-11T12:38:03Z</time>
      </trkpt>
      <trkpt lat="45.12059" lon="4.98822">
        <ele>223.10800170898</ele>
        <time>2009-11-11T12:38:12Z</time>
      </trkpt>
      <trkpt lat="45.12082" lon="4.98875">
        <ele>223.64799499512</ele>
        <time>2009-11-11T12:38:20Z</time>
      </trkpt>
      <trkpt lat="45.12115" lon="4.98938">
        <ele>223.82200622559</ele>
        <time>2009-11-11T12:38:30Z</time>
      </trkpt>
      <trkpt lat="45.12147" lon="4.98986">
        <ele>224.87699890137</ele>
        <time>2009-11-11T12:38:39Z</time>
      </trkpt>
      <trkpt lat="45.12183" lon="4.99029">
        <ele>228.10299682617</ele>
        <time>2009-11-11T12:38:49Z</time>
      </trkpt>
      <trkpt lat="45.12202" lon="4.99049">
        <ele>229.31500244141</ele>
        <time>2009-11-11T12:38:54Z</time>
      </trkpt>
      <trkpt lat="45.12214" lon="4.99077">
        <ele>229.31799316406</ele>
        <time>2009-11-11T12:38:59Z</time>
      </trkpt>
      <trkpt lat="45.12212" lon="4.99106">
        <ele>228.77699279785</ele>
        <time>2009-11-11T12:39:03Z</time>
      </trkpt>
      <trkpt lat="45.12192" lon="4.99185">
        <ele>227.24200439453</ele>
        <time>2009-11-11T12:39:13Z</time>
      </trkpt>
      <trkpt lat="45.12177" lon="4.99243">
        <ele>226.90699768066</ele>
        <time>2009-11-11T12:39:20Z</time>
      </trkpt>
      <trkpt lat="45.12159" lon="4.9931">
        <ele>226.27499389648</ele>
        <time>2009-11-11T12:39:28Z</time>
      </trkpt>
      <trkpt lat="45.12142" lon="4.99373">
        <ele>226.66499328613</ele>
        <time>2009-11-11T12:39:36Z</time>
      </trkpt>
      <trkpt lat="45.12122" lon="4.99436">
        <ele>226.03700256348</ele>
        <time>2009-11-11T12:39:44Z</time>
      </trkpt>
      <trkpt lat="45.12092" lon="4.99497">
        <ele>227.50900268555</ele>
        <time>2009-11-11T12:39:53Z</time>
      </trkpt>
      <trkpt lat="45.12056" lon="4.9956">
        <ele>228.93699645996</ele>
        <time>2009-11-11T12:40:03Z</time>
      </trkpt>
      <trkpt lat="45.1202" lon="4.99625">
        <ele>229.02799987793</ele>
        <time>2009-11-11T12:40:13Z</time>
      </trkpt>
      <trkpt lat="45.11978" lon="4.997">
        <ele>228.59300231934</ele>
        <time>2009-11-11T12:40:24Z</time>
      </trkpt>
      <trkpt lat="45.11934" lon="4.99775">
        <ele>228.71099853516</ele>
        <time>2009-11-11T12:40:35Z</time>
      </trkpt>
      <trkpt lat="45.11899" lon="4.99818">
        <ele>230.44299316406</ele>
        <time>2009-11-11T12:40:43Z</time>
      </trkpt>
      <trkpt lat="45.11886" lon="4.9983">
        <ele>231.67700195312</ele>
        <time>2009-11-11T12:40:46Z</time>
      </trkpt>
      <trkpt lat="45.11846" lon="4.99858">
        <ele>234.09399414062</ele>
        <time>2009-11-11T12:40:55Z</time>
      </trkpt>
      <trkpt lat="45.11824" lon="4.99867">
        <ele>235.82299804688</ele>
        <time>2009-11-11T12:41:00Z</time>
      </trkpt>
      <trkpt lat="45.11781" lon="4.99884">
        <ele>238.63800048828</ele>
        <time>2009-11-11T12:41:10Z</time>
      </trkpt>
      <trkpt lat="45.11734" lon="4.99902">
        <ele>242.03999328613</ele>
        <time>2009-11-11T12:41:21Z</time>
      </trkpt>
      <trkpt lat="45.11701" lon="4.99916">
        <ele>244.21000671387</ele>
        <time>2009-11-11T12:41:29Z</time>
      </trkpt>
      <trkpt lat="45.11668" lon="4.99938">
        <ele>246.54600524902</ele>
        <time>2009-11-11T12:41:38Z</time>
      </trkpt>
      <trkpt lat="45.11638" lon="4.99968">
        <ele>248.43200683594</ele>
        <time>2009-11-11T12:41:47Z</time>
      </trkpt>
      <trkpt lat="45.11609" lon="5.00008">
        <ele>250.08099365234</ele>
        <time>2009-11-11T12:41:56Z</time>
      </trkpt>
      <trkpt lat="45.11566" lon="5.00066">
        <ele>251.89999389648</ele>
        <time>2009-11-11T12:42:08Z</time>
      </trkpt>
      <trkpt lat="45.11523" lon="5.00111">
        <ele>252.45500183106</ele>
        <time>2009-11-11T12:42:18Z</time>
      </trkpt>
      <trkpt lat="45.11471" lon="5.0016">
        <ele>252.37199401856</ele>
        <time>2009-11-11T12:42:29Z</time>
      </trkpt>
      <trkpt lat="45.11441" lon="5.00187">
        <ele>252.29100036621</ele>
        <time>2009-11-11T12:42:35Z</time>
      </trkpt>
      <trkpt lat="45.11382" lon="5.00242">
        <ele>252.54899597168</ele>
        <time>2009-11-11T12:42:47Z</time>
      </trkpt>
      <trkpt lat="45.11326" lon="5.0029">
        <ele>252.85600280762</ele>
        <time>2009-11-11T12:42:58Z</time>
      </trkpt>
      <trkpt lat="45.11282" lon="5.00322">
        <ele>254.08200073242</ele>
        <time>2009-11-11T12:43:07Z</time>
      </trkpt>
      <trkpt lat="45.11227" lon="5.00352">
        <ele>256.35000610352</ele>
        <time>2009-11-11T12:43:18Z</time>
      </trkpt>
      <trkpt lat="45.11174" lon="5.00378">
        <ele>259.04598999023</ele>
        <time>2009-11-11T12:43:29Z</time>
      </trkpt>
      <trkpt lat="45.11124" lon="5.00405">
        <ele>260.82000732422</ele>
        <time>2009-11-11T12:43:40Z</time>
      </trkpt>
      <trkpt lat="45.11102" lon="5.00417">
        <ele>263.31600952148</ele>
        <time>2009-11-11T12:43:45Z</time>
      </trkpt>
      <trkpt lat="45.11071" lon="5.00436">
        <ele>265.27899169922</ele>
        <time>2009-11-11T12:43:52Z</time>
      </trkpt>
      <trkpt lat="45.11041" lon="5.00455">
        <ele>266.65301513672</ele>
        <time>2009-11-11T12:43:59Z</time>
      </trkpt>
      <trkpt lat="45.11012" lon="5.00476">
        <ele>268.81201171875</ele>
        <time>2009-11-11T12:44:06Z</time>
      </trkpt>
      <trkpt lat="45.10971" lon="5.00507">
        <ele>270.90100097656</ele>
        <time>2009-11-11T12:44:15Z</time>
      </trkpt>
      <trkpt lat="45.10948" lon="5.00525">
        <ele>272.01098632812</ele>
        <time>2009-11-11T12:44:19Z</time>
      </trkpt>
      <trkpt lat="45.10905" lon="5.00549">
        <ele>272.04800415039</ele>
        <time>2009-11-11T12:44:27Z</time>
      </trkpt>
      <trkpt lat="45.10862" lon="5.00564">
        <ele>270.05099487305</ele>
        <time>2009-11-11T12:44:34Z</time>
      </trkpt>
      <trkpt lat="45.10822" lon="5.00571">
        <ele>268.10101318359</ele>
        <time>2009-11-11T12:44:40Z</time>
      </trkpt>
      <trkpt lat="45.10778" lon="5.00577">
        <ele>264.57000732422</ele>
        <time>2009-11-11T12:44:46Z</time>
      </trkpt>
      <trkpt lat="45.10754" lon="5.00581">
        <ele>263.10699462891</ele>
        <time>2009-11-11T12:44:49Z</time>
      </trkpt>
      <trkpt lat="45.10706" lon="5.0059">
        <ele>260.24200439453</ele>
        <time>2009-11-11T12:44:54Z</time>
      </trkpt>
      <trkpt lat="45.10655" lon="5.00609">
        <ele>257.33999633789</ele>
        <time>2009-11-11T12:44:59Z</time>
      </trkpt>
      <trkpt lat="45.10614" lon="5.00634">
        <ele>255.09300231934</ele>
        <time>2009-11-11T12:45:03Z</time>
      </trkpt>
      <trkpt lat="45.10543" lon="5.00691">
        <ele>250.67300415039</ele>
        <time>2009-11-11T12:45:10Z</time>
      </trkpt>
      <trkpt lat="45.10494" lon="5.00731">
        <ele>247.85299682617</ele>
        <time>2009-11-11T12:45:15Z</time>
      </trkpt>
      <trkpt lat="45.10441" lon="5.00775">
        <ele>246.76400756836</ele>
        <time>2009-11-11T12:45:21Z</time>
      </trkpt>
      <trkpt lat="45.10387" lon="5.00817">
        <ele>246.18800354004</ele>
        <time>2009-11-11T12:45:28Z</time>
      </trkpt>
      <trkpt lat="45.10328" lon="5.00864">
        <ele>247.44900512695</ele>
        <time>2009-11-11T12:45:37Z</time>
      </trkpt>
      <trkpt lat="45.10278" lon="5.00906">
        <ele>249.02400207519</ele>
        <time>2009-11-11T12:45:45Z</time>
      </trkpt>
      <trkpt lat="45.10234" lon="5.00945">
        <ele>250.2440032959</ele>
        <time>2009-11-11T12:45:53Z</time>
      </trkpt>
      <trkpt lat="45.10214" lon="5.00966">
        <ele>250.26400756836</ele>
        <time>2009-11-11T12:45:57Z</time>
      </trkpt>
      <trkpt lat="45.102" lon="5.00984">
        <ele>250.49000549316</ele>
        <time>2009-11-11T12:46:00Z</time>
      </trkpt>
      <trkpt lat="45.10162" lon="5.01042">
        <ele>251.64799499512</ele>
        <time>2009-11-11T12:46:09Z</time>
      </trkpt>
      <trkpt lat="45.1013" lon="5.01093">
        <ele>252.44900512695</ele>
        <time>2009-11-11T12:46:17Z</time>
      </trkpt>
      <trkpt lat="45.10104" lon="5.01144">
        <ele>252.85600280762</ele>
        <time>2009-11-11T12:46:24Z</time>
      </trkpt>
      <trkpt lat="45.10089" lon="5.01195">
        <ele>253.25700378418</ele>
        <time>2009-11-11T12:46:30Z</time>
      </trkpt>
      <trkpt lat="45.1008" lon="5.0126">
        <ele>253.58099365234</ele>
        <time>2009-11-11T12:46:37Z</time>
      </trkpt>
      <trkpt lat="45.10071" lon="5.01359">
        <ele>253.03900146484</ele>
        <time>2009-11-11T12:46:47Z</time>
      </trkpt>
      <trkpt lat="45.10061" lon="5.01483">
        <ele>253.02400207519</ele>
        <time>2009-11-11T12:46:59Z</time>
      </trkpt>
      <trkpt lat="45.10049" lon="5.01617">
        <ele>253.24299621582</ele>
        <time>2009-11-11T12:47:12Z</time>
      </trkpt>
      <trkpt lat="45.1004" lon="5.01666">
        <ele>253.42199707031</ele>
        <time>2009-11-11T12:47:17Z</time>
      </trkpt>
      <trkpt lat="45.10033" lon="5.01695">
        <ele>251.87199401856</ele>
        <time>2009-11-11T12:47:20Z</time>
      </trkpt>
      <trkpt lat="45.10007" lon="5.01773">
        <ele>252.31300354004</ele>
        <time>2009-11-11T12:47:29Z</time>
      </trkpt>
      <trkpt lat="45.09978" lon="5.01854">
        <ele>254.56799316406</ele>
        <time>2009-11-11T12:47:39Z</time>
      </trkpt>
      <trkpt lat="45.09952" lon="5.0193">
        <ele>256.16799926758</ele>
        <time>2009-11-11T12:47:49Z</time>
      </trkpt>
      <trkpt lat="45.09923" lon="5.02013">
        <ele>258.24899291992</ele>
        <time>2009-11-11T12:48:00Z</time>
      </trkpt>
      <trkpt lat="45.09908" lon="5.02056">
        <ele>260.25399780273</ele>
        <time>2009-11-11T12:48:06Z</time>
      </trkpt>
      <trkpt lat="45.09884" lon="5.02122">
        <ele>263.01501464844</ele>
        <time>2009-11-11T12:48:16Z</time>
      </trkpt>
      <trkpt lat="45.0988" lon="5.02135">
        <ele>263.89300537109</ele>
        <time>2009-11-11T12:48:18Z</time>
      </trkpt>
      <trkpt lat="45.09858" lon="5.02199">
        <ele>266.72198486328</ele>
        <time>2009-11-11T12:48:28Z</time>
      </trkpt>
      <trkpt lat="45.09843" lon="5.02258">
        <ele>269.70401000977</ele>
        <time>2009-11-11T12:48:37Z</time>
      </trkpt>
      <trkpt lat="45.09845" lon="5.02286">
        <ele>270.6669921875</ele>
        <time>2009-11-11T12:48:41Z</time>
      </trkpt>
      <trkpt lat="45.09863" lon="5.02357">
        <ele>274.21301269531</ele>
        <time>2009-11-11T12:48:52Z</time>
      </trkpt>
      <trkpt lat="45.0988" lon="5.02417">
        <ele>274.45599365234</ele>
        <time>2009-11-11T12:49:01Z</time>
      </trkpt>
      <trkpt lat="45.09889" lon="5.02439">
        <ele>273.625</ele>
        <time>2009-11-11T12:49:04Z</time>
      </trkpt>
      <trkpt lat="45.09902" lon="5.02461">
        <ele>272.42001342773</ele>
        <time>2009-11-11T12:49:07Z</time>
      </trkpt>
      <trkpt lat="45.09909" lon="5.02479">
        <ele>271.54098510742</ele>
        <time>2009-11-11T12:49:09Z</time>
      </trkpt>
      <trkpt lat="45.09916" lon="5.02498">
        <ele>270.77600097656</ele>
        <time>2009-11-11T12:49:11Z</time>
      </trkpt>
      <trkpt lat="45.09949" lon="5.0254">
        <ele>268.04098510742</ele>
        <time>2009-11-11T12:49:16Z</time>
      </trkpt>
      <trkpt lat="45.09956" lon="5.02549">
        <ele>267.79098510742</ele>
        <time>2009-11-11T12:49:17Z</time>
      </trkpt>
      <trkpt lat="45.09969" lon="5.02571">
        <ele>266.59899902344</ele>
        <time>2009-11-11T12:49:19Z</time>
      </trkpt>
      <trkpt lat="45.09987" lon="5.02635">
        <ele>266.11898803711</ele>
        <time>2009-11-11T12:49:24Z</time>
      </trkpt>
      <trkpt lat="45.1001" lon="5.02678">
        <ele>259.87899780273</ele>
        <time>2009-11-11T12:49:28Z</time>
      </trkpt>
      <trkpt lat="45.10048" lon="5.02726">
        <ele>257.00399780273</ele>
        <time>2009-11-11T12:49:33Z</time>
      </trkpt>
      <trkpt lat="45.10063" lon="5.02777">
        <ele>254.17399597168</ele>
        <time>2009-11-11T12:49:37Z</time>
      </trkpt>
      <trkpt lat="45.10056" lon="5.02812">
        <ele>252.28399658203</ele>
        <time>2009-11-11T12:49:40Z</time>
      </trkpt>
      <trkpt lat="45.10052" lon="5.02821">
        <ele>251.32400512695</ele>
        <time>2009-11-11T12:49:41Z</time>
      </trkpt>
      <trkpt lat="45.10044" lon="5.02858">
        <ele>249.13299560547</ele>
        <time>2009-11-11T12:49:46Z</time>
      </trkpt>
      <trkpt lat="45.10045" lon="5.02867">
        <ele>249.13299560547</ele>
        <time>2009-11-11T12:49:47Z</time>
      </trkpt>
      <trkpt lat="45.10041" lon="5.02901">
        <ele>247.58700561523</ele>
        <time>2009-11-11T12:49:51Z</time>
      </trkpt>
      <trkpt lat="45.10024" lon="5.02961">
        <ele>244.02799987793</ele>
        <time>2009-11-11T12:49:58Z</time>
      </trkpt>
      <trkpt lat="45.10012" lon="5.03002">
        <ele>242.25700378418</ele>
        <time>2009-11-11T12:50:02Z</time>
      </trkpt>
      <trkpt lat="45.1" lon="5.03046">
        <ele>240.2200012207</ele>
        <time>2009-11-11T12:50:06Z</time>
      </trkpt>
      <trkpt lat="45.09978" lon="5.03124">
        <ele>239.72200012207</ele>
        <time>2009-11-11T12:50:13Z</time>
      </trkpt>
      <trkpt lat="45.09966" lon="5.03169">
        <ele>238.64700317383</ele>
        <time>2009-11-11T12:50:17Z</time>
      </trkpt>
      <trkpt lat="45.0994" lon="5.03257">
        <ele>235.48699951172</ele>
        <time>2009-11-11T12:50:25Z</time>
      </trkpt>
      <trkpt lat="45.09916" lon="5.03341">
        <ele>231.57000732422</ele>
        <time>2009-11-11T12:50:32Z</time>
      </trkpt>
      <trkpt lat="45.09894" lon="5.03416">
        <ele>228.96600341797</ele>
        <time>2009-11-11T12:50:38Z</time>
      </trkpt>
      <trkpt lat="45.09873" lon="5.0346">
        <ele>228.99299621582</ele>
        <time>2009-11-11T12:50:42Z</time>
      </trkpt>
      <trkpt lat="45.09838" lon="5.03511">
        <ele>229.76800537109</ele>
        <time>2009-11-11T12:50:48Z</time>
      </trkpt>
      <trkpt lat="45.09805" lon="5.03561">
        <ele>230.50500488281</ele>
        <time>2009-11-11T12:50:55Z</time>
      </trkpt>
      <trkpt lat="45.09791" lon="5.03593">
        <ele>230.69200134277</ele>
        <time>2009-11-11T12:50:59Z</time>
      </trkpt>
      <trkpt lat="45.09785" lon="5.03645">
        <ele>231.38999938965</ele>
        <time>2009-11-11T12:51:05Z</time>
      </trkpt>
      <trkpt lat="45.09786" lon="5.03654">
        <ele>231.00500488281</ele>
        <time>2009-11-11T12:51:06Z</time>
      </trkpt>
      <trkpt lat="45.09798" lon="5.03728">
        <ele>230.77000427246</ele>
        <time>2009-11-11T12:51:13Z</time>
      </trkpt>
      <trkpt lat="45.09806" lon="5.03774">
        <ele>228.40899658203</ele>
        <time>2009-11-11T12:51:17Z</time>
      </trkpt>
      <trkpt lat="45.09821" lon="5.03828">
        <ele>227.69099426269</ele>
        <time>2009-11-11T12:51:22Z</time>
      </trkpt>
      <trkpt lat="45.0985" lon="5.03903">
        <ele>227.98300170898</ele>
        <time>2009-11-11T12:51:30Z</time>
      </trkpt>
      <trkpt lat="45.09878" lon="5.03974">
        <ele>226.64300537109</ele>
        <time>2009-11-11T12:51:38Z</time>
      </trkpt>
      <trkpt lat="45.0988" lon="5.03983">
        <ele>226.66299438477</ele>
        <time>2009-11-11T12:51:39Z</time>
      </trkpt>
      <trkpt lat="45.09885" lon="5.04032">
        <ele>226.80400085449</ele>
        <time>2009-11-11T12:51:44Z</time>
      </trkpt>
      <trkpt lat="45.09883" lon="5.04041">
        <ele>226.57299804688</ele>
        <time>2009-11-11T12:51:45Z</time>
      </trkpt>
      <trkpt lat="45.09864" lon="5.04122">
        <ele>226.71499633789</ele>
        <time>2009-11-11T12:51:54Z</time>
      </trkpt>
      <trkpt lat="45.09858" lon="5.04139">
        <ele>226.70599365234</ele>
        <time>2009-11-11T12:51:56Z</time>
      </trkpt>
      <trkpt lat="45.09829" lon="5.04179">
        <ele>227.06500244141</ele>
        <time>2009-11-11T12:52:02Z</time>
      </trkpt>
      <trkpt lat="45.09772" lon="5.04237">
        <ele>227.28999328613</ele>
        <time>2009-11-11T12:52:12Z</time>
      </trkpt>
      <trkpt lat="45.09711" lon="5.04297">
        <ele>228.44000244141</ele>
        <time>2009-11-11T12:52:23Z</time>
      </trkpt>
      <trkpt lat="45.09668" lon="5.04348">
        <ele>229.65600585938</ele>
        <time>2009-11-11T12:52:32Z</time>
      </trkpt>
      <trkpt lat="45.09645" lon="5.04399">
        <ele>230.22900390625</ele>
        <time>2009-11-11T12:52:39Z</time>
      </trkpt>
      <trkpt lat="45.09626" lon="5.0446">
        <ele>230.18800354004</ele>
        <time>2009-11-11T12:52:46Z</time>
      </trkpt>
      <trkpt lat="45.09614" lon="5.04508">
        <ele>230.18800354004</ele>
        <time>2009-11-11T12:52:52Z</time>
      </trkpt>
      <trkpt lat="45.09613" lon="5.04516">
        <ele>228.2380065918</ele>
        <time>2009-11-11T12:52:54Z</time>
      </trkpt>
      <trkpt lat="45.09605" lon="5.04532">
        <ele>226.69200134277</ele>
        <time>2009-11-11T12:52:59Z</time>
      </trkpt>
      <trkpt lat="45.09602" lon="5.04536">
        <ele>226.63600158691</ele>
        <time>2009-11-11T12:53:00Z</time>
      </trkpt>
      <trkpt lat="45.09585" lon="5.04573">
        <ele>225.43400573731</ele>
        <time>2009-11-11T12:53:06Z</time>
      </trkpt>
      <trkpt lat="45.09578" lon="5.04586">
        <ele>225.00399780273</ele>
        <time>2009-11-11T12:53:08Z</time>
      </trkpt>
      <trkpt lat="45.09557" lon="5.04606">
        <ele>224.59399414062</ele>
        <time>2009-11-11T12:53:12Z</time>
      </trkpt>
      <trkpt lat="45.09545" lon="5.04614">
        <ele>224.65600585938</ele>
        <time>2009-11-11T12:53:14Z</time>
      </trkpt>
      <trkpt lat="45.0952" lon="5.0463">
        <ele>224.65600585938</ele>
        <time>2009-11-11T12:53:18Z</time>
      </trkpt>
      <trkpt lat="45.09489" lon="5.04644">
        <ele>222.87600708008</ele>
        <time>2009-11-11T12:53:23Z</time>
      </trkpt>
      <trkpt lat="45.09448" lon="5.0466">
        <ele>221.86399841309</ele>
        <time>2009-11-11T12:53:29Z</time>
      </trkpt>
      <trkpt lat="45.09405" lon="5.04682">
        <ele>221.06199645996</ele>
        <time>2009-11-11T12:53:35Z</time>
      </trkpt>
      <trkpt lat="45.09363" lon="5.04705">
        <ele>220.19200134277</ele>
        <time>2009-11-11T12:53:41Z</time>
      </trkpt>
      <trkpt lat="45.09323" lon="5.04739">
        <ele>218.93600463867</ele>
        <time>2009-11-11T12:53:47Z</time>
      </trkpt>
      <trkpt lat="45.09317" lon="5.04745">
        <ele>218.93600463867</ele>
        <time>2009-11-11T12:53:48Z</time>
      </trkpt>
      <trkpt lat="45.09301" lon="5.04777">
        <ele>218.11700439453</ele>
        <time>2009-11-11T12:53:52Z</time>
      </trkpt>
      <trkpt lat="45.09303" lon="5.04807">
        <ele>218.33799743652</ele>
        <time>2009-11-11T12:53:55Z</time>
      </trkpt>
      <trkpt lat="45.09299" lon="5.04869">
        <ele>218.08500671387</ele>
        <time>2009-11-11T12:54:02Z</time>
      </trkpt>
      <trkpt lat="45.09298" lon="5.04878">
        <ele>218.08500671387</ele>
        <time>2009-11-11T12:54:03Z</time>
      </trkpt>
      <trkpt lat="45.09288" lon="5.04906">
        <ele>218.82200622559</ele>
        <time>2009-11-11T12:54:07Z</time>
      </trkpt>
      <trkpt lat="45.0926" lon="5.04949">
        <ele>220.36099243164</ele>
        <time>2009-11-11T12:54:15Z</time>
      </trkpt>
      <trkpt lat="45.09246" lon="5.0497">
        <ele>220.75999450684</ele>
        <time>2009-11-11T12:54:19Z</time>
      </trkpt>
      <trkpt lat="45.09237" lon="5.0501">
        <ele>221.80000305176</ele>
        <time>2009-11-11T12:54:25Z</time>
      </trkpt>
      <trkpt lat="45.09242" lon="5.05046">
        <ele>222.7140045166</ele>
        <time>2009-11-11T12:54:30Z</time>
      </trkpt>
      <trkpt lat="45.09262" lon="5.05103">
        <ele>224.2200012207</ele>
        <time>2009-11-11T12:54:39Z</time>
      </trkpt>
      <trkpt lat="45.09289" lon="5.05158">
        <ele>225.03500366211</ele>
        <time>2009-11-11T12:54:48Z</time>
      </trkpt>
      <trkpt lat="45.09322" lon="5.05216">
        <ele>225.85499572754</ele>
        <time>2009-11-11T12:54:57Z</time>
      </trkpt>
      <trkpt lat="45.09363" lon="5.05284">
        <ele>224.10600280762</ele>
        <time>2009-11-11T12:55:07Z</time>
      </trkpt>
      <trkpt lat="45.09392" lon="5.05338">
        <ele>224.45100402832</ele>
        <time>2009-11-11T12:55:15Z</time>
      </trkpt>
      <trkpt lat="45.09415" lon="5.05402">
        <ele>224.90299987793</ele>
        <time>2009-11-11T12:55:24Z</time>
      </trkpt>
      <trkpt lat="45.09425" lon="5.05458">
        <ele>225.10899353027</ele>
        <time>2009-11-11T12:55:31Z</time>
      </trkpt>
      <trkpt lat="45.09433" lon="5.05548">
        <ele>225.18699645996</ele>
        <time>2009-11-11T12:55:42Z</time>
      </trkpt>
      <trkpt lat="45.09436" lon="5.05623">
        <ele>225.95399475098</ele>
        <time>2009-11-11T12:55:51Z</time>
      </trkpt>
      <trkpt lat="45.09428" lon="5.05694">
        <ele>225.20300292969</ele>
        <time>2009-11-11T12:55:59Z</time>
      </trkpt>
      <trkpt lat="45.09415" lon="5.0577">
        <ele>224.60000610352</ele>
        <time>2009-11-11T12:56:07Z</time>
      </trkpt>
      <trkpt lat="45.09393" lon="5.05851">
        <ele>223.99899291992</ele>
        <time>2009-11-11T12:56:16Z</time>
      </trkpt>
      <trkpt lat="45.0938" lon="5.05927">
        <ele>223.65400695801</ele>
        <time>2009-11-11T12:56:24Z</time>
      </trkpt>
      <trkpt lat="45.09372" lon="5.06011">
        <ele>223.71699523926</ele>
        <time>2009-11-11T12:56:33Z</time>
      </trkpt>
      <trkpt lat="45.09367" lon="5.06102">
        <ele>224.33000183106</ele>
        <time>2009-11-11T12:56:43Z</time>
      </trkpt>
      <trkpt lat="45.09369" lon="5.0619">
        <ele>224.85200500488</ele>
        <time>2009-11-11T12:56:53Z</time>
      </trkpt>
      <trkpt lat="45.09371" lon="5.06224">
        <ele>225.57099914551</ele>
        <time>2009-11-11T12:56:57Z</time>
      </trkpt>
      <trkpt lat="45.09372" lon="5.06274">
        <ele>225.69099426269</ele>
        <time>2009-11-11T12:57:03Z</time>
      </trkpt>
      <trkpt lat="45.09372" lon="5.06328">
        <ele>226.30799865723</ele>
        <time>2009-11-11T12:57:10Z</time>
      </trkpt>
      <trkpt lat="45.09374" lon="5.06412">
        <ele>226.81300354004</ele>
        <time>2009-11-11T12:57:20Z</time>
      </trkpt>
      <trkpt lat="45.09379" lon="5.06507">
        <ele>227.67700195312</ele>
        <time>2009-11-11T12:57:31Z</time>
      </trkpt>
      <trkpt lat="45.09382" lon="5.06584">
        <ele>228.12800598144</ele>
        <time>2009-11-11T12:57:40Z</time>
      </trkpt>
      <trkpt lat="45.09375" lon="5.06659">
        <ele>229.05000305176</ele>
        <time>2009-11-11T12:57:49Z</time>
      </trkpt>
      <trkpt lat="45.09368" lon="5.06742">
        <ele>230.07400512695</ele>
        <time>2009-11-11T12:57:59Z</time>
      </trkpt>
      <trkpt lat="45.09369" lon="5.06801">
        <ele>230.12600708008</ele>
        <time>2009-11-11T12:58:06Z</time>
      </trkpt>
      <trkpt lat="45.09375" lon="5.06902">
        <ele>230.70399475098</ele>
        <time>2009-11-11T12:58:18Z</time>
      </trkpt>
      <trkpt lat="45.09379" lon="5.06974">
        <ele>232.14300537109</ele>
        <time>2009-11-11T12:58:27Z</time>
      </trkpt>
      <trkpt lat="45.09385" lon="5.07067">
        <ele>233.96000671387</ele>
        <time>2009-11-11T12:58:39Z</time>
      </trkpt>
      <trkpt lat="45.09388" lon="5.0712">
        <ele>234.39399719238</ele>
        <time>2009-11-11T12:58:46Z</time>
      </trkpt>
      <trkpt lat="45.09388" lon="5.07156">
        <ele>235.92399597168</ele>
        <time>2009-11-11T12:58:51Z</time>
      </trkpt>
      <trkpt lat="45.09379" lon="5.07188">
        <ele>237.05400085449</ele>
        <time>2009-11-11T12:58:56Z</time>
      </trkpt>
      <trkpt lat="45.09372" lon="5.07224">
        <ele>236.30799865723</ele>
        <time>2009-11-11T12:59:01Z</time>
      </trkpt>
      <trkpt lat="45.09371" lon="5.07262">
        <ele>235.36799621582</ele>
        <time>2009-11-11T12:59:05Z</time>
      </trkpt>
      <trkpt lat="45.09382" lon="5.07329">
        <ele>234.38000488281</ele>
        <time>2009-11-11T12:59:12Z</time>
      </trkpt>
      <trkpt lat="45.09393" lon="5.07368">
        <ele>234.63000488281</ele>
        <time>2009-11-11T12:59:17Z</time>
      </trkpt>
      <trkpt lat="45.09414" lon="5.07436">
        <ele>235.26499938965</ele>
        <time>2009-11-11T12:59:26Z</time>
      </trkpt>
      <trkpt lat="45.09436" lon="5.07481">
        <ele>236.31300354004</ele>
        <time>2009-11-11T12:59:33Z</time>
      </trkpt>
      <trkpt lat="45.09469" lon="5.07532">
        <ele>237.23500061035</ele>
        <time>2009-11-11T12:59:42Z</time>
      </trkpt>
      <trkpt lat="45.09499" lon="5.07571">
        <ele>237.51100158691</ele>
        <time>2009-11-11T12:59:50Z</time>
      </trkpt>
      <trkpt lat="45.09526" lon="5.07604">
        <ele>238.13900756836</ele>
        <time>2009-11-11T12:59:57Z</time>
      </trkpt>
      <trkpt lat="45.0956" lon="5.07646">
        <ele>238.57899475098</ele>
        <time>2009-11-11T13:00:06Z</time>
      </trkpt>
      <trkpt lat="45.09578" lon="5.07672">
        <ele>238.08099365234</ele>
        <time>2009-11-11T13:00:11Z</time>
      </trkpt>
      <trkpt lat="45.09604" lon="5.07726">
        <ele>239.30000305176</ele>
        <time>2009-11-11T13:00:20Z</time>
      </trkpt>
      <trkpt lat="45.09633" lon="5.0778">
        <ele>240.21600341797</ele>
        <time>2009-11-11T13:00:29Z</time>
      </trkpt>
      <trkpt lat="45.09669" lon="5.07836">
        <ele>241.48199462891</ele>
        <time>2009-11-11T13:00:39Z</time>
      </trkpt>
      <trkpt lat="45.09708" lon="5.07883">
        <ele>242.35600280762</ele>
        <time>2009-11-11T13:00:49Z</time>
      </trkpt>
      <trkpt lat="45.09738" lon="5.07901">
        <ele>243.03700256348</ele>
        <time>2009-11-11T13:00:55Z</time>
      </trkpt>
      <trkpt lat="45.09773" lon="5.0791">
        <ele>243.77099609375</ele>
        <time>2009-11-11T13:01:02Z</time>
      </trkpt>
      <trkpt lat="45.09812" lon="5.07919">
        <ele>245.17900085449</ele>
        <time>2009-11-11T13:01:10Z</time>
      </trkpt>
      <trkpt lat="45.09844" lon="5.07927">
        <ele>246.55599975586</ele>
        <time>2009-11-11T13:01:17Z</time>
      </trkpt>
      <trkpt lat="45.09876" lon="5.07943">
        <ele>247.10699462891</ele>
        <time>2009-11-11T13:01:24Z</time>
      </trkpt>
      <trkpt lat="45.09922" lon="5.07969">
        <ele>248.65100097656</ele>
        <time>2009-11-11T13:01:34Z</time>
      </trkpt>
      <trkpt lat="45.09962" lon="5.0799">
        <ele>249.45300292969</ele>
        <time>2009-11-11T13:01:43Z</time>
      </trkpt>
      <trkpt lat="45.10004" lon="5.08014">
        <ele>249.7619934082</ele>
        <time>2009-11-11T13:01:52Z</time>
      </trkpt>
      <trkpt lat="45.10044" lon="5.08037">
        <ele>251.37100219727</ele>
        <time>2009-11-11T13:02:01Z</time>
      </trkpt>
      <trkpt lat="45.10066" lon="5.08049">
        <ele>251.76499938965</ele>
        <time>2009-11-11T13:02:06Z</time>
      </trkpt>
      <trkpt lat="45.10092" lon="5.08068">
        <ele>252.07899475098</ele>
        <time>2009-11-11T13:02:12Z</time>
      </trkpt>
      <trkpt lat="45.10096" lon="5.08073">
        <ele>252.09700012207</ele>
        <time>2009-11-11T13:02:13Z</time>
      </trkpt>
      <trkpt lat="45.10113" lon="5.08101">
        <ele>251.86700439453</ele>
        <time>2009-11-11T13:02:18Z</time>
      </trkpt>
      <trkpt lat="45.10136" lon="5.0815">
        <ele>251.91000366211</ele>
        <time>2009-11-11T13:02:26Z</time>
      </trkpt>
      <trkpt lat="45.10175" lon="5.08218">
        <ele>252.10099792481</ele>
        <time>2009-11-11T13:02:37Z</time>
      </trkpt>
      <trkpt lat="45.10197" lon="5.08267">
        <ele>252.9880065918</ele>
        <time>2009-11-11T13:02:45Z</time>
      </trkpt>
      <trkpt lat="45.10218" lon="5.08329">
        <ele>254.08299255371</ele>
        <time>2009-11-11T13:02:55Z</time>
      </trkpt>
      <trkpt lat="45.1024" lon="5.08401">
        <ele>255.26499938965</ele>
        <time>2009-11-11T13:03:06Z</time>
      </trkpt>
      <trkpt lat="45.10262" lon="5.08471">
        <ele>256.33700561523</ele>
        <time>2009-11-11T13:03:17Z</time>
      </trkpt>
      <trkpt lat="45.10281" lon="5.08526">
        <ele>256.69900512695</ele>
        <time>2009-11-11T13:03:25Z</time>
      </trkpt>
      <trkpt lat="45.10308" lon="5.08586">
        <ele>257.89700317383</ele>
        <time>2009-11-11T13:03:35Z</time>
      </trkpt>
      <trkpt lat="45.10323" lon="5.08633">
        <ele>259.44198608398</ele>
        <time>2009-11-11T13:03:43Z</time>
      </trkpt>
      <trkpt lat="45.10341" lon="5.08687">
        <ele>260.86801147461</ele>
        <time>2009-11-11T13:03:52Z</time>
      </trkpt>
      <trkpt lat="45.10358" lon="5.08716">
        <ele>262.21701049805</ele>
        <time>2009-11-11T13:03:58Z</time>
      </trkpt>
      <trkpt lat="45.1039" lon="5.08747">
        <ele>264.55599975586</ele>
        <time>2009-11-11T13:04:07Z</time>
      </trkpt>
      <trkpt lat="45.10425" lon="5.08778">
        <ele>267.5119934082</ele>
        <time>2009-11-11T13:04:17Z</time>
      </trkpt>
      <trkpt lat="45.10448" lon="5.08803">
        <ele>267.89700317383</ele>
        <time>2009-11-11T13:04:24Z</time>
      </trkpt>
      <trkpt lat="45.1046" lon="5.08823">
        <ele>269.41400146484</ele>
        <time>2009-11-11T13:04:29Z</time>
      </trkpt>
      <trkpt lat="45.10469" lon="5.08847">
        <ele>271.50900268555</ele>
        <time>2009-11-11T13:04:35Z</time>
      </trkpt>
      <trkpt lat="45.10474" lon="5.08864">
        <ele>272.9169921875</ele>
        <time>2009-11-11T13:04:39Z</time>
      </trkpt>
      <trkpt lat="45.10478" lon="5.08877">
        <ele>274.41400146484</ele>
        <time>2009-11-11T13:04:42Z</time>
      </trkpt>
      <trkpt lat="45.10487" lon="5.08911">
        <ele>276.63000488281</ele>
        <time>2009-11-11T13:04:49Z</time>
      </trkpt>
      <trkpt lat="45.10491" lon="5.08921">
        <ele>277.25799560547</ele>
        <time>2009-11-11T13:04:51Z</time>
      </trkpt>
      <trkpt lat="45.10501" lon="5.0895">
        <ele>278.60598754883</ele>
        <time>2009-11-11T13:04:56Z</time>
      </trkpt>
      <trkpt lat="45.10518" lon="5.09001">
        <ele>278.76400756836</ele>
        <time>2009-11-11T13:05:05Z</time>
      </trkpt>
      <trkpt lat="45.1053" lon="5.09041">
        <ele>279.15798950195</ele>
        <time>2009-11-11T13:05:13Z</time>
      </trkpt>
      <trkpt lat="45.10541" lon="5.09073">
        <ele>279.33099365234</ele>
        <time>2009-11-11T13:05:20Z</time>
      </trkpt>
      <trkpt lat="45.10553" lon="5.09112">
        <ele>278.79901123047</ele>
        <time>2009-11-11T13:05:27Z</time>
      </trkpt>
      <trkpt lat="45.1056" lon="5.09136">
        <ele>278.89199829102</ele>
        <time>2009-11-11T13:05:31Z</time>
      </trkpt>
      <trkpt lat="45.10565" lon="5.09154">
        <ele>278.60400390625</ele>
        <time>2009-11-11T13:05:34Z</time>
      </trkpt>
      <trkpt lat="45.10579" lon="5.09208">
        <ele>279.02600097656</ele>
        <time>2009-11-11T13:05:43Z</time>
      </trkpt>
      <trkpt lat="45.10588" lon="5.09241">
        <ele>278.99899291992</ele>
        <time>2009-11-11T13:05:48Z</time>
      </trkpt>
      <trkpt lat="45.10603" lon="5.09298">
        <ele>280.66799926758</ele>
        <time>2009-11-11T13:05:57Z</time>
      </trkpt>
      <trkpt lat="45.10619" lon="5.09348">
        <ele>279.23098754883</ele>
        <time>2009-11-11T13:06:04Z</time>
      </trkpt>
      <trkpt lat="45.10642" lon="5.09424">
        <ele>278.36099243164</ele>
        <time>2009-11-11T13:06:13Z</time>
      </trkpt>
      <trkpt lat="45.10658" lon="5.09452">
        <ele>278.14599609375</ele>
        <time>2009-11-11T13:06:17Z</time>
      </trkpt>
      <trkpt lat="45.10688" lon="5.09478">
        <ele>278.10900878906</ele>
        <time>2009-11-11T13:06:23Z</time>
      </trkpt>
      <trkpt lat="45.10719" lon="5.09492">
        <ele>279.59698486328</ele>
        <time>2009-11-11T13:06:29Z</time>
      </trkpt>
      <trkpt lat="45.10724" lon="5.09494">
        <ele>279.55999755859</ele>
        <time>2009-11-11T13:06:30Z</time>
      </trkpt>
      <trkpt lat="45.10759" lon="5.09499">
        <ele>278.35299682617</ele>
        <time>2009-11-11T13:06:36Z</time>
      </trkpt>
      <trkpt lat="45.10791" lon="5.09492">
        <ele>274.94100952148</ele>
        <time>2009-11-11T13:06:40Z</time>
      </trkpt>
      <trkpt lat="45.10838" lon="5.09488">
        <ele>271.8210144043</ele>
        <time>2009-11-11T13:06:45Z</time>
      </trkpt>
      <trkpt lat="45.10857" lon="5.09488">
        <ele>271.75799560547</ele>
        <time>2009-11-11T13:06:47Z</time>
      </trkpt>
      <trkpt lat="45.10879" lon="5.09505">
        <ele>271.9049987793</ele>
        <time>2009-11-11T13:06:50Z</time>
      </trkpt>
      <trkpt lat="45.10882" lon="5.09525">
        <ele>271.67999267578</ele>
        <time>2009-11-11T13:06:52Z</time>
      </trkpt>
      <trkpt lat="45.10879" lon="5.09552">
        <ele>271.17599487305</ele>
        <time>2009-11-11T13:06:57Z</time>
      </trkpt>
      <trkpt lat="45.10872" lon="5.09555">
        <ele>271.5539855957</ele>
        <time>2009-11-11T13:06:59Z</time>
      </trkpt>
      <trkpt lat="45.1084" lon="5.09573">
        <ele>271.0530090332</ele>
        <time>2009-11-11T13:07:07Z</time>
      </trkpt>
      <trkpt lat="45.10803" lon="5.09607">
        <ele>271.48300170898</ele>
        <time>2009-11-11T13:07:16Z</time>
      </trkpt>
      <trkpt lat="45.10771" lon="5.0964">
        <ele>270.86599731445</ele>
        <time>2009-11-11T13:07:23Z</time>
      </trkpt>
      <trkpt lat="45.10726" lon="5.09673">
        <ele>269.27499389648</ele>
        <time>2009-11-11T13:07:31Z</time>
      </trkpt>
      <trkpt lat="45.10692" lon="5.09685">
        <ele>268.32400512695</ele>
        <time>2009-11-11T13:07:36Z</time>
      </trkpt>
      <trkpt lat="45.1065" lon="5.09687">
        <ele>268.56201171875</ele>
        <time>2009-11-11T13:07:42Z</time>
      </trkpt>
      <trkpt lat="45.10588" lon="5.09683">
        <ele>267.8030090332</ele>
        <time>2009-11-11T13:07:51Z</time>
      </trkpt>
      <trkpt lat="45.10512" lon="5.09678">
        <ele>267.91198730469</ele>
        <time>2009-11-11T13:08:02Z</time>
      </trkpt>
      <trkpt lat="45.10445" lon="5.09674">
        <ele>268.47100830078</ele>
        <time>2009-11-11T13:08:12Z</time>
      </trkpt>
      <trkpt lat="45.10389" lon="5.09672">
        <ele>269.75100708008</ele>
        <time>2009-11-11T13:08:21Z</time>
      </trkpt>
      <trkpt lat="45.10361" lon="5.09673">
        <ele>270.75100708008</ele>
        <time>2009-11-11T13:08:26Z</time>
      </trkpt>
      <trkpt lat="45.10332" lon="5.0967">
        <ele>272.3210144043</ele>
        <time>2009-11-11T13:08:32Z</time>
      </trkpt>
      <trkpt lat="45.10323" lon="5.09678">
        <ele>273.36401367188</ele>
        <time>2009-11-11T13:08:36Z</time>
      </trkpt>
      <trkpt lat="45.10325" lon="5.09681">
        <ele>273.66198730469</ele>
        <time>2009-11-11T13:08:37Z</time>
      </trkpt>
      <trkpt lat="45.10352" lon="5.09701">
        <ele>274.14099121094</ele>
        <time>2009-11-11T13:08:45Z</time>
      </trkpt>
      <trkpt lat="45.10388" lon="5.09728">
        <ele>274.27301025391</ele>
        <time>2009-11-11T13:08:55Z</time>
      </trkpt>
      <trkpt lat="45.10416" lon="5.09749">
        <ele>274.76800537109</ele>
        <time>2009-11-11T13:09:02Z</time>
      </trkpt>
      <trkpt lat="45.10449" lon="5.09772">
        <ele>275.28500366211</ele>
        <time>2009-11-11T13:09:10Z</time>
      </trkpt>
      <trkpt lat="45.10499" lon="5.09807">
        <ele>275.86401367188</ele>
        <time>2009-11-11T13:09:22Z</time>
      </trkpt>
      <trkpt lat="45.10532" lon="5.09833">
        <ele>276.99600219727</ele>
        <time>2009-11-11T13:09:30Z</time>
      </trkpt>
      <trkpt lat="45.10559" lon="5.09857">
        <ele>276.56298828125</ele>
        <time>2009-11-11T13:09:36Z</time>
      </trkpt>
      <trkpt lat="45.10591" lon="5.09868">
        <ele>276.44500732422</ele>
        <time>2009-11-11T13:09:42Z</time>
      </trkpt>
      <trkpt lat="45.10622" lon="5.09876">
        <ele>275.58200073242</ele>
        <time>2009-11-11T13:09:48Z</time>
      </trkpt>
      <trkpt lat="45.10664" lon="5.0989">
        <ele>276.08599853516</ele>
        <time>2009-11-11T13:09:56Z</time>
      </trkpt>
      <trkpt lat="45.10707" lon="5.09909">
        <ele>276.86099243164</ele>
        <time>2009-11-11T13:10:05Z</time>
      </trkpt>
      <trkpt lat="45.10744" lon="5.09939">
        <ele>277.65301513672</ele>
        <time>2009-11-11T13:10:14Z</time>
      </trkpt>
      <trkpt lat="45.10775" lon="5.09971">
        <ele>278.96099853516</ele>
        <time>2009-11-11T13:10:22Z</time>
      </trkpt>
      <trkpt lat="45.10794" lon="5.09997">
        <ele>281.25299072266</ele>
        <time>2009-11-11T13:10:28Z</time>
      </trkpt>
      <trkpt lat="45.10817" lon="5.10035">
        <ele>281.92098999023</ele>
        <time>2009-11-11T13:10:36Z</time>
      </trkpt>
      <trkpt lat="45.1083" lon="5.10073">
        <ele>281.86499023438</ele>
        <time>2009-11-11T13:10:42Z</time>
      </trkpt>
      <trkpt lat="45.1085" lon="5.10138">
        <ele>282.3330078125</ele>
        <time>2009-11-11T13:10:52Z</time>
      </trkpt>
      <trkpt lat="45.10877" lon="5.10182">
        <ele>283.80700683594</ele>
        <time>2009-11-11T13:11:01Z</time>
      </trkpt>
      <trkpt lat="45.10899" lon="5.10209">
        <ele>285.43499755859</ele>
        <time>2009-11-11T13:11:09Z</time>
      </trkpt>
      <trkpt lat="45.10919" lon="5.10243">
        <ele>288.10198974609</ele>
        <time>2009-11-11T13:11:18Z</time>
      </trkpt>
      <trkpt lat="45.10927" lon="5.10275">
        <ele>290.72399902344</ele>
        <time>2009-11-11T13:11:26Z</time>
      </trkpt>
      <trkpt lat="45.10932" lon="5.10302">
        <ele>293.91598510742</ele>
        <time>2009-11-11T13:11:33Z</time>
      </trkpt>
      <trkpt lat="45.10933" lon="5.10306">
        <ele>294.13198852539</ele>
        <time>2009-11-11T13:11:34Z</time>
      </trkpt>
      <trkpt lat="45.10936" lon="5.10324">
        <ele>296.18399047852</ele>
        <time>2009-11-11T13:11:39Z</time>
      </trkpt>
      <trkpt lat="45.1094" lon="5.10337">
        <ele>297.82299804688</ele>
        <time>2009-11-11T13:11:43Z</time>
      </trkpt>
      <trkpt lat="45.10946" lon="5.10361">
        <ele>300.73999023438</ele>
        <time>2009-11-11T13:11:50Z</time>
      </trkpt>
      <trkpt lat="45.10952" lon="5.10382">
        <ele>303.38400268555</ele>
        <time>2009-11-11T13:11:57Z</time>
      </trkpt>
      <trkpt lat="45.10958" lon="5.10403">
        <ele>305.42001342773</ele>
        <time>2009-11-11T13:12:04Z</time>
      </trkpt>
      <trkpt lat="45.10965" lon="5.10426">
        <ele>307.74600219727</ele>
        <time>2009-11-11T13:12:11Z</time>
      </trkpt>
      <trkpt lat="45.10981" lon="5.1046">
        <ele>309.70901489258</ele>
        <time>2009-11-11T13:12:22Z</time>
      </trkpt>
      <trkpt lat="45.10994" lon="5.1048">
        <ele>311.06900024414</ele>
        <time>2009-11-11T13:12:29Z</time>
      </trkpt>
      <trkpt lat="45.11007" lon="5.10505">
        <ele>312.375</ele>
        <time>2009-11-11T13:12:37Z</time>
      </trkpt>
      <trkpt lat="45.11021" lon="5.10535">
        <ele>314.62899780273</ele>
        <time>2009-11-11T13:12:45Z</time>
      </trkpt>
      <trkpt lat="45.11037" lon="5.1057">
        <ele>316.35501098633</ele>
        <time>2009-11-11T13:12:51Z</time>
      </trkpt>
      <trkpt lat="45.11035" lon="5.10582">
        <ele>317.42599487305</ele>
        <time>2009-11-11T13:12:55Z</time>
      </trkpt>
      <trkpt lat="45.11032" lon="5.10583">
        <ele>317.78100585938</ele>
        <time>2009-11-11T13:12:57Z</time>
      </trkpt>
      <trkpt lat="45.11021" lon="5.10581">
        <ele>317.90399169922</ele>
        <time>2009-11-11T13:13:06Z</time>
      </trkpt>
      <trkpt lat="45.11013" lon="5.10576">
        <ele>317.93899536133</ele>
        <time>2009-11-11T13:13:11Z</time>
      </trkpt>
      <trkpt lat="45.11005" lon="5.10573">
        <ele>317.82998657227</ele>
        <time>2009-11-11T13:13:15Z</time>
      </trkpt>
      <trkpt lat="45.10989" lon="5.10567">
        <ele>317.39801025391</ele>
        <time>2009-11-11T13:13:21Z</time>
      </trkpt>
      <trkpt lat="45.10968" lon="5.1056">
        <ele>316.83499145508</ele>
        <time>2009-11-11T13:13:27Z</time>
      </trkpt>
      <trkpt lat="45.10952" lon="5.10554">
        <ele>316.41500854492</ele>
        <time>2009-11-11T13:13:31Z</time>
      </trkpt>
      <trkpt lat="45.10929" lon="5.10548">
        <ele>316.46701049805</ele>
        <time>2009-11-11T13:13:37Z</time>
      </trkpt>
      <trkpt lat="45.10924" lon="5.10552">
        <ele>316.44299316406</ele>
        <time>2009-11-11T13:13:39Z</time>
      </trkpt>
      <trkpt lat="45.10917" lon="5.1058">
        <ele>316.94900512695</ele>
        <time>2009-11-11T13:13:45Z</time>
      </trkpt>
      <trkpt lat="45.10914" lon="5.10614">
        <ele>317.05099487305</ele>
        <time>2009-11-11T13:13:53Z</time>
      </trkpt>
      <trkpt lat="45.10912" lon="5.10632">
        <ele>317.26800537109</ele>
        <time>2009-11-11T13:13:57Z</time>
      </trkpt>
      <trkpt lat="45.10911" lon="5.10665">
        <ele>317.94900512695</ele>
        <time>2009-11-11T13:14:04Z</time>
      </trkpt>
      <trkpt lat="45.10909" lon="5.10698">
        <ele>317.58200073242</ele>
        <time>2009-11-11T13:14:11Z</time>
      </trkpt>
      <trkpt lat="45.10907" lon="5.10737">
        <ele>316.30700683594</ele>
        <time>2009-11-11T13:14:17Z</time>
      </trkpt>
      <trkpt lat="45.10905" lon="5.10767">
        <ele>314.61898803711</ele>
        <time>2009-11-11T13:14:21Z</time>
      </trkpt>
      <trkpt lat="45.10904" lon="5.10802">
        <ele>313.43499755859</ele>
        <time>2009-11-11T13:14:25Z</time>
      </trkpt>
      <trkpt lat="45.10907" lon="5.10837">
        <ele>312.47601318359</ele>
        <time>2009-11-11T13:14:29Z</time>
      </trkpt>
      <trkpt lat="45.10922" lon="5.10891">
        <ele>312.16299438477</ele>
        <time>2009-11-11T13:14:36Z</time>
      </trkpt>
      <trkpt lat="45.10923" lon="5.10897">
        <ele>312.51501464844</ele>
        <time>2009-11-11T13:14:37Z</time>
      </trkpt>
      <trkpt lat="45.10936" lon="5.10939">
        <ele>311.22100830078</ele>
        <time>2009-11-11T13:14:43Z</time>
      </trkpt>
      <trkpt lat="45.10946" lon="5.1096">
        <ele>310.91799926758</ele>
        <time>2009-11-11T13:14:46Z</time>
      </trkpt>
      <trkpt lat="45.1097" lon="5.10979">
        <ele>310.93099975586</ele>
        <time>2009-11-11T13:14:51Z</time>
      </trkpt>
      <trkpt lat="45.1098" lon="5.10993">
        <ele>310.28298950195</ele>
        <time>2009-11-11T13:14:54Z</time>
      </trkpt>
      <trkpt lat="45.10975" lon="5.11011">
        <ele>310.50698852539</ele>
        <time>2009-11-11T13:14:57Z</time>
      </trkpt>
      <trkpt lat="45.1097" lon="5.11022">
        <ele>310.53100585938</ele>
        <time>2009-11-11T13:14:59Z</time>
      </trkpt>
      <trkpt lat="45.1096" lon="5.11053">
        <ele>310.46099853516</ele>
        <time>2009-11-11T13:15:05Z</time>
      </trkpt>
      <trkpt lat="45.10951" lon="5.11081">
        <ele>308.14898681641</ele>
        <time>2009-11-11T13:15:09Z</time>
      </trkpt>
      <trkpt lat="45.10943" lon="5.11125">
        <ele>304.86700439453</ele>
        <time>2009-11-11T13:15:13Z</time>
      </trkpt>
      <trkpt lat="45.10941" lon="5.11149">
        <ele>303.66500854492</ele>
        <time>2009-11-11T13:15:15Z</time>
      </trkpt>
      <trkpt lat="45.10944" lon="5.112">
        <ele>301.69299316406</ele>
        <time>2009-11-11T13:15:19Z</time>
      </trkpt>
      <trkpt lat="45.10948" lon="5.1123">
        <ele>299.8219909668</ele>
        <time>2009-11-11T13:15:22Z</time>
      </trkpt>
      <trkpt lat="45.10949" lon="5.11256">
        <ele>298.61499023438</ele>
        <time>2009-11-11T13:15:26Z</time>
      </trkpt>
      <trkpt lat="45.10933" lon="5.11269">
        <ele>298.64898681641</ele>
        <time>2009-11-11T13:15:30Z</time>
      </trkpt>
      <trkpt lat="45.10914" lon="5.113">
        <ele>299.19500732422</ele>
        <time>2009-11-11T13:15:36Z</time>
      </trkpt>
      <trkpt lat="45.10911" lon="5.11313">
        <ele>299.17300415039</ele>
        <time>2009-11-11T13:15:38Z</time>
      </trkpt>
      <trkpt lat="45.10902" lon="5.1137">
        <ele>300.90899658203</ele>
        <time>2009-11-11T13:15:47Z</time>
      </trkpt>
      <trkpt lat="45.10893" lon="5.11401">
        <ele>302.76300048828</ele>
        <time>2009-11-11T13:15:53Z</time>
      </trkpt>
      <trkpt lat="45.10884" lon="5.11426">
        <ele>303.69100952148</ele>
        <time>2009-11-11T13:15:58Z</time>
      </trkpt>
      <trkpt lat="45.10881" lon="5.11437">
        <ele>303.88800048828</ele>
        <time>2009-11-11T13:16:00Z</time>
      </trkpt>
      <trkpt lat="45.10873" lon="5.11463">
        <ele>304.21600341797</ele>
        <time>2009-11-11T13:16:05Z</time>
      </trkpt>
      <trkpt lat="45.10862" lon="5.11509">
        <ele>303.20001220703</ele>
        <time>2009-11-11T13:16:12Z</time>
      </trkpt>
      <trkpt lat="45.10846" lon="5.11557">
        <ele>302.19198608398</ele>
        <time>2009-11-11T13:16:18Z</time>
      </trkpt>
      <trkpt lat="45.10822" lon="5.11622">
        <ele>299.66900634766</ele>
        <time>2009-11-11T13:16:25Z</time>
      </trkpt>
      <trkpt lat="45.1081" lon="5.11654">
        <ele>298.92401123047</ele>
        <time>2009-11-11T13:16:28Z</time>
      </trkpt>
      <trkpt lat="45.10795" lon="5.117">
        <ele>298.60699462891</ele>
        <time>2009-11-11T13:16:33Z</time>
      </trkpt>
      <trkpt lat="45.10774" lon="5.11752">
        <ele>297.22100830078</ele>
        <time>2009-11-11T13:16:39Z</time>
      </trkpt>
      <trkpt lat="45.10759" lon="5.11783">
        <ele>296.76300048828</ele>
        <time>2009-11-11T13:16:43Z</time>
      </trkpt>
      <trkpt lat="45.10739" lon="5.11802">
        <ele>296.4580078125</ele>
        <time>2009-11-11T13:16:47Z</time>
      </trkpt>
      <trkpt lat="45.10728" lon="5.11806">
        <ele>296.4580078125</ele>
        <time>2009-11-11T13:16:49Z</time>
      </trkpt>
      <trkpt lat="45.10691" lon="5.11822">
        <ele>296.64199829102</ele>
        <time>2009-11-11T13:16:56Z</time>
      </trkpt>
      <trkpt lat="45.10678" lon="5.11843">
        <ele>296.35800170898</ele>
        <time>2009-11-11T13:17:00Z</time>
      </trkpt>
      <trkpt lat="45.10656" lon="5.11868">
        <ele>293.87600708008</ele>
        <time>2009-11-11T13:17:05Z</time>
      </trkpt>
      <trkpt lat="45.10644" lon="5.1187">
        <ele>293.4580078125</ele>
        <time>2009-11-11T13:17:07Z</time>
      </trkpt>
      <trkpt lat="45.10597" lon="5.11874">
        <ele>289.8450012207</ele>
        <time>2009-11-11T13:17:15Z</time>
      </trkpt>
      <trkpt lat="45.10586" lon="5.11878">
        <ele>289.58599853516</ele>
        <time>2009-11-11T13:17:17Z</time>
      </trkpt>
      <trkpt lat="45.10558" lon="5.11899">
        <ele>288.41400146484</ele>
        <time>2009-11-11T13:17:22Z</time>
      </trkpt>
      <trkpt lat="45.10546" lon="5.11928">
        <ele>287.67498779297</ele>
        <time>2009-11-11T13:17:26Z</time>
      </trkpt>
      <trkpt lat="45.10546" lon="5.11937">
        <ele>287.67498779297</ele>
        <time>2009-11-11T13:17:27Z</time>
      </trkpt>
      <trkpt lat="45.10544" lon="5.12001">
        <ele>287.67498779297</ele>
        <time>2009-11-11T13:17:33Z</time>
      </trkpt>
      <trkpt lat="45.10556" lon="5.1204">
        <ele>280.93798828125</ele>
        <time>2009-11-11T13:17:37Z</time>
      </trkpt>
      <trkpt lat="45.10577" lon="5.12054">
        <ele>278.41000366211</ele>
        <time>2009-11-11T13:17:40Z</time>
      </trkpt>
      <trkpt lat="45.10585" lon="5.12055">
        <ele>278.33200073242</ele>
        <time>2009-11-11T13:17:41Z</time>
      </trkpt>
      <trkpt lat="45.10607" lon="5.12053">
        <ele>275.89700317383</ele>
        <time>2009-11-11T13:17:44Z</time>
      </trkpt>
      <trkpt lat="45.10637" lon="5.12046">
        <ele>272.8219909668</ele>
        <time>2009-11-11T13:17:49Z</time>
      </trkpt>
      <trkpt lat="45.10649" lon="5.12045">
        <ele>271.95199584961</ele>
        <time>2009-11-11T13:17:51Z</time>
      </trkpt>
      <trkpt lat="45.10677" lon="5.1205">
        <ele>270.42001342773</ele>
        <time>2009-11-11T13:17:55Z</time>
      </trkpt>
      <trkpt lat="45.10703" lon="5.1207">
        <ele>267.83499145508</ele>
        <time>2009-11-11T13:17:59Z</time>
      </trkpt>
      <trkpt lat="45.10731" lon="5.12106">
        <ele>264.64099121094</ele>
        <time>2009-11-11T13:18:04Z</time>
      </trkpt>
      <trkpt lat="45.10741" lon="5.12126">
        <ele>263.19299316406</ele>
        <time>2009-11-11T13:18:07Z</time>
      </trkpt>
      <trkpt lat="45.10758" lon="5.1214">
        <ele>262.86401367188</ele>
        <time>2009-11-11T13:18:11Z</time>
      </trkpt>
      <trkpt lat="45.10784" lon="5.12151">
        <ele>262.50201416016</ele>
        <time>2009-11-11T13:18:16Z</time>
      </trkpt>
      <trkpt lat="45.10809" lon="5.12175">
        <ele>262.32901000977</ele>
        <time>2009-11-11T13:18:21Z</time>
      </trkpt>
      <trkpt lat="45.10835" lon="5.12184">
        <ele>262.13900756836</ele>
        <time>2009-11-11T13:18:26Z</time>
      </trkpt>
      <trkpt lat="45.10861" lon="5.12183">
        <ele>263.54998779297</ele>
        <time>2009-11-11T13:18:32Z</time>
      </trkpt>
      <trkpt lat="45.10886" lon="5.12185">
        <ele>265.97698974609</ele>
        <time>2009-11-11T13:18:38Z</time>
      </trkpt>
      <trkpt lat="45.10899" lon="5.12185">
        <ele>266.85299682617</ele>
        <time>2009-11-11T13:18:41Z</time>
      </trkpt>
      <trkpt lat="45.10912" lon="5.12186">
        <ele>267.91598510742</ele>
        <time>2009-11-11T13:18:44Z</time>
      </trkpt>
      <trkpt lat="45.10916" lon="5.12186">
        <ele>268.15200805664</ele>
        <time>2009-11-11T13:18:45Z</time>
      </trkpt>
      <trkpt lat="45.10933" lon="5.12186">
        <ele>268.69100952148</ele>
        <time>2009-11-11T13:18:49Z</time>
      </trkpt>
      <trkpt lat="45.10957" lon="5.12189">
        <ele>267.52700805664</ele>
        <time>2009-11-11T13:18:54Z</time>
      </trkpt>
      <trkpt lat="45.10993" lon="5.12193">
        <ele>266.59298706055</ele>
        <time>2009-11-11T13:19:00Z</time>
      </trkpt>
      <trkpt lat="45.11005" lon="5.12194">
        <ele>266.32000732422</ele>
        <time>2009-11-11T13:19:02Z</time>
      </trkpt>
      <trkpt lat="45.11036" lon="5.12198">
        <ele>266.31698608398</ele>
        <time>2009-11-11T13:19:07Z</time>
      </trkpt>
      <trkpt lat="45.1106" lon="5.12195">
        <ele>265.93701171875</ele>
        <time>2009-11-11T13:19:12Z</time>
      </trkpt>
      <trkpt lat="45.11097" lon="5.12178">
        <ele>266.31698608398</ele>
        <time>2009-11-11T13:19:19Z</time>
      </trkpt>
      <trkpt lat="45.11109" lon="5.12172">
        <ele>265.64599609375</ele>
        <time>2009-11-11T13:19:21Z</time>
      </trkpt>
      <trkpt lat="45.11132" lon="5.12173">
        <ele>262.57699584961</ele>
        <time>2009-11-11T13:19:24Z</time>
      </trkpt>
      <trkpt lat="45.11147" lon="5.12193">
        <ele>259.58099365234</ele>
        <time>2009-11-11T13:19:26Z</time>
      </trkpt>
      <trkpt lat="45.11182" lon="5.12245">
        <ele>256.4700012207</ele>
        <time>2009-11-11T13:19:31Z</time>
      </trkpt>
      <trkpt lat="45.11201" lon="5.12253">
        <ele>256.97198486328</ele>
        <time>2009-11-11T13:19:34Z</time>
      </trkpt>
      <trkpt lat="45.11222" lon="5.12251">
        <ele>257.19100952148</ele>
        <time>2009-11-11T13:19:38Z</time>
      </trkpt>
      <trkpt lat="45.11228" lon="5.1226">
        <ele>257.02700805664</ele>
        <time>2009-11-11T13:19:40Z</time>
      </trkpt>
      <trkpt lat="45.11228" lon="5.12266">
        <ele>256.92599487305</ele>
        <time>2009-11-11T13:19:41Z</time>
      </trkpt>
      <trkpt lat="45.11224" lon="5.12286">
        <ele>256.68200683594</ele>
        <time>2009-11-11T13:19:44Z</time>
      </trkpt>
      <trkpt lat="45.11221" lon="5.1235">
        <ele>255.92100524902</ele>
        <time>2009-11-11T13:19:52Z</time>
      </trkpt>
      <trkpt lat="45.11219" lon="5.12403">
        <ele>255.71699523926</ele>
        <time>2009-11-11T13:19:59Z</time>
      </trkpt>
      <trkpt lat="45.11215" lon="5.12477">
        <ele>255.5359954834</ele>
        <time>2009-11-11T13:20:08Z</time>
      </trkpt>
      <trkpt lat="45.11214" lon="5.12485">
        <ele>255.5059967041</ele>
        <time>2009-11-11T13:20:09Z</time>
      </trkpt>
      <trkpt lat="45.11208" lon="5.12512">
        <ele>255.95100402832</ele>
        <time>2009-11-11T13:20:13Z</time>
      </trkpt>
      <trkpt lat="45.11202" lon="5.1254">
        <ele>255.49899291992</ele>
        <time>2009-11-11T13:20:18Z</time>
      </trkpt>
      <trkpt lat="45.11212" lon="5.12544">
        <ele>255.69900512695</ele>
        <time>2009-11-11T13:20:21Z</time>
      </trkpt>
      <trkpt lat="45.11238" lon="5.12538">
        <ele>257.01098632812</ele>
        <time>2009-11-11T13:20:28Z</time>
      </trkpt>
      <trkpt lat="45.11258" lon="5.12535">
        <ele>257.21798706055</ele>
        <time>2009-11-11T13:20:33Z</time>
      </trkpt>
      <trkpt lat="45.11282" lon="5.1253">
        <ele>259.34100341797</ele>
        <time>2009-11-11T13:20:39Z</time>
      </trkpt>
      <trkpt lat="45.11307" lon="5.1252">
        <ele>260.65899658203</ele>
        <time>2009-11-11T13:20:46Z</time>
      </trkpt>
      <trkpt lat="45.11328" lon="5.1251">
        <ele>262.07000732422</ele>
        <time>2009-11-11T13:20:52Z</time>
      </trkpt>
      <trkpt lat="45.11352" lon="5.12499">
        <ele>263.10101318359</ele>
        <time>2009-11-11T13:20:59Z</time>
      </trkpt>
      <trkpt lat="45.11374" lon="5.1249">
        <ele>263.63198852539</ele>
        <time>2009-11-11T13:21:05Z</time>
      </trkpt>
      <trkpt lat="45.11404" lon="5.12476">
        <ele>263.22198486328</ele>
        <time>2009-11-11T13:21:13Z</time>
      </trkpt>
      <trkpt lat="45.11438" lon="5.12462">
        <ele>262.02200317383</ele>
        <time>2009-11-11T13:21:21Z</time>
      </trkpt>
      <trkpt lat="45.11475" lon="5.12446">
        <ele>261.49700927734</ele>
        <time>2009-11-11T13:21:29Z</time>
      </trkpt>
      <trkpt lat="45.1149" lon="5.12441">
        <ele>261.48199462891</ele>
        <time>2009-11-11T13:21:32Z</time>
      </trkpt>
      <trkpt lat="45.11505" lon="5.12443">
        <ele>261.46200561523</ele>
        <time>2009-11-11T13:21:35Z</time>
      </trkpt>
      <trkpt lat="45.11525" lon="5.12462">
        <ele>261.42999267578</ele>
        <time>2009-11-11T13:21:40Z</time>
      </trkpt>
      <trkpt lat="45.11529" lon="5.12467">
        <ele>261.42401123047</ele>
        <time>2009-11-11T13:21:41Z</time>
      </trkpt>
      <trkpt lat="45.11562" lon="5.12517">
        <ele>262.61199951172</ele>
        <time>2009-11-11T13:21:51Z</time>
      </trkpt>
      <trkpt lat="45.11583" lon="5.12539">
        <ele>264.38101196289</ele>
        <time>2009-11-11T13:21:58Z</time>
      </trkpt>
      <trkpt lat="45.11597" lon="5.12539">
        <ele>265.89999389648</ele>
        <time>2009-11-11T13:22:02Z</time>
      </trkpt>
      <trkpt lat="45.11611" lon="5.12522">
        <ele>266.43301391602</ele>
        <time>2009-11-11T13:22:07Z</time>
      </trkpt>
      <trkpt lat="45.11626" lon="5.12501">
        <ele>267.82598876953</ele>
        <time>2009-11-11T13:22:13Z</time>
      </trkpt>
      <trkpt lat="45.11646" lon="5.12488">
        <ele>269.48400878906</ele>
        <time>2009-11-11T13:22:19Z</time>
      </trkpt>
      <trkpt lat="45.11677" lon="5.12472">
        <ele>271.88900756836</ele>
        <time>2009-11-11T13:22:28Z</time>
      </trkpt>
      <trkpt lat="45.11697" lon="5.12462">
        <ele>273.18301391602</ele>
        <time>2009-11-11T13:22:34Z</time>
      </trkpt>
      <trkpt lat="45.11715" lon="5.12452">
        <ele>274.71798706055</ele>
        <time>2009-11-11T13:22:40Z</time>
      </trkpt>
      <trkpt lat="45.11741" lon="5.1243">
        <ele>276.89898681641</ele>
        <time>2009-11-11T13:22:49Z</time>
      </trkpt>
      <trkpt lat="45.11761" lon="5.12409">
        <ele>277.80801391602</ele>
        <time>2009-11-11T13:22:56Z</time>
      </trkpt>
      <trkpt lat="45.11779" lon="5.12386">
        <ele>279.43399047852</ele>
        <time>2009-11-11T13:23:03Z</time>
      </trkpt>
      <trkpt lat="45.11793" lon="5.12353">
        <ele>280.76400756836</ele>
        <time>2009-11-11T13:23:11Z</time>
      </trkpt>
      <trkpt lat="45.11808" lon="5.12303">
        <ele>283.45901489258</ele>
        <time>2009-11-11T13:23:22Z</time>
      </trkpt>
      <trkpt lat="45.11817" lon="5.12267">
        <ele>284.73999023438</ele>
        <time>2009-11-11T13:23:30Z</time>
      </trkpt>
      <trkpt lat="45.11824" lon="5.12228">
        <ele>286.96798706055</ele>
        <time>2009-11-11T13:23:38Z</time>
      </trkpt>
      <trkpt lat="45.11826" lon="5.1219">
        <ele>288.43399047852</ele>
        <time>2009-11-11T13:23:46Z</time>
      </trkpt>
      <trkpt lat="45.11828" lon="5.12161">
        <ele>289.72100830078</ele>
        <time>2009-11-11T13:23:52Z</time>
      </trkpt>
      <trkpt lat="45.11837" lon="5.12137">
        <ele>290.75</ele>
        <time>2009-11-11T13:23:58Z</time>
      </trkpt>
      <trkpt lat="45.11852" lon="5.12126">
        <ele>290.96099853516</ele>
        <time>2009-11-11T13:24:03Z</time>
      </trkpt>
      <trkpt lat="45.11869" lon="5.12129">
        <ele>292.53298950195</ele>
        <time>2009-11-11T13:24:08Z</time>
      </trkpt>
      <trkpt lat="45.11889" lon="5.12143">
        <ele>293.60400390625</ele>
        <time>2009-11-11T13:24:14Z</time>
      </trkpt>
      <trkpt lat="45.11912" lon="5.12171">
        <ele>294.76300048828</ele>
        <time>2009-11-11T13:24:22Z</time>
      </trkpt>
      <trkpt lat="45.11941" lon="5.12211">
        <ele>295.10900878906</ele>
        <time>2009-11-11T13:24:31Z</time>
      </trkpt>
      <trkpt lat="45.11979" lon="5.12261">
        <ele>295.0299987793</ele>
        <time>2009-11-11T13:24:42Z</time>
      </trkpt>
      <trkpt lat="45.12004" lon="5.12293">
        <ele>295.60598754883</ele>
        <time>2009-11-11T13:24:49Z</time>
      </trkpt>
      <trkpt lat="45.1203" lon="5.12305">
        <ele>295.75399780273</ele>
        <time>2009-11-11T13:24:55Z</time>
      </trkpt>
      <trkpt lat="45.12035" lon="5.12304">
        <ele>295.85101318359</ele>
        <time>2009-11-11T13:24:56Z</time>
      </trkpt>
      <trkpt lat="45.12073" lon="5.12298">
        <ele>296.9289855957</ele>
        <time>2009-11-11T13:25:05Z</time>
      </trkpt>
      <trkpt lat="45.12094" lon="5.12296">
        <ele>298.19500732422</ele>
        <time>2009-11-11T13:25:11Z</time>
      </trkpt>
      <trkpt lat="45.12117" lon="5.12299">
        <ele>299.48199462891</ele>
        <time>2009-11-11T13:25:18Z</time>
      </trkpt>
      <trkpt lat="45.1214" lon="5.12312">
        <ele>301.36499023438</ele>
        <time>2009-11-11T13:25:25Z</time>
      </trkpt>
      <trkpt lat="45.12161" lon="5.12323">
        <ele>301.30200195312</ele>
        <time>2009-11-11T13:25:31Z</time>
      </trkpt>
      <trkpt lat="45.12185" lon="5.12335">
        <ele>301.00601196289</ele>
        <time>2009-11-11T13:25:37Z</time>
      </trkpt>
      <trkpt lat="45.12193" lon="5.12339">
        <ele>300.91400146484</ele>
        <time>2009-11-11T13:25:39Z</time>
      </trkpt>
      <trkpt lat="45.12235" lon="5.12361">
        <ele>301.09600830078</ele>
        <time>2009-11-11T13:25:49Z</time>
      </trkpt>
      <trkpt lat="45.12262" lon="5.12368">
        <ele>300.20098876953</ele>
        <time>2009-11-11T13:25:55Z</time>
      </trkpt>
      <trkpt lat="45.12298" lon="5.12374">
        <ele>298.45001220703</ele>
        <time>2009-11-11T13:26:01Z</time>
      </trkpt>
      <trkpt lat="45.12322" lon="5.12355">
        <ele>296.77301025391</ele>
        <time>2009-11-11T13:26:05Z</time>
      </trkpt>
      <trkpt lat="45.12326" lon="5.12346">
        <ele>296.77301025391</ele>
        <time>2009-11-11T13:26:06Z</time>
      </trkpt>
      <trkpt lat="45.12344" lon="5.12328">
        <ele>295.98001098633</ele>
        <time>2009-11-11T13:26:09Z</time>
      </trkpt>
      <trkpt lat="45.1235" lon="5.12327">
        <ele>295.98001098633</ele>
        <time>2009-11-11T13:26:10Z</time>
      </trkpt>
      <trkpt lat="45.12376" lon="5.12332">
        <ele>297.13299560547</ele>
        <time>2009-11-11T13:26:15Z</time>
      </trkpt>
      <trkpt lat="45.12388" lon="5.12335">
        <ele>297.92401123047</ele>
        <time>2009-11-11T13:26:18Z</time>
      </trkpt>
      <trkpt lat="45.1241" lon="5.12339">
        <ele>299.36401367188</ele>
        <time>2009-11-11T13:26:24Z</time>
      </trkpt>
      <trkpt lat="45.12424" lon="5.12337">
        <ele>301.04501342773</ele>
        <time>2009-11-11T13:26:28Z</time>
      </trkpt>
      <trkpt lat="45.12438" lon="5.12334">
        <ele>301.60699462891</ele>
        <time>2009-11-11T13:26:32Z</time>
      </trkpt>
      <trkpt lat="45.12452" lon="5.12329">
        <ele>303.71398925781</ele>
        <time>2009-11-11T13:26:36Z</time>
      </trkpt>
      <trkpt lat="45.12455" lon="5.12327">
        <ele>303.74899291992</ele>
        <time>2009-11-11T13:26:37Z</time>
      </trkpt>
      <trkpt lat="45.1247" lon="5.12322">
        <ele>305.03799438477</ele>
        <time>2009-11-11T13:26:41Z</time>
      </trkpt>
      <trkpt lat="45.12481" lon="5.12319">
        <ele>305.96798706055</ele>
        <time>2009-11-11T13:26:44Z</time>
      </trkpt>
      <trkpt lat="45.12502" lon="5.12313">
        <ele>308.03298950195</ele>
        <time>2009-11-11T13:26:50Z</time>
      </trkpt>
      <trkpt lat="45.12519" lon="5.12307">
        <ele>309.52600097656</ele>
        <time>2009-11-11T13:26:55Z</time>
      </trkpt>
      <trkpt lat="45.12543" lon="5.123">
        <ele>312.05499267578</ele>
        <time>2009-11-11T13:27:02Z</time>
      </trkpt>
      <trkpt lat="45.1256" lon="5.12294">
        <ele>313.98599243164</ele>
        <time>2009-11-11T13:27:07Z</time>
      </trkpt>
      <trkpt lat="45.1258" lon="5.12288">
        <ele>314.77499389648</ele>
        <time>2009-11-11T13:27:13Z</time>
      </trkpt>
      <trkpt lat="45.12608" lon="5.12282">
        <ele>316.78298950195</ele>
        <time>2009-11-11T13:27:21Z</time>
      </trkpt>
      <trkpt lat="45.12627" lon="5.12281">
        <ele>317.08999633789</ele>
        <time>2009-11-11T13:27:26Z</time>
      </trkpt>
      <trkpt lat="45.12654" lon="5.12276">
        <ele>318.72500610352</ele>
        <time>2009-11-11T13:27:34Z</time>
      </trkpt>
      <trkpt lat="45.12672" lon="5.12261">
        <ele>320.17098999023</ele>
        <time>2009-11-11T13:27:40Z</time>
      </trkpt>
      <trkpt lat="45.12693" lon="5.12232">
        <ele>321.70001220703</ele>
        <time>2009-11-11T13:27:48Z</time>
      </trkpt>
      <trkpt lat="45.12714" lon="5.12206">
        <ele>323.85198974609</ele>
        <time>2009-11-11T13:27:56Z</time>
      </trkpt>
      <trkpt lat="45.12717" lon="5.12203">
        <ele>324.0530090332</ele>
        <time>2009-11-11T13:27:57Z</time>
      </trkpt>
      <trkpt lat="45.12741" lon="5.12186">
        <ele>325.28399658203</ele>
        <time>2009-11-11T13:28:05Z</time>
      </trkpt>
      <trkpt lat="45.12766" lon="5.12176">
        <ele>326.40600585938</ele>
        <time>2009-11-11T13:28:13Z</time>
      </trkpt>
      <trkpt lat="45.12792" lon="5.12169">
        <ele>328.12701416016</ele>
        <time>2009-11-11T13:28:21Z</time>
      </trkpt>
      <trkpt lat="45.12819" lon="5.12156">
        <ele>331.09799194336</ele>
        <time>2009-11-11T13:28:30Z</time>
      </trkpt>
      <trkpt lat="45.12842" lon="5.12142">
        <ele>331.11898803711</ele>
        <time>2009-11-11T13:28:38Z</time>
      </trkpt>
      <trkpt lat="45.12872" lon="5.12125">
        <ele>331.08898925781</ele>
        <time>2009-11-11T13:28:49Z</time>
      </trkpt>
      <trkpt lat="45.12897" lon="5.1211">
        <ele>338.85101318359</ele>
        <time>2009-11-11T13:28:59Z</time>
      </trkpt>
      <trkpt lat="45.12922" lon="5.12101">
        <ele>341.8330078125</ele>
        <time>2009-11-11T13:29:07Z</time>
      </trkpt>
      <trkpt lat="45.12941" lon="5.12105">
        <ele>343.48300170898</ele>
        <time>2009-11-11T13:29:13Z</time>
      </trkpt>
      <trkpt lat="45.12955" lon="5.12117">
        <ele>345.19900512695</ele>
        <time>2009-11-11T13:29:18Z</time>
      </trkpt>
      <trkpt lat="45.12962" lon="5.12128">
        <ele>346.47299194336</ele>
        <time>2009-11-11T13:29:21Z</time>
      </trkpt>
      <trkpt lat="45.12975" lon="5.12142">
        <ele>348.34201049805</ele>
        <time>2009-11-11T13:29:26Z</time>
      </trkpt>
      <trkpt lat="45.12997" lon="5.12149">
        <ele>350.48400878906</ele>
        <time>2009-11-11T13:29:33Z</time>
      </trkpt>
      <trkpt lat="45.13028" lon="5.1215">
        <ele>353.47299194336</ele>
        <time>2009-11-11T13:29:39Z</time>
      </trkpt>
      <trkpt lat="45.13033" lon="5.12151">
        <ele>354.32901000977</ele>
        <time>2009-11-11T13:29:40Z</time>
      </trkpt>
      <trkpt lat="45.1305" lon="5.12148">
        <ele>356.22900390625</ele>
        <time>2009-11-11T13:29:43Z</time>
      </trkpt>
      <trkpt lat="45.1306" lon="5.1214">
        <ele>357.31100463867</ele>
        <time>2009-11-11T13:29:45Z</time>
      </trkpt>
      <trkpt lat="45.13084" lon="5.12113">
        <ele>357.90399169922</ele>
        <time>2009-11-11T13:29:52Z</time>
      </trkpt>
      <trkpt lat="45.13094" lon="5.12098">
        <ele>358.64599609375</ele>
        <time>2009-11-11T13:29:57Z</time>
      </trkpt>
      <trkpt lat="45.13103" lon="5.12084">
        <ele>358.56399536133</ele>
        <time>2009-11-11T13:30:03Z</time>
      </trkpt>
      <trkpt lat="45.13105" lon="5.12081">
        <ele>358.04501342773</ele>
        <time>2009-11-11T13:30:07Z</time>
      </trkpt>
      <trkpt lat="45.13101" lon="5.12076">
        <ele>357.58401489258</ele>
        <time>2009-11-11T13:30:41Z</time>
      </trkpt>
      <trkpt lat="45.13094" lon="5.12086">
        <ele>358.23498535156</ele>
        <time>2009-11-11T13:30:45Z</time>
      </trkpt>
      <trkpt lat="45.13078" lon="5.12113">
        <ele>358.01901245117</ele>
        <time>2009-11-11T13:30:49Z</time>
      </trkpt>
      <trkpt lat="45.13061" lon="5.12133">
        <ele>356.63800048828</ele>
        <time>2009-11-11T13:30:53Z</time>
      </trkpt>
      <trkpt lat="45.13055" lon="5.1214">
        <ele>356.25100708008</ele>
        <time>2009-11-11T13:30:57Z</time>
      </trkpt>
      <trkpt lat="45.13051" lon="5.12144">
        <ele>356.00399780273</ele>
        <time>2009-11-11T13:31:02Z</time>
      </trkpt>
      <trkpt lat="45.13038" lon="5.12148">
        <ele>354.58200073242</ele>
        <time>2009-11-11T13:31:20Z</time>
      </trkpt>
      <trkpt lat="45.13036" lon="5.12148">
        <ele>354.23599243164</ele>
        <time>2009-11-11T13:31:24Z</time>
      </trkpt>
      <trkpt lat="45.1303" lon="5.12151">
        <ele>353.71899414062</ele>
        <time>2009-11-11T13:32:24Z</time>
      </trkpt>
      <trkpt lat="45.13027" lon="5.1215">
        <ele>353.34600830078</ele>
        <time>2009-11-11T13:32:25Z</time>
      </trkpt>
      <trkpt lat="45.13009" lon="5.12149">
        <ele>351.66400146484</ele>
        <time>2009-11-11T13:32:29Z</time>
      </trkpt>
      <trkpt lat="45.13003" lon="5.12149">
        <ele>351.18399047852</ele>
        <time>2009-11-11T13:32:30Z</time>
      </trkpt>
      <trkpt lat="45.12992" lon="5.12149">
        <ele>349.55499267578</ele>
        <time>2009-11-11T13:32:32Z</time>
      </trkpt>
      <trkpt lat="45.12979" lon="5.12165">
        <ele>347.68399047852</ele>
        <time>2009-11-11T13:32:36Z</time>
      </trkpt>
      <trkpt lat="45.12978" lon="5.12173">
        <ele>347.08801269531</ele>
        <time>2009-11-11T13:32:37Z</time>
      </trkpt>
      <trkpt lat="45.12976" lon="5.1219">
        <ele>346.25900268555</ele>
        <time>2009-11-11T13:32:39Z</time>
      </trkpt>
      <trkpt lat="45.1297" lon="5.12251">
        <ele>344.67700195312</ele>
        <time>2009-11-11T13:32:45Z</time>
      </trkpt>
      <trkpt lat="45.12962" lon="5.12329">
        <ele>342.77398681641</ele>
        <time>2009-11-11T13:32:53Z</time>
      </trkpt>
      <trkpt lat="45.12967" lon="5.12374">
        <ele>341.29598999023</ele>
        <time>2009-11-11T13:32:58Z</time>
      </trkpt>
      <trkpt lat="45.1298" lon="5.12433">
        <ele>341.79400634766</ele>
        <time>2009-11-11T13:33:05Z</time>
      </trkpt>
      <trkpt lat="45.12981" lon="5.12441">
        <ele>341.71099853516</ele>
        <time>2009-11-11T13:33:06Z</time>
      </trkpt>
      <trkpt lat="45.12979" lon="5.12473">
        <ele>341.66900634766</ele>
        <time>2009-11-11T13:33:10Z</time>
      </trkpt>
      <trkpt lat="45.12972" lon="5.12485">
        <ele>342.47698974609</ele>
        <time>2009-11-11T13:33:12Z</time>
      </trkpt>
      <trkpt lat="45.12942" lon="5.12518">
        <ele>344.97399902344</ele>
        <time>2009-11-11T13:33:20Z</time>
      </trkpt>
      <trkpt lat="45.12929" lon="5.12532">
        <ele>346.78799438477</ele>
        <time>2009-11-11T13:33:24Z</time>
      </trkpt>
      <trkpt lat="45.1291" lon="5.1255">
        <ele>348.12799072266</ele>
        <time>2009-11-11T13:33:30Z</time>
      </trkpt>
      <trkpt lat="45.12899" lon="5.12572">
        <ele>349.18899536133</ele>
        <time>2009-11-11T13:33:35Z</time>
      </trkpt>
      <trkpt lat="45.12895" lon="5.12582">
        <ele>349.45401000977</ele>
        <time>2009-11-11T13:33:37Z</time>
      </trkpt>
      <trkpt lat="45.12893" lon="5.12616">
        <ele>349.47399902344</ele>
        <time>2009-11-11T13:33:43Z</time>
      </trkpt>
      <trkpt lat="45.12896" lon="5.12633">
        <ele>349.91500854492</ele>
        <time>2009-11-11T13:33:46Z</time>
      </trkpt>
      <trkpt lat="45.12904" lon="5.12653">
        <ele>350.73699951172</ele>
        <time>2009-11-11T13:33:50Z</time>
      </trkpt>
      <trkpt lat="45.12922" lon="5.12696">
        <ele>352.00100708008</ele>
        <time>2009-11-11T13:33:59Z</time>
      </trkpt>
      <trkpt lat="45.1293" lon="5.12722">
        <ele>352.2619934082</ele>
        <time>2009-11-11T13:34:04Z</time>
      </trkpt>
      <trkpt lat="45.12934" lon="5.12758">
        <ele>352.64898681641</ele>
        <time>2009-11-11T13:34:10Z</time>
      </trkpt>
      <trkpt lat="45.12925" lon="5.12785">
        <ele>352.54699707031</ele>
        <time>2009-11-11T13:34:15Z</time>
      </trkpt>
      <trkpt lat="45.12909" lon="5.12792">
        <ele>351.82901000977</ele>
        <time>2009-11-11T13:34:18Z</time>
      </trkpt>
      <trkpt lat="45.12897" lon="5.12795">
        <ele>350.8039855957</ele>
        <time>2009-11-11T13:34:20Z</time>
      </trkpt>
      <trkpt lat="45.12885" lon="5.12797">
        <ele>350.46798706055</ele>
        <time>2009-11-11T13:34:22Z</time>
      </trkpt>
      <trkpt lat="45.12854" lon="5.12812">
        <ele>349.21798706055</ele>
        <time>2009-11-11T13:34:27Z</time>
      </trkpt>
      <trkpt lat="45.12816" lon="5.12829">
        <ele>348.97601318359</ele>
        <time>2009-11-11T13:34:33Z</time>
      </trkpt>
      <trkpt lat="45.12782" lon="5.12845">
        <ele>348.71301269531</ele>
        <time>2009-11-11T13:34:39Z</time>
      </trkpt>
      <trkpt lat="45.12757" lon="5.12848">
        <ele>349.92498779297</ele>
        <time>2009-11-11T13:34:45Z</time>
      </trkpt>
      <trkpt lat="45.12742" lon="5.12839">
        <ele>350.51098632812</ele>
        <time>2009-11-11T13:34:49Z</time>
      </trkpt>
      <trkpt lat="45.12715" lon="5.12807">
        <ele>351.63198852539</ele>
        <time>2009-11-11T13:34:57Z</time>
      </trkpt>
      <trkpt lat="45.1268" lon="5.12773">
        <ele>350.23400878906</ele>
        <time>2009-11-11T13:35:06Z</time>
      </trkpt>
      <trkpt lat="45.12655" lon="5.12755">
        <ele>349.26599121094</ele>
        <time>2009-11-11T13:35:11Z</time>
      </trkpt>
      <trkpt lat="45.1261" lon="5.12728">
        <ele>348.6130065918</ele>
        <time>2009-11-11T13:35:19Z</time>
      </trkpt>
      <trkpt lat="45.12584" lon="5.12707">
        <ele>348.88400268555</ele>
        <time>2009-11-11T13:35:25Z</time>
      </trkpt>
      <trkpt lat="45.12566" lon="5.1269">
        <ele>350.28698730469</ele>
        <time>2009-11-11T13:35:30Z</time>
      </trkpt>
      <trkpt lat="45.12547" lon="5.12686">
        <ele>351.25601196289</ele>
        <time>2009-11-11T13:35:35Z</time>
      </trkpt>
      <trkpt lat="45.1253" lon="5.12702">
        <ele>353.04400634766</ele>
        <time>2009-11-11T13:35:40Z</time>
      </trkpt>
      <trkpt lat="45.12521" lon="5.12727">
        <ele>353.76901245117</ele>
        <time>2009-11-11T13:35:45Z</time>
      </trkpt>
      <trkpt lat="45.12516" lon="5.1278">
        <ele>352.91598510742</ele>
        <time>2009-11-11T13:35:53Z</time>
      </trkpt>
      <trkpt lat="45.12516" lon="5.12795">
        <ele>352.30999755859</ele>
        <time>2009-11-11T13:35:55Z</time>
      </trkpt>
      <trkpt lat="45.12523" lon="5.12834">
        <ele>351.63598632812</ele>
        <time>2009-11-11T13:36:00Z</time>
      </trkpt>
      <trkpt lat="45.12539" lon="5.12879">
        <ele>351.83401489258</ele>
        <time>2009-11-11T13:36:06Z</time>
      </trkpt>
      <trkpt lat="45.12555" lon="5.12913">
        <ele>351.47500610352</ele>
        <time>2009-11-11T13:36:11Z</time>
      </trkpt>
      <trkpt lat="45.12564" lon="5.12966">
        <ele>351.02499389648</ele>
        <time>2009-11-11T13:36:18Z</time>
      </trkpt>
      <trkpt lat="45.12566" lon="5.12982">
        <ele>350.90301513672</ele>
        <time>2009-11-11T13:36:20Z</time>
      </trkpt>
      <trkpt lat="45.12561" lon="5.1302">
        <ele>350.46301269531</ele>
        <time>2009-11-11T13:36:25Z</time>
      </trkpt>
      <trkpt lat="45.12554" lon="5.13033">
        <ele>350.24200439453</ele>
        <time>2009-11-11T13:36:27Z</time>
      </trkpt>
      <trkpt lat="45.12542" lon="5.13055">
        <ele>349.02200317383</ele>
        <time>2009-11-11T13:36:30Z</time>
      </trkpt>
      <trkpt lat="45.12522" lon="5.13101">
        <ele>346.87100219727</ele>
        <time>2009-11-11T13:36:35Z</time>
      </trkpt>
      <trkpt lat="45.12508" lon="5.13124">
        <ele>347.21899414062</ele>
        <time>2009-11-11T13:36:38Z</time>
      </trkpt>
      <trkpt lat="45.12502" lon="5.13127">
        <ele>347.43701171875</ele>
        <time>2009-11-11T13:36:39Z</time>
      </trkpt>
      <trkpt lat="45.12484" lon="5.13129">
        <ele>348.21701049805</ele>
        <time>2009-11-11T13:36:42Z</time>
      </trkpt>
      <trkpt lat="45.12452" lon="5.13125">
        <ele>348.67498779297</ele>
        <time>2009-11-11T13:36:48Z</time>
      </trkpt>
      <trkpt lat="45.12413" lon="5.13123">
        <ele>348.86700439453</ele>
        <time>2009-11-11T13:36:55Z</time>
      </trkpt>
      <trkpt lat="45.12391" lon="5.13116">
        <ele>349.10900878906</ele>
        <time>2009-11-11T13:36:59Z</time>
      </trkpt>
      <trkpt lat="45.12356" lon="5.13091">
        <ele>349.29998779297</ele>
        <time>2009-11-11T13:37:06Z</time>
      </trkpt>
      <trkpt lat="45.12322" lon="5.13056">
        <ele>348.6130065918</ele>
        <time>2009-11-11T13:37:13Z</time>
      </trkpt>
      <trkpt lat="45.12294" lon="5.13029">
        <ele>349.98098754883</ele>
        <time>2009-11-11T13:37:19Z</time>
      </trkpt>
      <trkpt lat="45.12284" lon="5.13022">
        <ele>351.0299987793</ele>
        <time>2009-11-11T13:37:21Z</time>
      </trkpt>
      <trkpt lat="45.12264" lon="5.1302">
        <ele>352.75698852539</ele>
        <time>2009-11-11T13:37:25Z</time>
      </trkpt>
      <trkpt lat="45.12252" lon="5.13032">
        <ele>354.20001220703</ele>
        <time>2009-11-11T13:37:28Z</time>
      </trkpt>
      <trkpt lat="45.1223" lon="5.13064">
        <ele>358.96499633789</ele>
        <time>2009-11-11T13:37:34Z</time>
      </trkpt>
      <trkpt lat="45.12227" lon="5.13069">
        <ele>360.23498535156</ele>
        <time>2009-11-11T13:37:35Z</time>
      </trkpt>
      <trkpt lat="45.12221" lon="5.13079">
        <ele>360.75601196289</ele>
        <time>2009-11-11T13:37:37Z</time>
      </trkpt>
      <trkpt lat="45.1221" lon="5.13108">
        <ele>364.48498535156</ele>
        <time>2009-11-11T13:37:42Z</time>
      </trkpt>
      <trkpt lat="45.12207" lon="5.13121">
        <ele>366.31600952148</ele>
        <time>2009-11-11T13:37:45Z</time>
      </trkpt>
      <trkpt lat="45.12204" lon="5.13138">
        <ele>366.40798950195</ele>
        <time>2009-11-11T13:37:50Z</time>
      </trkpt>
      <trkpt lat="45.12201" lon="5.1316">
        <ele>365.49398803711</ele>
        <time>2009-11-11T13:37:55Z</time>
      </trkpt>
      <trkpt lat="45.12196" lon="5.1319">
        <ele>364.78500366211</ele>
        <time>2009-11-11T13:38:03Z</time>
      </trkpt>
      <trkpt lat="45.12189" lon="5.13225">
        <ele>364.57800292969</ele>
        <time>2009-11-11T13:38:12Z</time>
      </trkpt>
      <trkpt lat="45.12182" lon="5.13254">
        <ele>364.25799560547</ele>
        <time>2009-11-11T13:38:19Z</time>
      </trkpt>
      <trkpt lat="45.12167" lon="5.13298">
        <ele>364.30099487305</ele>
        <time>2009-11-11T13:38:28Z</time>
      </trkpt>
      <trkpt lat="45.12157" lon="5.13322">
        <ele>364.75799560547</ele>
        <time>2009-11-11T13:38:33Z</time>
      </trkpt>
      <trkpt lat="45.1214" lon="5.13358">
        <ele>364.77899169922</ele>
        <time>2009-11-11T13:38:41Z</time>
      </trkpt>
      <trkpt lat="45.12118" lon="5.13384">
        <ele>364.76998901367</ele>
        <time>2009-11-11T13:38:48Z</time>
      </trkpt>
      <trkpt lat="45.12092" lon="5.13406">
        <ele>364.75299072266</ele>
        <time>2009-11-11T13:38:56Z</time>
      </trkpt>
      <trkpt lat="45.12066" lon="5.13419">
        <ele>364.19799804688</ele>
        <time>2009-11-11T13:39:03Z</time>
      </trkpt>
      <trkpt lat="45.12043" lon="5.13416">
        <ele>362.96701049805</ele>
        <time>2009-11-11T13:39:09Z</time>
      </trkpt>
      <trkpt lat="45.1203" lon="5.13413">
        <ele>361.6669921875</ele>
        <time>2009-11-11T13:39:12Z</time>
      </trkpt>
      <trkpt lat="45.12005" lon="5.13403">
        <ele>359.79699707031</ele>
        <time>2009-11-11T13:39:18Z</time>
      </trkpt>
      <trkpt lat="45.11992" lon="5.13397">
        <ele>359.14599609375</ele>
        <time>2009-11-11T13:39:25Z</time>
      </trkpt>
      <trkpt lat="45.11991" lon="5.13399">
        <ele>359.01599121094</ele>
        <time>2009-11-11T13:39:29Z</time>
      </trkpt>
      <trkpt lat="45.11994" lon="5.13399">
        <ele>359.04699707031</ele>
        <time>2009-11-11T13:39:33Z</time>
      </trkpt>
      <trkpt lat="45.12004" lon="5.13403">
        <ele>359.66101074219</ele>
        <time>2009-11-11T13:39:43Z</time>
      </trkpt>
      <trkpt lat="45.12027" lon="5.13413">
        <ele>360.99899291992</ele>
        <time>2009-11-11T13:39:51Z</time>
      </trkpt>
      <trkpt lat="45.12055" lon="5.13419">
        <ele>362.98999023438</ele>
        <time>2009-11-11T13:40:00Z</time>
      </trkpt>
      <trkpt lat="45.12058" lon="5.1342">
        <ele>363.16000366211</ele>
        <time>2009-11-11T13:40:01Z</time>
      </trkpt>
      <trkpt lat="45.12062" lon="5.13429">
        <ele>362.81600952148</ele>
        <time>2009-11-11T13:40:05Z</time>
      </trkpt>
      <trkpt lat="45.12072" lon="5.13443">
        <ele>360.70001220703</ele>
        <time>2009-11-11T13:40:11Z</time>
      </trkpt>
      <trkpt lat="45.12081" lon="5.1346">
        <ele>358.27499389648</ele>
        <time>2009-11-11T13:40:14Z</time>
      </trkpt>
      <trkpt lat="45.12103" lon="5.13501">
        <ele>353.56500244141</ele>
        <time>2009-11-11T13:40:20Z</time>
      </trkpt>
      <trkpt lat="45.1212" lon="5.13533">
        <ele>349.51000976562</ele>
        <time>2009-11-11T13:40:24Z</time>
      </trkpt>
      <trkpt lat="45.12122" lon="5.13539">
        <ele>348.21398925781</ele>
        <time>2009-11-11T13:40:25Z</time>
      </trkpt>
      <trkpt lat="45.12125" lon="5.1356">
        <ele>346.86999511719</ele>
        <time>2009-11-11T13:40:28Z</time>
      </trkpt>
      <trkpt lat="45.12124" lon="5.1357">
        <ele>345.49700927734</ele>
        <time>2009-11-11T13:40:29Z</time>
      </trkpt>
      <trkpt lat="45.12128" lon="5.13617">
        <ele>342.23098754883</ele>
        <time>2009-11-11T13:40:33Z</time>
      </trkpt>
      <trkpt lat="45.12142" lon="5.13675">
        <ele>340.37600708008</ele>
        <time>2009-11-11T13:40:38Z</time>
      </trkpt>
      <trkpt lat="45.12157" lon="5.13718">
        <ele>338.98498535156</ele>
        <time>2009-11-11T13:40:42Z</time>
      </trkpt>
      <trkpt lat="45.12186" lon="5.13768">
        <ele>339.19000244141</ele>
        <time>2009-11-11T13:40:48Z</time>
      </trkpt>
      <trkpt lat="45.12211" lon="5.13808">
        <ele>339.34698486328</ele>
        <time>2009-11-11T13:40:54Z</time>
      </trkpt>
      <trkpt lat="45.12237" lon="5.13851">
        <ele>340.20700073242</ele>
        <time>2009-11-11T13:41:01Z</time>
      </trkpt>
      <trkpt lat="45.12244" lon="5.13865">
        <ele>340.33700561523</ele>
        <time>2009-11-11T13:41:04Z</time>
      </trkpt>
      <trkpt lat="45.12233" lon="5.13881">
        <ele>337.65701293945</ele>
        <time>2009-11-11T13:41:08Z</time>
      </trkpt>
      <trkpt lat="45.12215" lon="5.13902">
        <ele>333.63000488281</ele>
        <time>2009-11-11T13:41:12Z</time>
      </trkpt>
      <trkpt lat="45.12185" lon="5.13937">
        <ele>328.76400756836</ele>
        <time>2009-11-11T13:41:16Z</time>
      </trkpt>
      <trkpt lat="45.12157" lon="5.13971">
        <ele>323.01998901367</ele>
        <time>2009-11-11T13:41:20Z</time>
      </trkpt>
      <trkpt lat="45.1214" lon="5.13992">
        <ele>318.33599853516</ele>
        <time>2009-11-11T13:41:23Z</time>
      </trkpt>
      <trkpt lat="45.12119" lon="5.14">
        <ele>315.49099731445</ele>
        <time>2009-11-11T13:41:26Z</time>
      </trkpt>
      <trkpt lat="45.12103" lon="5.13995">
        <ele>313.83401489258</ele>
        <time>2009-11-11T13:41:28Z</time>
      </trkpt>
      <trkpt lat="45.12088" lon="5.13986">
        <ele>313.14700317383</ele>
        <time>2009-11-11T13:41:30Z</time>
      </trkpt>
      <trkpt lat="45.12059" lon="5.13969">
        <ele>310.58801269531</ele>
        <time>2009-11-11T13:41:34Z</time>
      </trkpt>
      <trkpt lat="45.12039" lon="5.13959">
        <ele>309.78298950195</ele>
        <time>2009-11-11T13:41:37Z</time>
      </trkpt>
      <trkpt lat="45.12017" lon="5.13964">
        <ele>309.35299682617</ele>
        <time>2009-11-11T13:41:41Z</time>
      </trkpt>
      <trkpt lat="45.11983" lon="5.13999">
        <ele>308.10699462891</ele>
        <time>2009-11-11T13:41:49Z</time>
      </trkpt>
      <trkpt lat="45.11952" lon="5.14031">
        <ele>306.16299438477</ele>
        <time>2009-11-11T13:41:55Z</time>
      </trkpt>
      <trkpt lat="45.11914" lon="5.14073">
        <ele>303.39401245117</ele>
        <time>2009-11-11T13:42:01Z</time>
      </trkpt>
      <trkpt lat="45.11906" lon="5.14081">
        <ele>303.34399414062</ele>
        <time>2009-11-11T13:42:02Z</time>
      </trkpt>
      <trkpt lat="45.11892" lon="5.14097">
        <ele>302.44400024414</ele>
        <time>2009-11-11T13:42:04Z</time>
      </trkpt>
      <trkpt lat="45.1186" lon="5.14157">
        <ele>300.27398681641</ele>
        <time>2009-11-11T13:42:10Z</time>
      </trkpt>
      <trkpt lat="45.11837" lon="5.14218">
        <ele>300.2380065918</ele>
        <time>2009-11-11T13:42:16Z</time>
      </trkpt>
      <trkpt lat="45.11823" lon="5.1427">
        <ele>300.82501220703</ele>
        <time>2009-11-11T13:42:22Z</time>
      </trkpt>
      <trkpt lat="45.11803" lon="5.1431">
        <ele>303.11199951172</ele>
        <time>2009-11-11T13:42:28Z</time>
      </trkpt>
      <trkpt lat="45.11782" lon="5.14336">
        <ele>303.32901000977</ele>
        <time>2009-11-11T13:42:33Z</time>
      </trkpt>
      <trkpt lat="45.11761" lon="5.14354">
        <ele>302.32598876953</ele>
        <time>2009-11-11T13:42:37Z</time>
      </trkpt>
      <trkpt lat="45.1172" lon="5.14382">
        <ele>301.46499633789</ele>
        <time>2009-11-11T13:42:44Z</time>
      </trkpt>
      <trkpt lat="45.11678" lon="5.14399">
        <ele>300.77700805664</ele>
        <time>2009-11-11T13:42:51Z</time>
      </trkpt>
      <trkpt lat="45.11646" lon="5.14419">
        <ele>297.97198486328</ele>
        <time>2009-11-11T13:42:56Z</time>
      </trkpt>
      <trkpt lat="45.1163" lon="5.1443">
        <ele>296.90798950195</ele>
        <time>2009-11-11T13:42:58Z</time>
      </trkpt>
      <trkpt lat="45.11605" lon="5.14448">
        <ele>294.53298950195</ele>
        <time>2009-11-11T13:43:01Z</time>
      </trkpt>
      <trkpt lat="45.11578" lon="5.14489">
        <ele>289.60800170898</ele>
        <time>2009-11-11T13:43:05Z</time>
      </trkpt>
      <trkpt lat="45.1157" lon="5.1451">
        <ele>287.7919921875</ele>
        <time>2009-11-11T13:43:07Z</time>
      </trkpt>
      <trkpt lat="45.11547" lon="5.14538">
        <ele>285.0719909668</ele>
        <time>2009-11-11T13:43:11Z</time>
      </trkpt>
      <trkpt lat="45.11539" lon="5.14541">
        <ele>285.25399780273</ele>
        <time>2009-11-11T13:43:12Z</time>
      </trkpt>
      <trkpt lat="45.11514" lon="5.14551">
        <ele>283.37399291992</ele>
        <time>2009-11-11T13:43:15Z</time>
      </trkpt>
      <trkpt lat="45.11466" lon="5.14578">
        <ele>281.52899169922</ele>
        <time>2009-11-11T13:43:21Z</time>
      </trkpt>
      <trkpt lat="45.11413" lon="5.14583">
        <ele>278.37899780273</ele>
        <time>2009-11-11T13:43:28Z</time>
      </trkpt>
      <trkpt lat="45.11377" lon="5.14594">
        <ele>274.17199707031</ele>
        <time>2009-11-11T13:43:33Z</time>
      </trkpt>
      <trkpt lat="45.11345" lon="5.14611">
        <ele>270.74499511719</ele>
        <time>2009-11-11T13:43:37Z</time>
      </trkpt>
      <trkpt lat="45.11323" lon="5.14623">
        <ele>269.43099975586</ele>
        <time>2009-11-11T13:43:40Z</time>
      </trkpt>
      <trkpt lat="45.1129" lon="5.14641">
        <ele>267.28298950195</ele>
        <time>2009-11-11T13:43:45Z</time>
      </trkpt>
      <trkpt lat="45.11258" lon="5.14639">
        <ele>266.24398803711</ele>
        <time>2009-11-11T13:43:50Z</time>
      </trkpt>
      <trkpt lat="45.11253" lon="5.14636">
        <ele>265.74099731445</ele>
        <time>2009-11-11T13:43:51Z</time>
      </trkpt>
      <trkpt lat="45.11232" lon="5.14624">
        <ele>264.86199951172</ele>
        <time>2009-11-11T13:43:55Z</time>
      </trkpt>
      <trkpt lat="45.11216" lon="5.14614">
        <ele>264.65798950195</ele>
        <time>2009-11-11T13:43:58Z</time>
      </trkpt>
      <trkpt lat="45.112" lon="5.14607">
        <ele>264.01901245117</ele>
        <time>2009-11-11T13:44:01Z</time>
      </trkpt>
      <trkpt lat="45.11171" lon="5.146">
        <ele>262.78500366211</ele>
        <time>2009-11-11T13:44:07Z</time>
      </trkpt>
      <trkpt lat="45.11166" lon="5.146">
        <ele>262.51501464844</ele>
        <time>2009-11-11T13:44:08Z</time>
      </trkpt>
      <trkpt lat="45.11127" lon="5.14589">
        <ele>261.83801269531</ele>
        <time>2009-11-11T13:44:16Z</time>
      </trkpt>
      <trkpt lat="45.11087" lon="5.14583">
        <ele>259.68600463867</ele>
        <time>2009-11-11T13:44:25Z</time>
      </trkpt>
      <trkpt lat="45.11082" lon="5.14582">
        <ele>259.52801513672</ele>
        <time>2009-11-11T13:44:26Z</time>
      </trkpt>
      <trkpt lat="45.11071" lon="5.1458">
        <ele>258.72900390625</ele>
        <time>2009-11-11T13:44:28Z</time>
      </trkpt>
      <trkpt lat="45.11053" lon="5.14566">
        <ele>256.78698730469</ele>
        <time>2009-11-11T13:44:32Z</time>
      </trkpt>
      <trkpt lat="45.11032" lon="5.1454">
        <ele>252.43600463867</ele>
        <time>2009-11-11T13:44:36Z</time>
      </trkpt>
      <trkpt lat="45.11027" lon="5.14514">
        <ele>248.99499511719</ele>
        <time>2009-11-11T13:44:40Z</time>
      </trkpt>
      <trkpt lat="45.11042" lon="5.1446">
        <ele>243.18299865723</ele>
        <time>2009-11-11T13:44:45Z</time>
      </trkpt>
      <trkpt lat="45.11037" lon="5.14435">
        <ele>240.91999816894</ele>
        <time>2009-11-11T13:44:48Z</time>
      </trkpt>
      <trkpt lat="45.11023" lon="5.14423">
        <ele>239.68099975586</ele>
        <time>2009-11-11T13:44:50Z</time>
      </trkpt>
      <trkpt lat="45.10984" lon="5.14395">
        <ele>237.60899353027</ele>
        <time>2009-11-11T13:44:55Z</time>
      </trkpt>
      <trkpt lat="45.10951" lon="5.14393">
        <ele>237.31399536133</ele>
        <time>2009-11-11T13:44:59Z</time>
      </trkpt>
      <trkpt lat="45.10929" lon="5.14397">
        <ele>237.11999511719</ele>
        <time>2009-11-11T13:45:02Z</time>
      </trkpt>
      <trkpt lat="45.10885" lon="5.14396">
        <ele>236.59399414062</ele>
        <time>2009-11-11T13:45:09Z</time>
      </trkpt>
      <trkpt lat="45.10873" lon="5.14414">
        <ele>235.0890045166</ele>
        <time>2009-11-11T13:45:13Z</time>
      </trkpt>
      <trkpt lat="45.10878" lon="5.14435">
        <ele>234.73699951172</ele>
        <time>2009-11-11T13:45:16Z</time>
      </trkpt>
      <trkpt lat="45.10881" lon="5.14442">
        <ele>234.65899658203</ele>
        <time>2009-11-11T13:45:17Z</time>
      </trkpt>
      <trkpt lat="45.10894" lon="5.14474">
        <ele>234.03399658203</ele>
        <time>2009-11-11T13:45:23Z</time>
      </trkpt>
      <trkpt lat="45.10894" lon="5.14489">
        <ele>233.32000732422</ele>
        <time>2009-11-11T13:45:28Z</time>
      </trkpt>
      <trkpt lat="45.10894" lon="5.1449">
        <ele>233.17700195312</ele>
        <time>2009-11-11T13:45:29Z</time>
      </trkpt>
      <trkpt lat="45.10893" lon="5.14492">
        <ele>233.13999938965</ele>
        <time>2009-11-11T13:45:31Z</time>
      </trkpt>
      <trkpt lat="45.10895" lon="5.14499">
        <ele>233.1369934082</ele>
        <time>2009-11-11T13:45:36Z</time>
      </trkpt>
      <trkpt lat="45.10899" lon="5.14499">
        <ele>233.41700744629</ele>
        <time>2009-11-11T13:45:39Z</time>
      </trkpt>
      <trkpt lat="45.10901" lon="5.14494">
        <ele>233.41200256348</ele>
        <time>2009-11-11T13:45:44Z</time>
      </trkpt>
      <trkpt lat="45.10899" lon="5.14494">
        <ele>233.40100097656</ele>
        <time>2009-11-11T13:45:48Z</time>
      </trkpt>
      <trkpt lat="45.10897" lon="5.14497">
        <ele>233.16900634766</ele>
        <time>2009-11-11T13:46:20Z</time>
      </trkpt>
      <trkpt lat="45.10899" lon="5.14501">
        <ele>233.35699462891</ele>
        <time>2009-11-11T13:46:23Z</time>
      </trkpt>
      <trkpt lat="45.10907" lon="5.1451">
        <ele>233.42300415039</ele>
        <time>2009-11-11T13:46:28Z</time>
      </trkpt>
      <trkpt lat="45.10926" lon="5.14533">
        <ele>234.35000610352</ele>
        <time>2009-11-11T13:46:36Z</time>
      </trkpt>
      <trkpt lat="45.10931" lon="5.14539">
        <ele>234.47500610352</ele>
        <time>2009-11-11T13:46:38Z</time>
      </trkpt>
      <trkpt lat="45.10963" lon="5.14576">
        <ele>236.09100341797</ele>
        <time>2009-11-11T13:46:48Z</time>
      </trkpt>
      <trkpt lat="45.10979" lon="5.14593">
        <ele>237.25900268555</ele>
        <time>2009-11-11T13:46:53Z</time>
      </trkpt>
      <trkpt lat="45.10998" lon="5.14608">
        <ele>237.56799316406</ele>
        <time>2009-11-11T13:46:59Z</time>
      </trkpt>
      <trkpt lat="45.11011" lon="5.14616">
        <ele>237.56799316406</ele>
        <time>2009-11-11T13:47:03Z</time>
      </trkpt>
      <trkpt lat="45.1103" lon="5.14626">
        <ele>240.13000488281</ele>
        <time>2009-11-11T13:47:09Z</time>
      </trkpt>
      <trkpt lat="45.1105" lon="5.14644">
        <ele>240.30299377441</ele>
        <time>2009-11-11T13:47:14Z</time>
      </trkpt>
      <trkpt lat="45.11084" lon="5.14678">
        <ele>238.79400634766</ele>
        <time>2009-11-11T13:47:22Z</time>
      </trkpt>
      <trkpt lat="45.11109" lon="5.14711">
        <ele>238.11700439453</ele>
        <time>2009-11-11T13:47:28Z</time>
      </trkpt>
      <trkpt lat="45.11132" lon="5.14746">
        <ele>237.79299926758</ele>
        <time>2009-11-11T13:47:34Z</time>
      </trkpt>
      <trkpt lat="45.11161" lon="5.1479">
        <ele>237.44500732422</ele>
        <time>2009-11-11T13:47:41Z</time>
      </trkpt>
      <trkpt lat="45.11179" lon="5.14819">
        <ele>236.16999816894</ele>
        <time>2009-11-11T13:47:46Z</time>
      </trkpt>
      <trkpt lat="45.11191" lon="5.14839">
        <ele>235.57499694824</ele>
        <time>2009-11-11T13:47:50Z</time>
      </trkpt>
      <trkpt lat="45.11194" lon="5.14843">
        <ele>235.48399353027</ele>
        <time>2009-11-11T13:47:51Z</time>
      </trkpt>
      <trkpt lat="45.11201" lon="5.14854">
        <ele>235.43600463867</ele>
        <time>2009-11-11T13:47:55Z</time>
      </trkpt>
      <trkpt lat="45.11208" lon="5.14866">
        <ele>235.43600463867</ele>
        <time>2009-11-11T13:47:59Z</time>
      </trkpt>
      <trkpt lat="45.1123" lon="5.149">
        <ele>235.76600646973</ele>
        <time>2009-11-11T13:48:06Z</time>
      </trkpt>
      <trkpt lat="45.1124" lon="5.14914">
        <ele>235.75100708008</ele>
        <time>2009-11-11T13:48:09Z</time>
      </trkpt>
      <trkpt lat="45.11272" lon="5.14963">
        <ele>234.73100280762</ele>
        <time>2009-11-11T13:48:18Z</time>
      </trkpt>
      <trkpt lat="45.11308" lon="5.1501">
        <ele>234.70399475098</ele>
        <time>2009-11-11T13:48:27Z</time>
      </trkpt>
      <trkpt lat="45.11353" lon="5.15059">
        <ele>235.88200378418</ele>
        <time>2009-11-11T13:48:38Z</time>
      </trkpt>
      <trkpt lat="45.11393" lon="5.15099">
        <ele>236.57899475098</ele>
        <time>2009-11-11T13:48:47Z</time>
      </trkpt>
      <trkpt lat="45.11445" lon="5.15152">
        <ele>237.34199523926</ele>
        <time>2009-11-11T13:48:59Z</time>
      </trkpt>
      <trkpt lat="45.11489" lon="5.15197">
        <ele>238.6309967041</ele>
        <time>2009-11-11T13:49:09Z</time>
      </trkpt>
      <trkpt lat="45.11547" lon="5.15255">
        <ele>239.6309967041</ele>
        <time>2009-11-11T13:49:22Z</time>
      </trkpt>
      <trkpt lat="45.116" lon="5.15308">
        <ele>241.33599853516</ele>
        <time>2009-11-11T13:49:34Z</time>
      </trkpt>
      <trkpt lat="45.11635" lon="5.15345">
        <ele>241.62899780273</ele>
        <time>2009-11-11T13:49:42Z</time>
      </trkpt>
      <trkpt lat="45.11683" lon="5.15397">
        <ele>243.05200195312</ele>
        <time>2009-11-11T13:49:53Z</time>
      </trkpt>
      <trkpt lat="45.11705" lon="5.15437">
        <ele>243.57299804688</ele>
        <time>2009-11-11T13:50:00Z</time>
      </trkpt>
      <trkpt lat="45.11728" lon="5.15489">
        <ele>243.91000366211</ele>
        <time>2009-11-11T13:50:08Z</time>
      </trkpt>
      <trkpt lat="45.11748" lon="5.15543">
        <ele>244.43400573731</ele>
        <time>2009-11-11T13:50:16Z</time>
      </trkpt>
      <trkpt lat="45.11769" lon="5.15596">
        <ele>244.89900207519</ele>
        <time>2009-11-11T13:50:24Z</time>
      </trkpt>
      <trkpt lat="45.11802" lon="5.15677">
        <ele>246.28300476074</ele>
        <time>2009-11-11T13:50:36Z</time>
      </trkpt>
      <trkpt lat="45.11831" lon="5.15751">
        <ele>246.85200500488</ele>
        <time>2009-11-11T13:50:47Z</time>
      </trkpt>
      <trkpt lat="45.11863" lon="5.15834">
        <ele>248.12800598144</ele>
        <time>2009-11-11T13:50:59Z</time>
      </trkpt>
      <trkpt lat="45.119" lon="5.15927">
        <ele>249.39399719238</ele>
        <time>2009-11-11T13:51:12Z</time>
      </trkpt>
      <trkpt lat="45.11932" lon="5.16006">
        <ele>250.22700500488</ele>
        <time>2009-11-11T13:51:23Z</time>
      </trkpt>
      <trkpt lat="45.11966" lon="5.1609">
        <ele>251.19400024414</ele>
        <time>2009-11-11T13:51:35Z</time>
      </trkpt>
      <trkpt lat="45.12002" lon="5.16181">
        <ele>252.72300720215</ele>
        <time>2009-11-11T13:51:48Z</time>
      </trkpt>
      <trkpt lat="45.12034" lon="5.16261">
        <ele>254.98100280762</ele>
        <time>2009-11-11T13:52:00Z</time>
      </trkpt>
      <trkpt lat="45.12059" lon="5.16326">
        <ele>256.52499389648</ele>
        <time>2009-11-11T13:52:10Z</time>
      </trkpt>
      <trkpt lat="45.12082" lon="5.16374">
        <ele>257.37100219727</ele>
        <time>2009-11-11T13:52:18Z</time>
      </trkpt>
      <trkpt lat="45.12112" lon="5.16414">
        <ele>258.54098510742</ele>
        <time>2009-11-11T13:52:26Z</time>
      </trkpt>
      <trkpt lat="45.1216" lon="5.16474">
        <ele>260.61599731445</ele>
        <time>2009-11-11T13:52:39Z</time>
      </trkpt>
      <trkpt lat="45.122" lon="5.16522">
        <ele>262.72399902344</ele>
        <time>2009-11-11T13:52:50Z</time>
      </trkpt>
      <trkpt lat="45.12233" lon="5.16557">
        <ele>264.51300048828</ele>
        <time>2009-11-11T13:52:59Z</time>
      </trkpt>
      <trkpt lat="45.12266" lon="5.16592">
        <ele>267.21099853516</ele>
        <time>2009-11-11T13:53:09Z</time>
      </trkpt>
      <trkpt lat="45.12297" lon="5.16619">
        <ele>269.4049987793</ele>
        <time>2009-11-11T13:53:18Z</time>
      </trkpt>
      <trkpt lat="45.12333" lon="5.16643">
        <ele>271.68798828125</ele>
        <time>2009-11-11T13:53:28Z</time>
      </trkpt>
      <trkpt lat="45.12377" lon="5.16665">
        <ele>274.39599609375</ele>
        <time>2009-11-11T13:53:40Z</time>
      </trkpt>
      <trkpt lat="45.12413" lon="5.16685">
        <ele>276.41598510742</ele>
        <time>2009-11-11T13:53:50Z</time>
      </trkpt>
      <trkpt lat="45.12454" lon="5.16706">
        <ele>278.85501098633</ele>
        <time>2009-11-11T13:54:01Z</time>
      </trkpt>
      <trkpt lat="45.12493" lon="5.16719">
        <ele>280.81500244141</ele>
        <time>2009-11-11T13:54:11Z</time>
      </trkpt>
      <trkpt lat="45.12526" lon="5.1673">
        <ele>282.86700439453</ele>
        <time>2009-11-11T13:54:20Z</time>
      </trkpt>
      <trkpt lat="45.12561" lon="5.16741">
        <ele>284.85699462891</ele>
        <time>2009-11-11T13:54:29Z</time>
      </trkpt>
      <trkpt lat="45.12589" lon="5.16738">
        <ele>286.54400634766</ele>
        <time>2009-11-11T13:54:36Z</time>
      </trkpt>
      <trkpt lat="45.12597" lon="5.16734">
        <ele>287.0299987793</ele>
        <time>2009-11-11T13:54:38Z</time>
      </trkpt>
      <trkpt lat="45.12608" lon="5.16726">
        <ele>287.85699462891</ele>
        <time>2009-11-11T13:54:41Z</time>
      </trkpt>
      <trkpt lat="45.12629" lon="5.16697">
        <ele>289.41000366211</ele>
        <time>2009-11-11T13:54:48Z</time>
      </trkpt>
      <trkpt lat="45.1265" lon="5.16661">
        <ele>291.6369934082</ele>
        <time>2009-11-11T13:54:56Z</time>
      </trkpt>
      <trkpt lat="45.12656" lon="5.16653">
        <ele>292.04598999023</ele>
        <time>2009-11-11T13:54:58Z</time>
      </trkpt>
      <trkpt lat="45.12672" lon="5.16651">
        <ele>293.18798828125</ele>
        <time>2009-11-11T13:55:02Z</time>
      </trkpt>
      <trkpt lat="45.12684" lon="5.16669">
        <ele>294.20999145508</ele>
        <time>2009-11-11T13:55:06Z</time>
      </trkpt>
      <trkpt lat="45.12688" lon="5.1668">
        <ele>294.72100830078</ele>
        <time>2009-11-11T13:55:08Z</time>
      </trkpt>
      <trkpt lat="45.12691" lon="5.16692">
        <ele>295.20999145508</ele>
        <time>2009-11-11T13:55:10Z</time>
      </trkpt>
      <trkpt lat="45.12694" lon="5.16711">
        <ele>295.6789855957</ele>
        <time>2009-11-11T13:55:13Z</time>
      </trkpt>
      <trkpt lat="45.12703" lon="5.16732">
        <ele>296.60699462891</ele>
        <time>2009-11-11T13:55:17Z</time>
      </trkpt>
      <trkpt lat="45.12715" lon="5.16731">
        <ele>297.45901489258</ele>
        <time>2009-11-11T13:55:20Z</time>
      </trkpt>
      <trkpt lat="45.12727" lon="5.16722">
        <ele>298.54598999023</ele>
        <time>2009-11-11T13:55:23Z</time>
      </trkpt>
      <trkpt lat="45.12741" lon="5.1671">
        <ele>299.1669921875</ele>
        <time>2009-11-11T13:55:27Z</time>
      </trkpt>
      <trkpt lat="45.12757" lon="5.16717">
        <ele>300.12799072266</ele>
        <time>2009-11-11T13:55:31Z</time>
      </trkpt>
      <trkpt lat="45.12761" lon="5.16729">
        <ele>300.86700439453</ele>
        <time>2009-11-11T13:55:33Z</time>
      </trkpt>
      <trkpt lat="45.12761" lon="5.16735">
        <ele>301.11401367188</ele>
        <time>2009-11-11T13:55:34Z</time>
      </trkpt>
      <trkpt lat="45.12756" lon="5.16768">
        <ele>302.33099365234</ele>
        <time>2009-11-11T13:55:39Z</time>
      </trkpt>
      <trkpt lat="45.12742" lon="5.16795">
        <ele>303.25601196289</ele>
        <time>2009-11-11T13:55:44Z</time>
      </trkpt>
      <trkpt lat="45.12713" lon="5.16827">
        <ele>305.39801025391</ele>
        <time>2009-11-11T13:55:52Z</time>
      </trkpt>
      <trkpt lat="45.12684" lon="5.16843">
        <ele>306.79699707031</ele>
        <time>2009-11-11T13:55:59Z</time>
      </trkpt>
      <trkpt lat="45.12652" lon="5.16853">
        <ele>308.5950012207</ele>
        <time>2009-11-11T13:56:06Z</time>
      </trkpt>
      <trkpt lat="45.1264" lon="5.1687">
        <ele>309.33401489258</ele>
        <time>2009-11-11T13:56:10Z</time>
      </trkpt>
      <trkpt lat="45.12645" lon="5.16881">
        <ele>310.10198974609</ele>
        <time>2009-11-11T13:56:12Z</time>
      </trkpt>
      <trkpt lat="45.12653" lon="5.16886">
        <ele>311.01800537109</ele>
        <time>2009-11-11T13:56:14Z</time>
      </trkpt>
      <trkpt lat="45.12658" lon="5.16887">
        <ele>311.30099487305</ele>
        <time>2009-11-11T13:56:15Z</time>
      </trkpt>
      <trkpt lat="45.12692" lon="5.16896">
        <ele>313.21798706055</ele>
        <time>2009-11-11T13:56:22Z</time>
      </trkpt>
      <trkpt lat="45.1272" lon="5.16909">
        <ele>314.5710144043</ele>
        <time>2009-11-11T13:56:28Z</time>
      </trkpt>
      <trkpt lat="45.1276" lon="5.16934">
        <ele>317.67999267578</ele>
        <time>2009-11-11T13:56:37Z</time>
      </trkpt>
      <trkpt lat="45.12784" lon="5.16954">
        <ele>319.52099609375</ele>
        <time>2009-11-11T13:56:43Z</time>
      </trkpt>
      <trkpt lat="45.12814" lon="5.1698">
        <ele>321.67401123047</ele>
        <time>2009-11-11T13:56:50Z</time>
      </trkpt>
      <trkpt lat="45.12844" lon="5.17004">
        <ele>324.06100463867</ele>
        <time>2009-11-11T13:56:57Z</time>
      </trkpt>
      <trkpt lat="45.12857" lon="5.17014">
        <ele>325.01800537109</ele>
        <time>2009-11-11T13:57:00Z</time>
      </trkpt>
      <trkpt lat="45.12891" lon="5.17042">
        <ele>326.42599487305</ele>
        <time>2009-11-11T13:57:08Z</time>
      </trkpt>
      <trkpt lat="45.12908" lon="5.17078">
        <ele>328.08401489258</ele>
        <time>2009-11-11T13:57:14Z</time>
      </trkpt>
      <trkpt lat="45.1291" lon="5.17086">
        <ele>328.51300048828</ele>
        <time>2009-11-11T13:57:15Z</time>
      </trkpt>
      <trkpt lat="45.12914" lon="5.17145">
        <ele>330.39498901367</ele>
        <time>2009-11-11T13:57:23Z</time>
      </trkpt>
      <trkpt lat="45.12914" lon="5.1716">
        <ele>330.89999389648</ele>
        <time>2009-11-11T13:57:25Z</time>
      </trkpt>
      <trkpt lat="45.12901" lon="5.17225">
        <ele>333.22299194336</ele>
        <time>2009-11-11T13:57:34Z</time>
      </trkpt>
      <trkpt lat="45.12888" lon="5.17284">
        <ele>335.4880065918</ele>
        <time>2009-11-11T13:57:42Z</time>
      </trkpt>
      <trkpt lat="45.12875" lon="5.17345">
        <ele>337.10501098633</ele>
        <time>2009-11-11T13:57:50Z</time>
      </trkpt>
      <trkpt lat="45.12872" lon="5.17377">
        <ele>337.78601074219</ele>
        <time>2009-11-11T13:57:55Z</time>
      </trkpt>
      <trkpt lat="45.12875" lon="5.17416">
        <ele>339.4580078125</ele>
        <time>2009-11-11T13:58:02Z</time>
      </trkpt>
      <trkpt lat="45.12891" lon="5.17455">
        <ele>340.91799926758</ele>
        <time>2009-11-11T13:58:11Z</time>
      </trkpt>
      <trkpt lat="45.1291" lon="5.17491">
        <ele>342.53298950195</ele>
        <time>2009-11-11T13:58:21Z</time>
      </trkpt>
      <trkpt lat="45.12923" lon="5.17517">
        <ele>343.68200683594</ele>
        <time>2009-11-11T13:58:28Z</time>
      </trkpt>
      <trkpt lat="45.12939" lon="5.17546">
        <ele>345.59201049805</ele>
        <time>2009-11-11T13:58:35Z</time>
      </trkpt>
      <trkpt lat="45.12958" lon="5.17584">
        <ele>347.3210144043</ele>
        <time>2009-11-11T13:58:43Z</time>
      </trkpt>
      <trkpt lat="45.12991" lon="5.17645">
        <ele>350.56500244141</ele>
        <time>2009-11-11T13:58:55Z</time>
      </trkpt>
      <trkpt lat="45.13009" lon="5.1768">
        <ele>352.13299560547</ele>
        <time>2009-11-11T13:59:02Z</time>
      </trkpt>
      <trkpt lat="45.13036" lon="5.17731">
        <ele>354.25601196289</ele>
        <time>2009-11-11T13:59:12Z</time>
      </trkpt>
      <trkpt lat="45.13045" lon="5.17749">
        <ele>354.7080078125</ele>
        <time>2009-11-11T13:59:15Z</time>
      </trkpt>
      <trkpt lat="45.13052" lon="5.17777">
        <ele>355.74600219727</ele>
        <time>2009-11-11T13:59:19Z</time>
      </trkpt>
      <trkpt lat="45.13052" lon="5.17792">
        <ele>356.68798828125</ele>
        <time>2009-11-11T13:59:21Z</time>
      </trkpt>
      <trkpt lat="45.13042" lon="5.1785">
        <ele>360.34698486328</ele>
        <time>2009-11-11T13:59:29Z</time>
      </trkpt>
      <trkpt lat="45.13038" lon="5.17873">
        <ele>361.74398803711</ele>
        <time>2009-11-11T13:59:32Z</time>
      </trkpt>
      <trkpt lat="45.13042" lon="5.17911">
        <ele>363.1549987793</ele>
        <time>2009-11-11T13:59:37Z</time>
      </trkpt>
      <trkpt lat="45.13049" lon="5.17924">
        <ele>363.54098510742</ele>
        <time>2009-11-11T13:59:39Z</time>
      </trkpt>
      <trkpt lat="45.13079" lon="5.17973">
        <ele>365.48699951172</ele>
        <time>2009-11-11T13:59:47Z</time>
      </trkpt>
      <trkpt lat="45.13108" lon="5.18017">
        <ele>367.49700927734</ele>
        <time>2009-11-11T13:59:55Z</time>
      </trkpt>
      <trkpt lat="45.13126" lon="5.18059">
        <ele>369.22601318359</ele>
        <time>2009-11-11T14:00:02Z</time>
      </trkpt>
      <trkpt lat="45.13128" lon="5.18078">
        <ele>370.59799194336</ele>
        <time>2009-11-11T14:00:05Z</time>
      </trkpt>
      <trkpt lat="45.13128" lon="5.18099">
        <ele>371.73599243164</ele>
        <time>2009-11-11T14:00:08Z</time>
      </trkpt>
      <trkpt lat="45.13123" lon="5.18123">
        <ele>372.09100341797</ele>
        <time>2009-11-11T14:00:12Z</time>
      </trkpt>
      <trkpt lat="45.13114" lon="5.18174">
        <ele>373.19100952148</ele>
        <time>2009-11-11T14:00:22Z</time>
      </trkpt>
      <trkpt lat="45.13107" lon="5.18205">
        <ele>373.64898681641</ele>
        <time>2009-11-11T14:00:29Z</time>
      </trkpt>
      <trkpt lat="45.13097" lon="5.18233">
        <ele>374.37200927734</ele>
        <time>2009-11-11T14:00:36Z</time>
      </trkpt>
      <trkpt lat="45.13087" lon="5.18256">
        <ele>374.67999267578</ele>
        <time>2009-11-11T14:00:41Z</time>
      </trkpt>
      <trkpt lat="45.13065" lon="5.18288">
        <ele>375.1780090332</ele>
        <time>2009-11-11T14:00:49Z</time>
      </trkpt>
      <trkpt lat="45.13045" lon="5.1831">
        <ele>376.69799804688</ele>
        <time>2009-11-11T14:00:56Z</time>
      </trkpt>
      <trkpt lat="45.1302" lon="5.18346">
        <ele>377.48400878906</ele>
        <time>2009-11-11T14:01:06Z</time>
      </trkpt>
      <trkpt lat="45.13005" lon="5.18375">
        <ele>378.41198730469</ele>
        <time>2009-11-11T14:01:14Z</time>
      </trkpt>
      <trkpt lat="45.12999" lon="5.18404">
        <ele>379.06399536133</ele>
        <time>2009-11-11T14:01:20Z</time>
      </trkpt>
      <trkpt lat="45.12999" lon="5.1843">
        <ele>380.21499633789</ele>
        <time>2009-11-11T14:01:24Z</time>
      </trkpt>
      <trkpt lat="45.12998" lon="5.18486">
        <ele>382.36199951172</ele>
        <time>2009-11-11T14:01:31Z</time>
      </trkpt>
      <trkpt lat="45.12994" lon="5.18503">
        <ele>383.08099365234</ele>
        <time>2009-11-11T14:01:33Z</time>
      </trkpt>
      <trkpt lat="45.12975" lon="5.18536">
        <ele>384.61599731445</ele>
        <time>2009-11-11T14:01:38Z</time>
      </trkpt>
      <trkpt lat="45.12969" lon="5.18541">
        <ele>384.86599731445</ele>
        <time>2009-11-11T14:01:39Z</time>
      </trkpt>
      <trkpt lat="45.12946" lon="5.18563">
        <ele>386.45498657227</ele>
        <time>2009-11-11T14:01:43Z</time>
      </trkpt>
      <trkpt lat="45.12917" lon="5.18606">
        <ele>388.60299682617</ele>
        <time>2009-11-11T14:01:49Z</time>
      </trkpt>
      <trkpt lat="45.12903" lon="5.18632">
        <ele>389.81698608398</ele>
        <time>2009-11-11T14:01:54Z</time>
      </trkpt>
      <trkpt lat="45.12898" lon="5.18662">
        <ele>390.31399536133</ele>
        <time>2009-11-11T14:02:00Z</time>
      </trkpt>
      <trkpt lat="45.12906" lon="5.18686">
        <ele>390.02899169922</ele>
        <time>2009-11-11T14:02:06Z</time>
      </trkpt>
      <trkpt lat="45.12918" lon="5.18709">
        <ele>389.76699829102</ele>
        <time>2009-11-11T14:02:12Z</time>
      </trkpt>
      <trkpt lat="45.12931" lon="5.18729">
        <ele>389.27499389648</ele>
        <time>2009-11-11T14:02:17Z</time>
      </trkpt>
      <trkpt lat="45.12946" lon="5.18751">
        <ele>388.8210144043</ele>
        <time>2009-11-11T14:02:22Z</time>
      </trkpt>
      <trkpt lat="45.12954" lon="5.18761">
        <ele>388.23699951172</ele>
        <time>2009-11-11T14:02:25Z</time>
      </trkpt>
      <trkpt lat="45.1296" lon="5.18767">
        <ele>388.14999389648</ele>
        <time>2009-11-11T14:02:30Z</time>
      </trkpt>
      <trkpt lat="45.1296" lon="5.18765">
        <ele>387.52499389648</ele>
        <time>2009-11-11T14:06:41Z</time>
      </trkpt>
      <trkpt lat="45.1296" lon="5.18765">
        <ele>387.36401367188</ele>
        <time>2009-11-11T14:06:42Z</time>
      </trkpt>
      <trkpt lat="45.12962" lon="5.18769">
        <ele>387.37200927734</ele>
        <time>2009-11-11T14:07:47Z</time>
      </trkpt>
      <trkpt lat="45.12963" lon="5.18771">
        <ele>387.29998779297</ele>
        <time>2009-11-11T14:07:48Z</time>
      </trkpt>
      <trkpt lat="45.12971" lon="5.18788">
        <ele>388.10101318359</ele>
        <time>2009-11-11T14:07:54Z</time>
      </trkpt>
      <trkpt lat="45.12981" lon="5.18802">
        <ele>388.89300537109</ele>
        <time>2009-11-11T14:07:59Z</time>
      </trkpt>
      <trkpt lat="45.12992" lon="5.18819">
        <ele>389.66400146484</ele>
        <time>2009-11-11T14:08:04Z</time>
      </trkpt>
      <trkpt lat="45.13012" lon="5.18841">
        <ele>391.02200317383</ele>
        <time>2009-11-11T14:08:12Z</time>
      </trkpt>
      <trkpt lat="45.13026" lon="5.18851">
        <ele>392.14700317383</ele>
        <time>2009-11-11T14:08:17Z</time>
      </trkpt>
      <trkpt lat="45.13046" lon="5.18859">
        <ele>393.52499389648</ele>
        <time>2009-11-11T14:08:24Z</time>
      </trkpt>
      <trkpt lat="45.13072" lon="5.18863">
        <ele>394.99600219727</ele>
        <time>2009-11-11T14:08:32Z</time>
      </trkpt>
      <trkpt lat="45.131" lon="5.18863">
        <ele>396.85800170898</ele>
        <time>2009-11-11T14:08:41Z</time>
      </trkpt>
      <trkpt lat="45.13117" lon="5.18861">
        <ele>397.79598999023</ele>
        <time>2009-11-11T14:08:47Z</time>
      </trkpt>
      <trkpt lat="45.13134" lon="5.1886">
        <ele>398.34399414062</ele>
        <time>2009-11-11T14:08:53Z</time>
      </trkpt>
      <trkpt lat="45.1315" lon="5.18859">
        <ele>399.74700927734</ele>
        <time>2009-11-11T14:08:59Z</time>
      </trkpt>
      <trkpt lat="45.13172" lon="5.18864">
        <ele>400.91101074219</ele>
        <time>2009-11-11T14:09:06Z</time>
      </trkpt>
      <trkpt lat="45.132" lon="5.18877">
        <ele>402.62100219727</ele>
        <time>2009-11-11T14:09:15Z</time>
      </trkpt>
      <trkpt lat="45.13226" lon="5.18888">
        <ele>403.90600585938</ele>
        <time>2009-11-11T14:09:24Z</time>
      </trkpt>
      <trkpt lat="45.13245" lon="5.18895">
        <ele>404.95098876953</ele>
        <time>2009-11-11T14:09:31Z</time>
      </trkpt>
      <trkpt lat="45.13269" lon="5.18895">
        <ele>406.46899414062</ele>
        <time>2009-11-11T14:09:39Z</time>
      </trkpt>
      <trkpt lat="45.13287" lon="5.18893">
        <ele>407.18399047852</ele>
        <time>2009-11-11T14:09:45Z</time>
      </trkpt>
      <trkpt lat="45.13315" lon="5.1889">
        <ele>408.38400268555</ele>
        <time>2009-11-11T14:09:54Z</time>
      </trkpt>
      <trkpt lat="45.13334" lon="5.18889">
        <ele>409.88400268555</ele>
        <time>2009-11-11T14:10:01Z</time>
      </trkpt>
      <trkpt lat="45.13351" lon="5.18887">
        <ele>411.04501342773</ele>
        <time>2009-11-11T14:10:07Z</time>
      </trkpt>
      <trkpt lat="45.13364" lon="5.18881">
        <ele>411.7080078125</ele>
        <time>2009-11-11T14:10:12Z</time>
      </trkpt>
      <trkpt lat="45.13385" lon="5.18866">
        <ele>413.03900146484</ele>
        <time>2009-11-11T14:10:20Z</time>
      </trkpt>
      <trkpt lat="45.13402" lon="5.18848">
        <ele>414.11999511719</ele>
        <time>2009-11-11T14:10:27Z</time>
      </trkpt>
      <trkpt lat="45.1342" lon="5.18831">
        <ele>415.34600830078</ele>
        <time>2009-11-11T14:10:34Z</time>
      </trkpt>
      <trkpt lat="45.13443" lon="5.18819">
        <ele>416.74398803711</ele>
        <time>2009-11-11T14:10:42Z</time>
      </trkpt>
      <trkpt lat="45.13465" lon="5.18818">
        <ele>418.08200073242</ele>
        <time>2009-11-11T14:10:49Z</time>
      </trkpt>
      <trkpt lat="45.13494" lon="5.18821">
        <ele>419.6130065918</ele>
        <time>2009-11-11T14:10:58Z</time>
      </trkpt>
      <trkpt lat="45.13514" lon="5.18827">
        <ele>421.13800048828</ele>
        <time>2009-11-11T14:11:05Z</time>
      </trkpt>
      <trkpt lat="45.13536" lon="5.18839">
        <ele>422.32299804688</ele>
        <time>2009-11-11T14:11:12Z</time>
      </trkpt>
      <trkpt lat="45.13557" lon="5.18851">
        <ele>423.59899902344</ele>
        <time>2009-11-11T14:11:19Z</time>
      </trkpt>
      <trkpt lat="45.1358" lon="5.18867">
        <ele>425.12298583984</ele>
        <time>2009-11-11T14:11:27Z</time>
      </trkpt>
      <trkpt lat="45.136" lon="5.1888">
        <ele>426.37100219727</ele>
        <time>2009-11-11T14:11:34Z</time>
      </trkpt>
      <trkpt lat="45.13618" lon="5.18891">
        <ele>427.14801025391</ele>
        <time>2009-11-11T14:11:40Z</time>
      </trkpt>
      <trkpt lat="45.13641" lon="5.18905">
        <ele>428.48999023438</ele>
        <time>2009-11-11T14:11:48Z</time>
      </trkpt>
      <trkpt lat="45.13661" lon="5.1892">
        <ele>429.85101318359</ele>
        <time>2009-11-11T14:11:55Z</time>
      </trkpt>
      <trkpt lat="45.13679" lon="5.18937">
        <ele>431.26400756836</ele>
        <time>2009-11-11T14:12:02Z</time>
      </trkpt>
      <trkpt lat="45.13693" lon="5.18954">
        <ele>432.56600952148</ele>
        <time>2009-11-11T14:12:08Z</time>
      </trkpt>
      <trkpt lat="45.13705" lon="5.18967">
        <ele>433.54000854492</ele>
        <time>2009-11-11T14:12:13Z</time>
      </trkpt>
      <trkpt lat="45.13726" lon="5.18992">
        <ele>435.3330078125</ele>
        <time>2009-11-11T14:12:22Z</time>
      </trkpt>
      <trkpt lat="45.13748" lon="5.19019">
        <ele>436.45901489258</ele>
        <time>2009-11-11T14:12:31Z</time>
      </trkpt>
      <trkpt lat="45.13771" lon="5.19046">
        <ele>438.10299682617</ele>
        <time>2009-11-11T14:12:40Z</time>
      </trkpt>
      <trkpt lat="45.13792" lon="5.19069">
        <ele>439.97399902344</ele>
        <time>2009-11-11T14:12:48Z</time>
      </trkpt>
      <trkpt lat="45.13807" lon="5.19083">
        <ele>441.14999389648</ele>
        <time>2009-11-11T14:12:54Z</time>
      </trkpt>
      <trkpt lat="45.13831" lon="5.19095">
        <ele>442.30999755859</ele>
        <time>2009-11-11T14:13:02Z</time>
      </trkpt>
      <trkpt lat="45.13853" lon="5.19098">
        <ele>443.91198730469</ele>
        <time>2009-11-11T14:13:09Z</time>
      </trkpt>
      <trkpt lat="45.13878" lon="5.19094">
        <ele>445.32400512695</ele>
        <time>2009-11-11T14:13:17Z</time>
      </trkpt>
      <trkpt lat="45.13908" lon="5.19088">
        <ele>446.87600708008</ele>
        <time>2009-11-11T14:13:26Z</time>
      </trkpt>
      <trkpt lat="45.13935" lon="5.19082">
        <ele>448.08599853516</ele>
        <time>2009-11-11T14:13:34Z</time>
      </trkpt>
      <trkpt lat="45.13966" lon="5.19081">
        <ele>449.87200927734</ele>
        <time>2009-11-11T14:13:42Z</time>
      </trkpt>
      <trkpt lat="45.13982" lon="5.19089">
        <ele>450.63800048828</ele>
        <time>2009-11-11T14:13:47Z</time>
      </trkpt>
      <trkpt lat="45.13999" lon="5.19104">
        <ele>451.55801391602</ele>
        <time>2009-11-11T14:13:53Z</time>
      </trkpt>
      <trkpt lat="45.1402" lon="5.19127">
        <ele>452.66500854492</ele>
        <time>2009-11-11T14:14:01Z</time>
      </trkpt>
      <trkpt lat="45.14048" lon="5.19149">
        <ele>452.95999145508</ele>
        <time>2009-11-11T14:14:10Z</time>
      </trkpt>
      <trkpt lat="45.14079" lon="5.19171">
        <ele>452.4469909668</ele>
        <time>2009-11-11T14:14:19Z</time>
      </trkpt>
      <trkpt lat="45.14101" lon="5.1919">
        <ele>452.32400512695</ele>
        <time>2009-11-11T14:14:26Z</time>
      </trkpt>
      <trkpt lat="45.14118" lon="5.1921">
        <ele>452.26400756836</ele>
        <time>2009-11-11T14:14:31Z</time>
      </trkpt>
      <trkpt lat="45.14139" lon="5.19246">
        <ele>452.39898681641</ele>
        <time>2009-11-11T14:14:38Z</time>
      </trkpt>
      <trkpt lat="45.14152" lon="5.19284">
        <ele>452.38299560547</ele>
        <time>2009-11-11T14:14:45Z</time>
      </trkpt>
      <trkpt lat="45.14159" lon="5.19321">
        <ele>451.55999755859</ele>
        <time>2009-11-11T14:14:51Z</time>
      </trkpt>
      <trkpt lat="45.14171" lon="5.19374">
        <ele>450.8450012207</ele>
        <time>2009-11-11T14:14:58Z</time>
      </trkpt>
      <trkpt lat="45.14178" lon="5.1941">
        <ele>448.79998779297</ele>
        <time>2009-11-11T14:15:02Z</time>
      </trkpt>
      <trkpt lat="45.14181" lon="5.1942">
        <ele>448.95199584961</ele>
        <time>2009-11-11T14:15:03Z</time>
      </trkpt>
      <trkpt lat="45.14189" lon="5.19448">
        <ele>447.08599853516</ele>
        <time>2009-11-11T14:15:06Z</time>
      </trkpt>
      <trkpt lat="45.14212" lon="5.19494">
        <ele>446.07998657227</ele>
        <time>2009-11-11T14:15:12Z</time>
      </trkpt>
      <trkpt lat="45.14233" lon="5.19529">
        <ele>446.65798950195</ele>
        <time>2009-11-11T14:15:18Z</time>
      </trkpt>
      <trkpt lat="45.14259" lon="5.19572">
        <ele>447.8869934082</ele>
        <time>2009-11-11T14:15:26Z</time>
      </trkpt>
      <trkpt lat="45.14275" lon="5.19619">
        <ele>449.64001464844</ele>
        <time>2009-11-11T14:15:34Z</time>
      </trkpt>
      <trkpt lat="45.14283" lon="5.19667">
        <ele>450.67199707031</ele>
        <time>2009-11-11T14:15:42Z</time>
      </trkpt>
      <trkpt lat="45.14288" lon="5.19702">
        <ele>452.11099243164</ele>
        <time>2009-11-11T14:15:48Z</time>
      </trkpt>
      <trkpt lat="45.14288" lon="5.19742">
        <ele>452.65600585938</ele>
        <time>2009-11-11T14:15:55Z</time>
      </trkpt>
      <trkpt lat="45.14283" lon="5.19784">
        <ele>453.10699462891</ele>
        <time>2009-11-11T14:16:02Z</time>
      </trkpt>
      <trkpt lat="45.14279" lon="5.19818">
        <ele>452.70999145508</ele>
        <time>2009-11-11T14:16:09Z</time>
      </trkpt>
      <trkpt lat="45.14281" lon="5.19833">
        <ele>452.79901123047</ele>
        <time>2009-11-11T14:16:12Z</time>
      </trkpt>
      <trkpt lat="45.14294" lon="5.19855">
        <ele>452.2200012207</ele>
        <time>2009-11-11T14:16:17Z</time>
      </trkpt>
      <trkpt lat="45.14307" lon="5.19862">
        <ele>451.56298828125</ele>
        <time>2009-11-11T14:16:20Z</time>
      </trkpt>
      <trkpt lat="45.14322" lon="5.19867">
        <ele>451.30200195312</ele>
        <time>2009-11-11T14:16:24Z</time>
      </trkpt>
      <trkpt lat="45.14358" lon="5.19879">
        <ele>450.61099243164</ele>
        <time>2009-11-11T14:16:32Z</time>
      </trkpt>
      <trkpt lat="45.14368" lon="5.19883">
        <ele>450.49301147461</ele>
        <time>2009-11-11T14:16:34Z</time>
      </trkpt>
      <trkpt lat="45.14405" lon="5.19899">
        <ele>450.4700012207</ele>
        <time>2009-11-11T14:16:41Z</time>
      </trkpt>
      <trkpt lat="45.14436" lon="5.19911">
        <ele>449.28601074219</ele>
        <time>2009-11-11T14:16:47Z</time>
      </trkpt>
      <trkpt lat="45.14473" lon="5.19925">
        <ele>447.96200561523</ele>
        <time>2009-11-11T14:16:53Z</time>
      </trkpt>
      <trkpt lat="45.14514" lon="5.19943">
        <ele>447.07400512695</ele>
        <time>2009-11-11T14:16:59Z</time>
      </trkpt>
      <trkpt lat="45.14547" lon="5.19945">
        <ele>447.55801391602</ele>
        <time>2009-11-11T14:17:04Z</time>
      </trkpt>
      <trkpt lat="45.14553" lon="5.19943">
        <ele>447.43600463867</ele>
        <time>2009-11-11T14:17:05Z</time>
      </trkpt>
      <trkpt lat="45.14601" lon="5.19913">
        <ele>447.50900268555</ele>
        <time>2009-11-11T14:17:14Z</time>
      </trkpt>
      <trkpt lat="45.14639" lon="5.19884">
        <ele>447.8330078125</ele>
        <time>2009-11-11T14:17:22Z</time>
      </trkpt>
      <trkpt lat="45.14676" lon="5.19847">
        <ele>448.52700805664</ele>
        <time>2009-11-11T14:17:31Z</time>
      </trkpt>
      <trkpt lat="45.14681" lon="5.19844">
        <ele>448.4169921875</ele>
        <time>2009-11-11T14:17:32Z</time>
      </trkpt>
      <trkpt lat="45.14713" lon="5.19839">
        <ele>448.48901367188</ele>
        <time>2009-11-11T14:17:38Z</time>
      </trkpt>
      <trkpt lat="45.14723" lon="5.19842">
        <ele>447.95199584961</ele>
        <time>2009-11-11T14:17:40Z</time>
      </trkpt>
      <trkpt lat="45.14765" lon="5.1986">
        <ele>446.12200927734</ele>
        <time>2009-11-11T14:17:47Z</time>
      </trkpt>
      <trkpt lat="45.14803" lon="5.19885">
        <ele>444.27600097656</ele>
        <time>2009-11-11T14:17:53Z</time>
      </trkpt>
      <trkpt lat="45.14838" lon="5.19924">
        <ele>442.86801147461</ele>
        <time>2009-11-11T14:17:59Z</time>
      </trkpt>
      <trkpt lat="45.14869" lon="5.19971">
        <ele>441.50201416016</ele>
        <time>2009-11-11T14:18:05Z</time>
      </trkpt>
      <trkpt lat="45.14883" lon="5.19997">
        <ele>440.73300170898</ele>
        <time>2009-11-11T14:18:08Z</time>
      </trkpt>
      <trkpt lat="45.14906" lon="5.20054">
        <ele>439.47601318359</ele>
        <time>2009-11-11T14:18:14Z</time>
      </trkpt>
      <trkpt lat="45.14937" lon="5.20129">
        <ele>438.0119934082</ele>
        <time>2009-11-11T14:18:22Z</time>
      </trkpt>
      <trkpt lat="45.14964" lon="5.2017">
        <ele>436.93301391602</ele>
        <time>2009-11-11T14:18:27Z</time>
      </trkpt>
      <trkpt lat="45.14991" lon="5.20201">
        <ele>437.1969909668</ele>
        <time>2009-11-11T14:18:32Z</time>
      </trkpt>
      <trkpt lat="45.15031" lon="5.20245">
        <ele>438.29699707031</ele>
        <time>2009-11-11T14:18:40Z</time>
      </trkpt>
      <trkpt lat="45.15057" lon="5.20259">
        <ele>439.21301269531</ele>
        <time>2009-11-11T14:18:45Z</time>
      </trkpt>
      <trkpt lat="45.15101" lon="5.2027">
        <ele>440.28399658203</ele>
        <time>2009-11-11T14:18:53Z</time>
      </trkpt>
      <trkpt lat="45.15139" lon="5.20279">
        <ele>441.01699829102</ele>
        <time>2009-11-11T14:19:00Z</time>
      </trkpt>
      <trkpt lat="45.15159" lon="5.20284">
        <ele>441.65399169922</ele>
        <time>2009-11-11T14:19:04Z</time>
      </trkpt>
      <trkpt lat="45.15216" lon="5.20297">
        <ele>442.52398681641</ele>
        <time>2009-11-11T14:19:15Z</time>
      </trkpt>
      <trkpt lat="45.15256" lon="5.20302">
        <ele>442.82299804688</ele>
        <time>2009-11-11T14:19:23Z</time>
      </trkpt>
      <trkpt lat="45.15301" lon="5.20296">
        <ele>443.65701293945</ele>
        <time>2009-11-11T14:19:32Z</time>
      </trkpt>
      <trkpt lat="45.15347" lon="5.2028">
        <ele>444.62899780273</ele>
        <time>2009-11-11T14:19:41Z</time>
      </trkpt>
      <trkpt lat="45.1538" lon="5.20264">
        <ele>445.45700073242</ele>
        <time>2009-11-11T14:19:48Z</time>
      </trkpt>
      <trkpt lat="45.15395" lon="5.20261">
        <ele>445.63800048828</ele>
        <time>2009-11-11T14:19:51Z</time>
      </trkpt>
      <trkpt lat="45.15415" lon="5.20262">
        <ele>446.01300048828</ele>
        <time>2009-11-11T14:19:55Z</time>
      </trkpt>
      <trkpt lat="45.15451" lon="5.20281">
        <ele>446.68899536133</ele>
        <time>2009-11-11T14:20:03Z</time>
      </trkpt>
      <trkpt lat="45.15496" lon="5.2031">
        <ele>447.57400512695</ele>
        <time>2009-11-11T14:20:13Z</time>
      </trkpt>
      <trkpt lat="45.1554" lon="5.20335">
        <ele>448.51998901367</ele>
        <time>2009-11-11T14:20:22Z</time>
      </trkpt>
      <trkpt lat="45.1559" lon="5.20355">
        <ele>449.22198486328</ele>
        <time>2009-11-11T14:20:32Z</time>
      </trkpt>
      <trkpt lat="45.15636" lon="5.20369">
        <ele>450.50799560547</ele>
        <time>2009-11-11T14:20:41Z</time>
      </trkpt>
      <trkpt lat="45.15694" lon="5.20388">
        <ele>451.61999511719</ele>
        <time>2009-11-11T14:20:52Z</time>
      </trkpt>
      <trkpt lat="45.15745" lon="5.20404">
        <ele>452.39599609375</ele>
        <time>2009-11-11T14:21:02Z</time>
      </trkpt>
      <trkpt lat="45.15788" lon="5.20417">
        <ele>453.38000488281</ele>
        <time>2009-11-11T14:21:11Z</time>
      </trkpt>
      <trkpt lat="45.15793" lon="5.20417">
        <ele>453.36401367188</ele>
        <time>2009-11-11T14:21:12Z</time>
      </trkpt>
      <trkpt lat="45.15816" lon="5.20409">
        <ele>454.83499145508</ele>
        <time>2009-11-11T14:21:17Z</time>
      </trkpt>
      <trkpt lat="45.1582" lon="5.20405">
        <ele>455.13800048828</ele>
        <time>2009-11-11T14:21:18Z</time>
      </trkpt>
      <trkpt lat="45.15827" lon="5.20397">
        <ele>455.10101318359</ele>
        <time>2009-11-11T14:21:20Z</time>
      </trkpt>
      <trkpt lat="45.15854" lon="5.20365">
        <ele>457.08099365234</ele>
        <time>2009-11-11T14:21:28Z</time>
      </trkpt>
      <trkpt lat="45.15888" lon="5.20325">
        <ele>459.32598876953</ele>
        <time>2009-11-11T14:21:38Z</time>
      </trkpt>
      <trkpt lat="45.15918" lon="5.20295">
        <ele>461.26599121094</ele>
        <time>2009-11-11T14:21:46Z</time>
      </trkpt>
      <trkpt lat="45.15926" lon="5.20289">
        <ele>462.05700683594</ele>
        <time>2009-11-11T14:21:48Z</time>
      </trkpt>
      <trkpt lat="45.15939" lon="5.20283">
        <ele>462.56600952148</ele>
        <time>2009-11-11T14:21:51Z</time>
      </trkpt>
      <trkpt lat="45.15972" lon="5.20285">
        <ele>464.34899902344</ele>
        <time>2009-11-11T14:21:58Z</time>
      </trkpt>
      <trkpt lat="45.16022" lon="5.20285">
        <ele>467.23901367188</ele>
        <time>2009-11-11T14:22:08Z</time>
      </trkpt>
      <trkpt lat="45.16059" lon="5.2028">
        <ele>469.97500610352</ele>
        <time>2009-11-11T14:22:15Z</time>
      </trkpt>
      <trkpt lat="45.161" lon="5.20272">
        <ele>471.11099243164</ele>
        <time>2009-11-11T14:22:23Z</time>
      </trkpt>
      <trkpt lat="45.16138" lon="5.20265">
        <ele>473.40798950195</ele>
        <time>2009-11-11T14:22:30Z</time>
      </trkpt>
      <trkpt lat="45.16186" lon="5.20257">
        <ele>475.05099487305</ele>
        <time>2009-11-11T14:22:38Z</time>
      </trkpt>
      <trkpt lat="45.16231" lon="5.20245">
        <ele>477.53698730469</ele>
        <time>2009-11-11T14:22:45Z</time>
      </trkpt>
      <trkpt lat="45.16277" lon="5.20219">
        <ele>480.97399902344</ele>
        <time>2009-11-11T14:22:52Z</time>
      </trkpt>
      <trkpt lat="45.16283" lon="5.20216">
        <ele>481.08099365234</ele>
        <time>2009-11-11T14:22:53Z</time>
      </trkpt>
      <trkpt lat="45.16298" lon="5.20208">
        <ele>481.43798828125</ele>
        <time>2009-11-11T14:22:56Z</time>
      </trkpt>
      <trkpt lat="45.16316" lon="5.20199">
        <ele>482.29901123047</ele>
        <time>2009-11-11T14:23:01Z</time>
      </trkpt>
      <trkpt lat="45.16323" lon="5.20204">
        <ele>481.86099243164</ele>
        <time>2009-11-11T14:23:04Z</time>
      </trkpt>
      <trkpt lat="45.16332" lon="5.20198">
        <ele>482.03399658203</ele>
        <time>2009-11-11T14:23:08Z</time>
      </trkpt>
      <trkpt lat="45.16335" lon="5.20196">
        <ele>481.77301025391</ele>
        <time>2009-11-11T14:23:12Z</time>
      </trkpt>
      <trkpt lat="45.16335" lon="5.20196">
        <ele>481.22698974609</ele>
        <time>2009-11-11T14:23:14Z</time>
      </trkpt>
      <trkpt lat="45.16332" lon="5.20199">
        <ele>481.73999023438</ele>
        <time>2009-11-11T14:24:30Z</time>
      </trkpt>
      <trkpt lat="45.16332" lon="5.202">
        <ele>481.74700927734</ele>
        <time>2009-11-11T14:24:31Z</time>
      </trkpt>
      <trkpt lat="45.16342" lon="5.20204">
        <ele>482.08401489258</ele>
        <time>2009-11-11T14:24:41Z</time>
      </trkpt>
      <trkpt lat="45.16352" lon="5.20205">
        <ele>481.96899414062</ele>
        <time>2009-11-11T14:24:45Z</time>
      </trkpt>
      <trkpt lat="45.16362" lon="5.20206">
        <ele>482.24700927734</ele>
        <time>2009-11-11T14:24:50Z</time>
      </trkpt>
      <trkpt lat="45.16372" lon="5.20207">
        <ele>482.38101196289</ele>
        <time>2009-11-11T14:24:57Z</time>
      </trkpt>
      <trkpt lat="45.16373" lon="5.20207">
        <ele>482.37701416016</ele>
        <time>2009-11-11T14:24:58Z</time>
      </trkpt>
      <trkpt lat="45.1638" lon="5.20206">
        <ele>482.39001464844</ele>
        <time>2009-11-11T14:25:02Z</time>
      </trkpt>
      <trkpt lat="45.16388" lon="5.20205">
        <ele>482.89401245117</ele>
        <time>2009-11-11T14:25:09Z</time>
      </trkpt>
      <trkpt lat="45.16396" lon="5.20206">
        <ele>482.92999267578</ele>
        <time>2009-11-11T14:25:14Z</time>
      </trkpt>
      <trkpt lat="45.16409" lon="5.20209">
        <ele>483.08401489258</ele>
        <time>2009-11-11T14:25:21Z</time>
      </trkpt>
      <trkpt lat="45.1642" lon="5.2021">
        <ele>483.21499633789</ele>
        <time>2009-11-11T14:25:27Z</time>
      </trkpt>
      <trkpt lat="45.1643" lon="5.2021">
        <ele>483.4289855957</ele>
        <time>2009-11-11T14:25:32Z</time>
      </trkpt>
      <trkpt lat="45.16444" lon="5.20212">
        <ele>483.86999511719</ele>
        <time>2009-11-11T14:25:38Z</time>
      </trkpt>
      <trkpt lat="45.16467" lon="5.20213">
        <ele>483.83499145508</ele>
        <time>2009-11-11T14:25:44Z</time>
      </trkpt>
      <trkpt lat="45.1649" lon="5.20214">
        <ele>484.36599731445</ele>
        <time>2009-11-11T14:25:49Z</time>
      </trkpt>
      <trkpt lat="45.16527" lon="5.20216">
        <ele>484.6369934082</ele>
        <time>2009-11-11T14:25:57Z</time>
      </trkpt>
      <trkpt lat="45.16566" lon="5.20218">
        <ele>485.6369934082</ele>
        <time>2009-11-11T14:26:05Z</time>
      </trkpt>
      <trkpt lat="45.16607" lon="5.20219">
        <ele>486.45300292969</ele>
        <time>2009-11-11T14:26:13Z</time>
      </trkpt>
      <trkpt lat="45.16617" lon="5.20218">
        <ele>486.54299926758</ele>
        <time>2009-11-11T14:26:15Z</time>
      </trkpt>
      <trkpt lat="45.16639" lon="5.20203">
        <ele>487.3210144043</ele>
        <time>2009-11-11T14:26:20Z</time>
      </trkpt>
      <trkpt lat="45.16647" lon="5.20184">
        <ele>487.7380065918</ele>
        <time>2009-11-11T14:26:23Z</time>
      </trkpt>
      <trkpt lat="45.16658" lon="5.20129">
        <ele>487.54299926758</ele>
        <time>2009-11-11T14:26:31Z</time>
      </trkpt>
      <trkpt lat="45.16672" lon="5.20069">
        <ele>488.46798706055</ele>
        <time>2009-11-11T14:26:40Z</time>
      </trkpt>
      <trkpt lat="45.1669" lon="5.20035">
        <ele>488.89099121094</ele>
        <time>2009-11-11T14:26:46Z</time>
      </trkpt>
      <trkpt lat="45.16698" lon="5.20026">
        <ele>489.00900268555</ele>
        <time>2009-11-11T14:26:48Z</time>
      </trkpt>
      <trkpt lat="45.16727" lon="5.20007">
        <ele>489.3869934082</ele>
        <time>2009-11-11T14:26:54Z</time>
      </trkpt>
      <trkpt lat="45.16733" lon="5.20006">
        <ele>489.32000732422</ele>
        <time>2009-11-11T14:26:55Z</time>
      </trkpt>
      <trkpt lat="45.16778" lon="5.20006">
        <ele>490.18899536133</ele>
        <time>2009-11-11T14:27:03Z</time>
      </trkpt>
      <trkpt lat="45.16824" lon="5.20007">
        <ele>490.80200195312</ele>
        <time>2009-11-11T14:27:11Z</time>
      </trkpt>
      <trkpt lat="45.16864" lon="5.2001">
        <ele>491.60800170898</ele>
        <time>2009-11-11T14:27:18Z</time>
      </trkpt>
      <trkpt lat="45.1687" lon="5.20011">
        <ele>491.46200561523</ele>
        <time>2009-11-11T14:27:19Z</time>
      </trkpt>
      <trkpt lat="45.16902" lon="5.20029">
        <ele>492.08700561523</ele>
        <time>2009-11-11T14:27:25Z</time>
      </trkpt>
      <trkpt lat="45.16927" lon="5.20062">
        <ele>492.65100097656</ele>
        <time>2009-11-11T14:27:31Z</time>
      </trkpt>
      <trkpt lat="45.16962" lon="5.20118">
        <ele>493.97799682617</ele>
        <time>2009-11-11T14:27:40Z</time>
      </trkpt>
      <trkpt lat="45.16985" lon="5.20144">
        <ele>494.72299194336</ele>
        <time>2009-11-11T14:27:45Z</time>
      </trkpt>
      <trkpt lat="45.17019" lon="5.20158">
        <ele>495.24899291992</ele>
        <time>2009-11-11T14:27:51Z</time>
      </trkpt>
      <trkpt lat="45.17043" lon="5.20154">
        <ele>495.59399414062</ele>
        <time>2009-11-11T14:27:55Z</time>
      </trkpt>
      <trkpt lat="45.1707" lon="5.2014">
        <ele>495.77398681641</ele>
        <time>2009-11-11T14:28:00Z</time>
      </trkpt>
      <trkpt lat="45.17106" lon="5.20105">
        <ele>495.11801147461</ele>
        <time>2009-11-11T14:28:07Z</time>
      </trkpt>
      <trkpt lat="45.17135" lon="5.2007">
        <ele>494.62100219727</ele>
        <time>2009-11-11T14:28:13Z</time>
      </trkpt>
      <trkpt lat="45.17166" lon="5.20052">
        <ele>493.95300292969</ele>
        <time>2009-11-11T14:28:18Z</time>
      </trkpt>
      <trkpt lat="45.17173" lon="5.20052">
        <ele>493.79800415039</ele>
        <time>2009-11-11T14:28:19Z</time>
      </trkpt>
      <trkpt lat="45.17206" lon="5.20057">
        <ele>493.1669921875</ele>
        <time>2009-11-11T14:28:24Z</time>
      </trkpt>
      <trkpt lat="45.17239" lon="5.20047">
        <ele>493.00601196289</ele>
        <time>2009-11-11T14:28:29Z</time>
      </trkpt>
      <trkpt lat="45.17299" lon="5.19987">
        <ele>491.02499389648</ele>
        <time>2009-11-11T14:28:39Z</time>
      </trkpt>
      <trkpt lat="45.17349" lon="5.19939">
        <ele>490.52301025391</ele>
        <time>2009-11-11T14:28:47Z</time>
      </trkpt>
      <trkpt lat="45.17389" lon="5.1992">
        <ele>489.04598999023</ele>
        <time>2009-11-11T14:28:53Z</time>
      </trkpt>
      <trkpt lat="45.17396" lon="5.19918">
        <ele>488.94500732422</ele>
        <time>2009-11-11T14:28:54Z</time>
      </trkpt>
      <trkpt lat="45.17431" lon="5.19923">
        <ele>488.04400634766</ele>
        <time>2009-11-11T14:28:59Z</time>
      </trkpt>
      <trkpt lat="45.17444" lon="5.19932">
        <ele>487.69000244141</ele>
        <time>2009-11-11T14:29:01Z</time>
      </trkpt>
      <trkpt lat="45.17495" lon="5.19963">
        <ele>487.57000732422</ele>
        <time>2009-11-11T14:29:09Z</time>
      </trkpt>
      <trkpt lat="45.17541" lon="5.19986">
        <ele>487.03500366211</ele>
        <time>2009-11-11T14:29:17Z</time>
      </trkpt>
      <trkpt lat="45.17581" lon="5.20004">
        <ele>486.07501220703</ele>
        <time>2009-11-11T14:29:24Z</time>
      </trkpt>
      <trkpt lat="45.17599" lon="5.20015">
        <ele>486.1549987793</ele>
        <time>2009-11-11T14:29:27Z</time>
      </trkpt>
      <trkpt lat="45.1762" lon="5.20038">
        <ele>485.7080078125</ele>
        <time>2009-11-11T14:29:31Z</time>
      </trkpt>
      <trkpt lat="45.17642" lon="5.20073">
        <ele>484.64498901367</ele>
        <time>2009-11-11T14:29:36Z</time>
      </trkpt>
      <trkpt lat="45.17662" lon="5.20137">
        <ele>484.06799316406</ele>
        <time>2009-11-11T14:29:43Z</time>
      </trkpt>
      <trkpt lat="45.17687" lon="5.2018">
        <ele>484.00698852539</ele>
        <time>2009-11-11T14:29:49Z</time>
      </trkpt>
      <trkpt lat="45.1772" lon="5.20225">
        <ele>483.04800415039</ele>
        <time>2009-11-11T14:29:56Z</time>
      </trkpt>
      <trkpt lat="45.17749" lon="5.20243">
        <ele>482.80999755859</ele>
        <time>2009-11-11T14:30:01Z</time>
      </trkpt>
      <trkpt lat="45.17762" lon="5.2024">
        <ele>483.00698852539</ele>
        <time>2009-11-11T14:30:03Z</time>
      </trkpt>
      <trkpt lat="45.17793" lon="5.20236">
        <ele>482.5530090332</ele>
        <time>2009-11-11T14:30:08Z</time>
      </trkpt>
      <trkpt lat="45.17809" lon="5.20244">
        <ele>482.75100708008</ele>
        <time>2009-11-11T14:30:11Z</time>
      </trkpt>
      <trkpt lat="45.17836" lon="5.20237">
        <ele>483.52099609375</ele>
        <time>2009-11-11T14:30:16Z</time>
      </trkpt>
      <trkpt lat="45.17849" lon="5.20225">
        <ele>483.625</ele>
        <time>2009-11-11T14:30:19Z</time>
      </trkpt>
      <trkpt lat="45.17863" lon="5.20204">
        <ele>484.12799072266</ele>
        <time>2009-11-11T14:30:23Z</time>
      </trkpt>
      <trkpt lat="45.17886" lon="5.20188">
        <ele>483.84201049805</ele>
        <time>2009-11-11T14:30:28Z</time>
      </trkpt>
      <trkpt lat="45.17896" lon="5.20192">
        <ele>483.69198608398</ele>
        <time>2009-11-11T14:30:30Z</time>
      </trkpt>
      <trkpt lat="45.17906" lon="5.20196">
        <ele>484.14001464844</ele>
        <time>2009-11-11T14:30:32Z</time>
      </trkpt>
      <trkpt lat="45.17936" lon="5.20196">
        <ele>485.23400878906</ele>
        <time>2009-11-11T14:30:38Z</time>
      </trkpt>
      <trkpt lat="45.17962" lon="5.20187">
        <ele>484.95498657227</ele>
        <time>2009-11-11T14:30:43Z</time>
      </trkpt>
      <trkpt lat="45.17992" lon="5.20156">
        <ele>484.60800170898</ele>
        <time>2009-11-11T14:30:50Z</time>
      </trkpt>
      <trkpt lat="45.18007" lon="5.20134">
        <ele>484.8869934082</ele>
        <time>2009-11-11T14:30:54Z</time>
      </trkpt>
      <trkpt lat="45.18028" lon="5.2012">
        <ele>485.74398803711</ele>
        <time>2009-11-11T14:30:59Z</time>
      </trkpt>
      <trkpt lat="45.18057" lon="5.20121">
        <ele>486.00601196289</ele>
        <time>2009-11-11T14:31:05Z</time>
      </trkpt>
      <trkpt lat="45.18077" lon="5.20121">
        <ele>486.69500732422</ele>
        <time>2009-11-11T14:31:09Z</time>
      </trkpt>
      <trkpt lat="45.18118" lon="5.20108">
        <ele>486.79000854492</ele>
        <time>2009-11-11T14:31:17Z</time>
      </trkpt>
      <trkpt lat="45.18165" lon="5.20098">
        <ele>487.35800170898</ele>
        <time>2009-11-11T14:31:26Z</time>
      </trkpt>
      <trkpt lat="45.1821" lon="5.20088">
        <ele>488.08999633789</ele>
        <time>2009-11-11T14:31:35Z</time>
      </trkpt>
      <trkpt lat="45.18249" lon="5.20069">
        <ele>489.17599487305</ele>
        <time>2009-11-11T14:31:43Z</time>
      </trkpt>
      <trkpt lat="45.18257" lon="5.20062">
        <ele>489.17599487305</ele>
        <time>2009-11-11T14:31:45Z</time>
      </trkpt>
      <trkpt lat="45.18282" lon="5.20026">
        <ele>489.42599487305</ele>
        <time>2009-11-11T14:31:52Z</time>
      </trkpt>
      <trkpt lat="45.1831" lon="5.19983">
        <ele>490.01098632812</ele>
        <time>2009-11-11T14:32:00Z</time>
      </trkpt>
      <trkpt lat="45.18346" lon="5.19946">
        <ele>490.57800292969</ele>
        <time>2009-11-11T14:32:09Z</time>
      </trkpt>
      <trkpt lat="45.18376" lon="5.19909">
        <ele>491.79000854492</ele>
        <time>2009-11-11T14:32:17Z</time>
      </trkpt>
      <trkpt lat="45.18382" lon="5.19898">
        <ele>491.67999267578</ele>
        <time>2009-11-11T14:32:19Z</time>
      </trkpt>
      <trkpt lat="45.18403" lon="5.19878">
        <ele>491.58499145508</ele>
        <time>2009-11-11T14:32:24Z</time>
      </trkpt>
      <trkpt lat="45.1845" lon="5.19855">
        <ele>492.54299926758</ele>
        <time>2009-11-11T14:32:34Z</time>
      </trkpt>
      <trkpt lat="45.18488" lon="5.19835">
        <ele>492.83999633789</ele>
        <time>2009-11-11T14:32:42Z</time>
      </trkpt>
      <trkpt lat="45.18497" lon="5.19832">
        <ele>492.90301513672</ele>
        <time>2009-11-11T14:32:44Z</time>
      </trkpt>
      <trkpt lat="45.18537" lon="5.19828">
        <ele>493.46600341797</ele>
        <time>2009-11-11T14:32:52Z</time>
      </trkpt>
      <trkpt lat="45.18572" lon="5.1983">
        <ele>494.23400878906</ele>
        <time>2009-11-11T14:32:59Z</time>
      </trkpt>
      <trkpt lat="45.18595" lon="5.19821">
        <ele>494.79000854492</ele>
        <time>2009-11-11T14:33:04Z</time>
      </trkpt>
      <trkpt lat="45.18603" lon="5.19814">
        <ele>494.70001220703</ele>
        <time>2009-11-11T14:33:06Z</time>
      </trkpt>
      <trkpt lat="45.18615" lon="5.19801">
        <ele>494.89401245117</ele>
        <time>2009-11-11T14:33:09Z</time>
      </trkpt>
      <trkpt lat="45.18644" lon="5.19788">
        <ele>494.99200439453</ele>
        <time>2009-11-11T14:33:15Z</time>
      </trkpt>
      <trkpt lat="45.18684" lon="5.19789">
        <ele>495.67401123047</ele>
        <time>2009-11-11T14:33:23Z</time>
      </trkpt>
      <trkpt lat="45.18699" lon="5.19789">
        <ele>495.7799987793</ele>
        <time>2009-11-11T14:33:26Z</time>
      </trkpt>
      <trkpt lat="45.18719" lon="5.19783">
        <ele>496.03399658203</ele>
        <time>2009-11-11T14:33:30Z</time>
      </trkpt>
      <trkpt lat="45.18741" lon="5.19764">
        <ele>496.69299316406</ele>
        <time>2009-11-11T14:33:35Z</time>
      </trkpt>
      <trkpt lat="45.18762" lon="5.19729">
        <ele>496.78601074219</ele>
        <time>2009-11-11T14:33:41Z</time>
      </trkpt>
      <trkpt lat="45.18784" lon="5.1971">
        <ele>496.92700195312</ele>
        <time>2009-11-11T14:33:46Z</time>
      </trkpt>
      <trkpt lat="45.18834" lon="5.19693">
        <ele>497.61499023438</ele>
        <time>2009-11-11T14:33:55Z</time>
      </trkpt>
      <trkpt lat="45.18851" lon="5.1969">
        <ele>497.89999389648</ele>
        <time>2009-11-11T14:33:58Z</time>
      </trkpt>
      <trkpt lat="45.18896" lon="5.19697">
        <ele>498.80200195312</ele>
        <time>2009-11-11T14:34:06Z</time>
      </trkpt>
      <trkpt lat="45.18906" lon="5.197">
        <ele>499.27700805664</ele>
        <time>2009-11-11T14:34:08Z</time>
      </trkpt>
      <trkpt lat="45.18927" lon="5.19721">
        <ele>499.61199951172</ele>
        <time>2009-11-11T14:34:13Z</time>
      </trkpt>
      <trkpt lat="45.18933" lon="5.19735">
        <ele>499.19100952148</ele>
        <time>2009-11-11T14:34:15Z</time>
      </trkpt>
      <trkpt lat="45.18948" lon="5.19783">
        <ele>499.17599487305</ele>
        <time>2009-11-11T14:34:21Z</time>
      </trkpt>
      <trkpt lat="45.18975" lon="5.19823">
        <ele>498.54501342773</ele>
        <time>2009-11-11T14:34:27Z</time>
      </trkpt>
      <trkpt lat="45.19014" lon="5.19845">
        <ele>498.22799682617</ele>
        <time>2009-11-11T14:34:33Z</time>
      </trkpt>
      <trkpt lat="45.19057" lon="5.19849">
        <ele>497.39300537109</ele>
        <time>2009-11-11T14:34:39Z</time>
      </trkpt>
      <trkpt lat="45.191" lon="5.19851">
        <ele>496.5</ele>
        <time>2009-11-11T14:34:45Z</time>
      </trkpt>
      <trkpt lat="45.19135" lon="5.19847">
        <ele>496.73001098633</ele>
        <time>2009-11-11T14:34:50Z</time>
      </trkpt>
      <trkpt lat="45.19149" lon="5.19847">
        <ele>496.55899047852</ele>
        <time>2009-11-11T14:34:52Z</time>
      </trkpt>
      <trkpt lat="45.19197" lon="5.19856">
        <ele>495.57699584961</ele>
        <time>2009-11-11T14:34:59Z</time>
      </trkpt>
      <trkpt lat="45.1923" lon="5.19859">
        <ele>494.51098632812</ele>
        <time>2009-11-11T14:35:04Z</time>
      </trkpt>
      <trkpt lat="45.1927" lon="5.19864">
        <ele>494.57699584961</ele>
        <time>2009-11-11T14:35:10Z</time>
      </trkpt>
      <trkpt lat="45.19317" lon="5.19878">
        <ele>493.41101074219</ele>
        <time>2009-11-11T14:35:17Z</time>
      </trkpt>
      <trkpt lat="45.19358" lon="5.19891">
        <ele>492.89300537109</ele>
        <time>2009-11-11T14:35:23Z</time>
      </trkpt>
      <trkpt lat="45.19395" lon="5.19891">
        <ele>492.33801269531</ele>
        <time>2009-11-11T14:35:28Z</time>
      </trkpt>
      <trkpt lat="45.19419" lon="5.1989">
        <ele>491.39599609375</ele>
        <time>2009-11-11T14:35:31Z</time>
      </trkpt>
      <trkpt lat="45.1946" lon="5.19902">
        <ele>491.10800170898</ele>
        <time>2009-11-11T14:35:37Z</time>
      </trkpt>
      <trkpt lat="45.19517" lon="5.19932">
        <ele>491.45599365234</ele>
        <time>2009-11-11T14:35:47Z</time>
      </trkpt>
      <trkpt lat="45.1957" lon="5.19958">
        <ele>491.73400878906</ele>
        <time>2009-11-11T14:35:57Z</time>
      </trkpt>
      <trkpt lat="45.19602" lon="5.19973">
        <ele>492.23699951172</ele>
        <time>2009-11-11T14:36:04Z</time>
      </trkpt>
      <trkpt lat="45.19621" lon="5.19982">
        <ele>492.19500732422</ele>
        <time>2009-11-11T14:36:10Z</time>
      </trkpt>
      <trkpt lat="45.19631" lon="5.19986">
        <ele>492.50799560547</ele>
        <time>2009-11-11T14:36:16Z</time>
      </trkpt>
      <trkpt lat="45.19633" lon="5.19988">
        <ele>492.42401123047</ele>
        <time>2009-11-11T14:36:18Z</time>
      </trkpt>
      <trkpt lat="45.19637" lon="5.19983">
        <ele>492.66000366211</ele>
        <time>2009-11-11T14:36:22Z</time>
      </trkpt>
      <trkpt lat="45.19636" lon="5.19978">
        <ele>492.61499023438</ele>
        <time>2009-11-11T14:36:24Z</time>
      </trkpt>
      <trkpt lat="45.19635" lon="5.19956">
        <ele>492.5950012207</ele>
        <time>2009-11-11T14:36:32Z</time>
      </trkpt>
      <trkpt lat="45.19636" lon="5.19929">
        <ele>492.20001220703</ele>
        <time>2009-11-11T14:36:39Z</time>
      </trkpt>
      <trkpt lat="45.19636" lon="5.19893">
        <ele>492.02200317383</ele>
        <time>2009-11-11T14:36:47Z</time>
      </trkpt>
      <trkpt lat="45.19632" lon="5.19865">
        <ele>492.25900268555</ele>
        <time>2009-11-11T14:36:52Z</time>
      </trkpt>
      <trkpt lat="45.19625" lon="5.19818">
        <ele>491.14898681641</ele>
        <time>2009-11-11T14:36:59Z</time>
      </trkpt>
      <trkpt lat="45.19616" lon="5.19764">
        <ele>491.14099121094</ele>
        <time>2009-11-11T14:37:06Z</time>
      </trkpt>
      <trkpt lat="45.1961" lon="5.19696">
        <ele>489.75698852539</ele>
        <time>2009-11-11T14:37:14Z</time>
      </trkpt>
      <trkpt lat="45.1961" lon="5.19627">
        <ele>488.16900634766</ele>
        <time>2009-11-11T14:37:22Z</time>
      </trkpt>
      <trkpt lat="45.19611" lon="5.19564">
        <ele>486.94100952148</ele>
        <time>2009-11-11T14:37:29Z</time>
      </trkpt>
      <trkpt lat="45.19612" lon="5.19502">
        <ele>485.51599121094</ele>
        <time>2009-11-11T14:37:36Z</time>
      </trkpt>
      <trkpt lat="45.19614" lon="5.19415">
        <ele>484.16500854492</ele>
        <time>2009-11-11T14:37:45Z</time>
      </trkpt>
      <trkpt lat="45.19614" lon="5.19339">
        <ele>483.59100341797</ele>
        <time>2009-11-11T14:37:53Z</time>
      </trkpt>
      <trkpt lat="45.19617" lon="5.19252">
        <ele>481.71899414062</ele>
        <time>2009-11-11T14:38:02Z</time>
      </trkpt>
      <trkpt lat="45.19624" lon="5.19176">
        <ele>479.2380065918</ele>
        <time>2009-11-11T14:38:09Z</time>
      </trkpt>
      <trkpt lat="45.19629" lon="5.19131">
        <ele>478.47100830078</ele>
        <time>2009-11-11T14:38:13Z</time>
      </trkpt>
      <trkpt lat="45.19637" lon="5.19041">
        <ele>475.75601196289</ele>
        <time>2009-11-11T14:38:21Z</time>
      </trkpt>
      <trkpt lat="45.19644" lon="5.18948">
        <ele>473.51800537109</ele>
        <time>2009-11-11T14:38:29Z</time>
      </trkpt>
      <trkpt lat="45.19644" lon="5.18912">
        <ele>472.52700805664</ele>
        <time>2009-11-11T14:38:32Z</time>
      </trkpt>
      <trkpt lat="45.1965" lon="5.18853">
        <ele>471.04699707031</ele>
        <time>2009-11-11T14:38:37Z</time>
      </trkpt>
      <trkpt lat="45.19664" lon="5.18798">
        <ele>469.77099609375</ele>
        <time>2009-11-11T14:38:42Z</time>
      </trkpt>
      <trkpt lat="45.19663" lon="5.18741">
        <ele>467.98199462891</ele>
        <time>2009-11-11T14:38:47Z</time>
      </trkpt>
      <trkpt lat="45.19655" lon="5.1866">
        <ele>466.42401123047</ele>
        <time>2009-11-11T14:38:54Z</time>
      </trkpt>
      <trkpt lat="45.19656" lon="5.18612">
        <ele>465.30499267578</ele>
        <time>2009-11-11T14:38:58Z</time>
      </trkpt>
      <trkpt lat="45.19656" lon="5.186">
        <ele>465.55200195312</ele>
        <time>2009-11-11T14:38:59Z</time>
      </trkpt>
      <trkpt lat="45.19658" lon="5.18551">
        <ele>463.99700927734</ele>
        <time>2009-11-11T14:39:03Z</time>
      </trkpt>
      <trkpt lat="45.19659" lon="5.18502">
        <ele>463.10198974609</ele>
        <time>2009-11-11T14:39:07Z</time>
      </trkpt>
      <trkpt lat="45.19661" lon="5.1844">
        <ele>461.5299987793</ele>
        <time>2009-11-11T14:39:12Z</time>
      </trkpt>
      <trkpt lat="45.19676" lon="5.18382">
        <ele>460.75201416016</ele>
        <time>2009-11-11T14:39:17Z</time>
      </trkpt>
      <trkpt lat="45.19697" lon="5.18329">
        <ele>459.50900268555</ele>
        <time>2009-11-11T14:39:22Z</time>
      </trkpt>
      <trkpt lat="45.19709" lon="5.18282">
        <ele>457.04000854492</ele>
        <time>2009-11-11T14:39:26Z</time>
      </trkpt>
      <trkpt lat="45.19721" lon="5.1821">
        <ele>455.63598632812</ele>
        <time>2009-11-11T14:39:32Z</time>
      </trkpt>
      <trkpt lat="45.19724" lon="5.18172">
        <ele>454.05801391602</ele>
        <time>2009-11-11T14:39:35Z</time>
      </trkpt>
      <trkpt lat="45.19735" lon="5.18074">
        <ele>452.15899658203</ele>
        <time>2009-11-11T14:39:43Z</time>
      </trkpt>
      <trkpt lat="45.19735" lon="5.17983">
        <ele>449.96798706055</ele>
        <time>2009-11-11T14:39:50Z</time>
      </trkpt>
      <trkpt lat="45.19726" lon="5.17919">
        <ele>448.11700439453</ele>
        <time>2009-11-11T14:39:55Z</time>
      </trkpt>
      <trkpt lat="45.19713" lon="5.17887">
        <ele>448.01000976562</ele>
        <time>2009-11-11T14:39:58Z</time>
      </trkpt>
      <trkpt lat="45.19707" lon="5.17837">
        <ele>446.20498657227</ele>
        <time>2009-11-11T14:40:02Z</time>
      </trkpt>
      <trkpt lat="45.19716" lon="5.17816">
        <ele>446.15701293945</ele>
        <time>2009-11-11T14:40:04Z</time>
      </trkpt>
      <trkpt lat="45.19742" lon="5.17729">
        <ele>444.03601074219</ele>
        <time>2009-11-11T14:40:12Z</time>
      </trkpt>
      <trkpt lat="45.19754" lon="5.17685">
        <ele>443.17999267578</ele>
        <time>2009-11-11T14:40:16Z</time>
      </trkpt>
      <trkpt lat="45.19771" lon="5.17635">
        <ele>442.95300292969</ele>
        <time>2009-11-11T14:40:21Z</time>
      </trkpt>
      <trkpt lat="45.19775" lon="5.17625">
        <ele>443.24200439453</ele>
        <time>2009-11-11T14:40:22Z</time>
      </trkpt>
      <trkpt lat="45.1978" lon="5.17605">
        <ele>442.80999755859</ele>
        <time>2009-11-11T14:40:24Z</time>
      </trkpt>
      <trkpt lat="45.19781" lon="5.17575">
        <ele>442.34298706055</ele>
        <time>2009-11-11T14:40:27Z</time>
      </trkpt>
      <trkpt lat="45.19781" lon="5.17565">
        <ele>442.26599121094</ele>
        <time>2009-11-11T14:40:28Z</time>
      </trkpt>
      <trkpt lat="45.19778" lon="5.17525">
        <ele>441.75100708008</ele>
        <time>2009-11-11T14:40:32Z</time>
      </trkpt>
      <trkpt lat="45.19787" lon="5.17461">
        <ele>440.39999389648</ele>
        <time>2009-11-11T14:40:39Z</time>
      </trkpt>
      <trkpt lat="45.19808" lon="5.17395">
        <ele>438.85400390625</ele>
        <time>2009-11-11T14:40:47Z</time>
      </trkpt>
      <trkpt lat="45.19831" lon="5.1734">
        <ele>438.32299804688</ele>
        <time>2009-11-11T14:40:54Z</time>
      </trkpt>
      <trkpt lat="45.19846" lon="5.17307">
        <ele>437.79000854492</ele>
        <time>2009-11-11T14:40:58Z</time>
      </trkpt>
      <trkpt lat="45.19849" lon="5.17299">
        <ele>437.66900634766</ele>
        <time>2009-11-11T14:40:59Z</time>
      </trkpt>
      <trkpt lat="45.19869" lon="5.17261">
        <ele>437.28201293945</ele>
        <time>2009-11-11T14:41:04Z</time>
      </trkpt>
      <trkpt lat="45.19875" lon="5.17245">
        <ele>436.80200195312</ele>
        <time>2009-11-11T14:41:06Z</time>
      </trkpt>
      <trkpt lat="45.19884" lon="5.1721">
        <ele>436.31900024414</ele>
        <time>2009-11-11T14:41:10Z</time>
      </trkpt>
      <trkpt lat="45.19881" lon="5.1717">
        <ele>435.71200561523</ele>
        <time>2009-11-11T14:41:14Z</time>
      </trkpt>
      <trkpt lat="45.19878" lon="5.17159">
        <ele>435.82400512695</ele>
        <time>2009-11-11T14:41:15Z</time>
      </trkpt>
      <trkpt lat="45.19873" lon="5.17127">
        <ele>435.22601318359</ele>
        <time>2009-11-11T14:41:18Z</time>
      </trkpt>
      <trkpt lat="45.19882" lon="5.17063">
        <ele>434.69500732422</ele>
        <time>2009-11-11T14:41:25Z</time>
      </trkpt>
      <trkpt lat="45.19888" lon="5.17007">
        <ele>433.71499633789</ele>
        <time>2009-11-11T14:41:30Z</time>
      </trkpt>
      <trkpt lat="45.19893" lon="5.16948">
        <ele>432.74899291992</ele>
        <time>2009-11-11T14:41:35Z</time>
      </trkpt>
      <trkpt lat="45.19893" lon="5.16889">
        <ele>432.38800048828</ele>
        <time>2009-11-11T14:41:40Z</time>
      </trkpt>
      <trkpt lat="45.19888" lon="5.1684">
        <ele>431.41299438477</ele>
        <time>2009-11-11T14:41:44Z</time>
      </trkpt>
      <trkpt lat="45.19872" lon="5.16796">
        <ele>430.61700439453</ele>
        <time>2009-11-11T14:41:48Z</time>
      </trkpt>
      <trkpt lat="45.19836" lon="5.16724">
        <ele>429.49200439453</ele>
        <time>2009-11-11T14:41:54Z</time>
      </trkpt>
      <trkpt lat="45.19813" lon="5.16655">
        <ele>428.50399780273</ele>
        <time>2009-11-11T14:41:59Z</time>
      </trkpt>
      <trkpt lat="45.19792" lon="5.16589">
        <ele>426.5950012207</ele>
        <time>2009-11-11T14:42:04Z</time>
      </trkpt>
      <trkpt lat="45.19788" lon="5.16575">
        <ele>426.74798583984</ele>
        <time>2009-11-11T14:42:05Z</time>
      </trkpt>
      <trkpt lat="45.19783" lon="5.16531">
        <ele>425.36499023438</ele>
        <time>2009-11-11T14:42:08Z</time>
      </trkpt>
      <trkpt lat="45.19786" lon="5.16501">
        <ele>425.09100341797</ele>
        <time>2009-11-11T14:42:10Z</time>
      </trkpt>
      <trkpt lat="45.19803" lon="5.16387">
        <ele>419.64498901367</ele>
        <time>2009-11-11T14:42:18Z</time>
      </trkpt>
      <trkpt lat="45.19804" lon="5.16373">
        <ele>419.70700073242</ele>
        <time>2009-11-11T14:42:19Z</time>
      </trkpt>
      <trkpt lat="45.19807" lon="5.16344">
        <ele>418.58700561523</ele>
        <time>2009-11-11T14:42:21Z</time>
      </trkpt>
      <trkpt lat="45.19818" lon="5.16287">
        <ele>415.66500854492</ele>
        <time>2009-11-11T14:42:25Z</time>
      </trkpt>
      <trkpt lat="45.19836" lon="5.16236">
        <ele>412.47299194336</ele>
        <time>2009-11-11T14:42:29Z</time>
      </trkpt>
      <trkpt lat="45.19842" lon="5.16221">
        <ele>410.54699707031</ele>
        <time>2009-11-11T14:42:31Z</time>
      </trkpt>
      <trkpt lat="45.19845" lon="5.16217">
        <ele>409.89498901367</ele>
        <time>2009-11-11T14:42:32Z</time>
      </trkpt>
      <trkpt lat="45.19857" lon="5.16221">
        <ele>408.34799194336</ele>
        <time>2009-11-11T14:42:35Z</time>
      </trkpt>
      <trkpt lat="45.1986" lon="5.16237">
        <ele>408.10000610352</ele>
        <time>2009-11-11T14:42:37Z</time>
      </trkpt>
      <trkpt lat="45.19861" lon="5.16253">
        <ele>408.00601196289</ele>
        <time>2009-11-11T14:42:39Z</time>
      </trkpt>
      <trkpt lat="45.19865" lon="5.16297">
        <ele>409.79400634766</ele>
        <time>2009-11-11T14:42:46Z</time>
      </trkpt>
      <trkpt lat="45.19872" lon="5.1633">
        <ele>411.4169921875</ele>
        <time>2009-11-11T14:42:53Z</time>
      </trkpt>
      <trkpt lat="45.19883" lon="5.16353">
        <ele>413.0419921875</ele>
        <time>2009-11-11T14:42:59Z</time>
      </trkpt>
      <trkpt lat="45.19899" lon="5.16377">
        <ele>414.87701416016</ele>
        <time>2009-11-11T14:43:06Z</time>
      </trkpt>
      <trkpt lat="45.19907" lon="5.16387">
        <ele>415.54299926758</ele>
        <time>2009-11-11T14:43:09Z</time>
      </trkpt>
      <trkpt lat="45.19924" lon="5.16394">
        <ele>417.36401367188</ele>
        <time>2009-11-11T14:43:14Z</time>
      </trkpt>
      <trkpt lat="45.19927" lon="5.16393">
        <ele>417.66500854492</ele>
        <time>2009-11-11T14:43:15Z</time>
      </trkpt>
      <trkpt lat="45.19939" lon="5.16378">
        <ele>419.3039855957</ele>
        <time>2009-11-11T14:43:20Z</time>
      </trkpt>
      <trkpt lat="45.19949" lon="5.16348">
        <ele>421.31900024414</ele>
        <time>2009-11-11T14:43:26Z</time>
      </trkpt>
      <trkpt lat="45.19964" lon="5.1632">
        <ele>421.00299072266</ele>
        <time>2009-11-11T14:43:32Z</time>
      </trkpt>
      <trkpt lat="45.19987" lon="5.1628">
        <ele>419.85101318359</ele>
        <time>2009-11-11T14:43:39Z</time>
      </trkpt>
      <trkpt lat="45.20013" lon="5.1624">
        <ele>418.18301391602</ele>
        <time>2009-11-11T14:43:45Z</time>
      </trkpt>
      <trkpt lat="45.20035" lon="5.16216">
        <ele>418.97299194336</ele>
        <time>2009-11-11T14:43:50Z</time>
      </trkpt>
      <trkpt lat="45.20057" lon="5.16194">
        <ele>420.92999267578</ele>
        <time>2009-11-11T14:43:57Z</time>
      </trkpt>
      <trkpt lat="45.2007" lon="5.16168">
        <ele>423.10800170898</ele>
        <time>2009-11-11T14:44:03Z</time>
      </trkpt>
      <trkpt lat="45.20073" lon="5.16158">
        <ele>424.26800537109</ele>
        <time>2009-11-11T14:44:05Z</time>
      </trkpt>
      <trkpt lat="45.20078" lon="5.16148">
        <ele>424.89300537109</ele>
        <time>2009-11-11T14:44:07Z</time>
      </trkpt>
      <trkpt lat="45.20087" lon="5.16134">
        <ele>426.63900756836</ele>
        <time>2009-11-11T14:44:10Z</time>
      </trkpt>
      <trkpt lat="45.20105" lon="5.16107">
        <ele>427.16198730469</ele>
        <time>2009-11-11T14:44:16Z</time>
      </trkpt>
      <trkpt lat="45.20118" lon="5.16091">
        <ele>427.48098754883</ele>
        <time>2009-11-11T14:44:20Z</time>
      </trkpt>
      <trkpt lat="45.20121" lon="5.16087">
        <ele>427.59399414062</ele>
        <time>2009-11-11T14:44:21Z</time>
      </trkpt>
      <trkpt lat="45.20145" lon="5.16047">
        <ele>427.62100219727</ele>
        <time>2009-11-11T14:44:29Z</time>
      </trkpt>
      <trkpt lat="45.20153" lon="5.16008">
        <ele>428.22698974609</ele>
        <time>2009-11-11T14:44:35Z</time>
      </trkpt>
      <trkpt lat="45.20162" lon="5.15953">
        <ele>429.41400146484</ele>
        <time>2009-11-11T14:44:43Z</time>
      </trkpt>
      <trkpt lat="45.2017" lon="5.1592">
        <ele>431.11898803711</ele>
        <time>2009-11-11T14:44:47Z</time>
      </trkpt>
      <trkpt lat="45.20177" lon="5.15893">
        <ele>432.9460144043</ele>
        <time>2009-11-11T14:44:50Z</time>
      </trkpt>
      <trkpt lat="45.20181" lon="5.15863">
        <ele>432.07501220703</ele>
        <time>2009-11-11T14:44:54Z</time>
      </trkpt>
      <trkpt lat="45.20187" lon="5.15823">
        <ele>431.11801147461</ele>
        <time>2009-11-11T14:45:00Z</time>
      </trkpt>
      <trkpt lat="45.20187" lon="5.15817">
        <ele>430.90600585938</ele>
        <time>2009-11-11T14:45:01Z</time>
      </trkpt>
      <trkpt lat="45.20185" lon="5.15785">
        <ele>429.24600219727</ele>
        <time>2009-11-11T14:45:06Z</time>
      </trkpt>
      <trkpt lat="45.20179" lon="5.15735">
        <ele>429.52200317383</ele>
        <time>2009-11-11T14:45:13Z</time>
      </trkpt>
      <trkpt lat="45.20178" lon="5.15692">
        <ele>428.21798706055</ele>
        <time>2009-11-11T14:45:19Z</time>
      </trkpt>
      <trkpt lat="45.20181" lon="5.15652">
        <ele>427.00201416016</ele>
        <time>2009-11-11T14:45:24Z</time>
      </trkpt>
      <trkpt lat="45.20181" lon="5.15605">
        <ele>425.75500488281</ele>
        <time>2009-11-11T14:45:30Z</time>
      </trkpt>
      <trkpt lat="45.20179" lon="5.1558">
        <ele>425.28100585938</ele>
        <time>2009-11-11T14:45:33Z</time>
      </trkpt>
      <trkpt lat="45.20178" lon="5.15572">
        <ele>424.86999511719</ele>
        <time>2009-11-11T14:45:34Z</time>
      </trkpt>
      <trkpt lat="45.20175" lon="5.15556">
        <ele>425.00601196289</ele>
        <time>2009-11-11T14:45:36Z</time>
      </trkpt>
      <trkpt lat="45.20157" lon="5.15491">
        <ele>423.67999267578</ele>
        <time>2009-11-11T14:45:44Z</time>
      </trkpt>
      <trkpt lat="45.20142" lon="5.15451">
        <ele>423.26800537109</ele>
        <time>2009-11-11T14:45:49Z</time>
      </trkpt>
      <trkpt lat="45.20129" lon="5.15399">
        <ele>421.5419921875</ele>
        <time>2009-11-11T14:45:55Z</time>
      </trkpt>
      <trkpt lat="45.20122" lon="5.15362">
        <ele>419.72399902344</ele>
        <time>2009-11-11T14:45:59Z</time>
      </trkpt>
      <trkpt lat="45.20111" lon="5.15306">
        <ele>417.97799682617</ele>
        <time>2009-11-11T14:46:05Z</time>
      </trkpt>
      <trkpt lat="45.20105" lon="5.15269">
        <ele>417.34201049805</ele>
        <time>2009-11-11T14:46:09Z</time>
      </trkpt>
      <trkpt lat="45.20097" lon="5.15226">
        <ele>417.36898803711</ele>
        <time>2009-11-11T14:46:14Z</time>
      </trkpt>
      <trkpt lat="45.20081" lon="5.1516">
        <ele>414.51300048828</ele>
        <time>2009-11-11T14:46:22Z</time>
      </trkpt>
      <trkpt lat="45.20078" lon="5.15151">
        <ele>414.22698974609</ele>
        <time>2009-11-11T14:46:23Z</time>
      </trkpt>
      <trkpt lat="45.2006" lon="5.15107">
        <ele>412.33898925781</ele>
        <time>2009-11-11T14:46:28Z</time>
      </trkpt>
      <trkpt lat="45.20032" lon="5.15043">
        <ele>409.52398681641</ele>
        <time>2009-11-11T14:46:35Z</time>
      </trkpt>
      <trkpt lat="45.2002" lon="5.15015">
        <ele>408.5719909668</ele>
        <time>2009-11-11T14:46:38Z</time>
      </trkpt>
      <trkpt lat="45.19997" lon="5.14946">
        <ele>404.89801025391</ele>
        <time>2009-11-11T14:46:45Z</time>
      </trkpt>
      <trkpt lat="45.19995" lon="5.14936">
        <ele>404.79000854492</ele>
        <time>2009-11-11T14:46:46Z</time>
      </trkpt>
      <trkpt lat="45.19988" lon="5.14884">
        <ele>402.20199584961</ele>
        <time>2009-11-11T14:46:51Z</time>
      </trkpt>
      <trkpt lat="45.19976" lon="5.14821">
        <ele>399.24899291992</ele>
        <time>2009-11-11T14:46:57Z</time>
      </trkpt>
      <trkpt lat="45.19962" lon="5.14782">
        <ele>397.41299438477</ele>
        <time>2009-11-11T14:47:01Z</time>
      </trkpt>
      <trkpt lat="45.19953" lon="5.14764">
        <ele>396.77899169922</ele>
        <time>2009-11-11T14:47:03Z</time>
      </trkpt>
      <trkpt lat="45.1992" lon="5.14699">
        <ele>393.57998657227</ele>
        <time>2009-11-11T14:47:10Z</time>
      </trkpt>
      <trkpt lat="45.19916" lon="5.14689">
        <ele>393.41101074219</ele>
        <time>2009-11-11T14:47:11Z</time>
      </trkpt>
      <trkpt lat="45.19899" lon="5.14618">
        <ele>391.42700195312</ele>
        <time>2009-11-11T14:47:18Z</time>
      </trkpt>
      <trkpt lat="45.19893" lon="5.14561">
        <ele>390.75399780273</ele>
        <time>2009-11-11T14:47:24Z</time>
      </trkpt>
      <trkpt lat="45.19891" lon="5.14512">
        <ele>389.72698974609</ele>
        <time>2009-11-11T14:47:30Z</time>
      </trkpt>
      <trkpt lat="45.19889" lon="5.1448">
        <ele>390.43899536133</ele>
        <time>2009-11-11T14:47:34Z</time>
      </trkpt>
      <trkpt lat="45.19888" lon="5.14449">
        <ele>389.95700073242</ele>
        <time>2009-11-11T14:47:38Z</time>
      </trkpt>
      <trkpt lat="45.19885" lon="5.14381">
        <ele>390.0299987793</ele>
        <time>2009-11-11T14:47:47Z</time>
      </trkpt>
      <trkpt lat="45.19882" lon="5.14331">
        <ele>389.73599243164</ele>
        <time>2009-11-11T14:47:53Z</time>
      </trkpt>
      <trkpt lat="45.19879" lon="5.14261">
        <ele>388.79998779297</ele>
        <time>2009-11-11T14:48:01Z</time>
      </trkpt>
      <trkpt lat="45.19873" lon="5.14155">
        <ele>387.51098632812</ele>
        <time>2009-11-11T14:48:13Z</time>
      </trkpt>
      <trkpt lat="45.1987" lon="5.14089">
        <ele>387.06399536133</ele>
        <time>2009-11-11T14:48:21Z</time>
      </trkpt>
      <trkpt lat="45.19865" lon="5.14007">
        <ele>386.5950012207</ele>
        <time>2009-11-11T14:48:30Z</time>
      </trkpt>
      <trkpt lat="45.19862" lon="5.13932">
        <ele>385.65399169922</ele>
        <time>2009-11-11T14:48:38Z</time>
      </trkpt>
      <trkpt lat="45.19861" lon="5.13923">
        <ele>385.92199707031</ele>
        <time>2009-11-11T14:48:39Z</time>
      </trkpt>
      <trkpt lat="45.19846" lon="5.13882">
        <ele>385.75698852539</ele>
        <time>2009-11-11T14:48:44Z</time>
      </trkpt>
      <trkpt lat="45.19832" lon="5.13861">
        <ele>384.85101318359</ele>
        <time>2009-11-11T14:48:47Z</time>
      </trkpt>
      <trkpt lat="45.1978" lon="5.13799">
        <ele>383.43399047852</ele>
        <time>2009-11-11T14:48:57Z</time>
      </trkpt>
      <trkpt lat="45.19735" lon="5.13737">
        <ele>382.23400878906</ele>
        <time>2009-11-11T14:49:06Z</time>
      </trkpt>
      <trkpt lat="45.19713" lon="5.13684">
        <ele>381.42199707031</ele>
        <time>2009-11-11T14:49:12Z</time>
      </trkpt>
      <trkpt lat="45.19678" lon="5.13589">
        <ele>379.11199951172</ele>
        <time>2009-11-11T14:49:22Z</time>
      </trkpt>
      <trkpt lat="45.1965" lon="5.13497">
        <ele>377.18600463867</ele>
        <time>2009-11-11T14:49:31Z</time>
      </trkpt>
      <trkpt lat="45.19642" lon="5.13439">
        <ele>375.76699829102</ele>
        <time>2009-11-11T14:49:36Z</time>
      </trkpt>
      <trkpt lat="45.19642" lon="5.13416">
        <ele>375.26501464844</ele>
        <time>2009-11-11T14:49:38Z</time>
      </trkpt>
      <trkpt lat="45.19651" lon="5.13373">
        <ele>374.47399902344</ele>
        <time>2009-11-11T14:49:42Z</time>
      </trkpt>
      <trkpt lat="45.19683" lon="5.13294">
        <ele>372.2380065918</ele>
        <time>2009-11-11T14:49:50Z</time>
      </trkpt>
      <trkpt lat="45.19703" lon="5.13231">
        <ele>370.56900024414</ele>
        <time>2009-11-11T14:49:56Z</time>
      </trkpt>
      <trkpt lat="45.19717" lon="5.13148">
        <ele>368.59899902344</ele>
        <time>2009-11-11T14:50:03Z</time>
      </trkpt>
      <trkpt lat="45.19725" lon="5.13087">
        <ele>366.65200805664</ele>
        <time>2009-11-11T14:50:08Z</time>
      </trkpt>
      <trkpt lat="45.1974" lon="5.12986">
        <ele>363.35198974609</ele>
        <time>2009-11-11T14:50:16Z</time>
      </trkpt>
      <trkpt lat="45.19743" lon="5.12924">
        <ele>362.4169921875</ele>
        <time>2009-11-11T14:50:21Z</time>
      </trkpt>
      <trkpt lat="45.19735" lon="5.12863">
        <ele>361.07400512695</ele>
        <time>2009-11-11T14:50:26Z</time>
      </trkpt>
      <trkpt lat="45.19715" lon="5.12734">
        <ele>358.79400634766</ele>
        <time>2009-11-11T14:50:37Z</time>
      </trkpt>
      <trkpt lat="45.19696" lon="5.12605">
        <ele>356.82699584961</ele>
        <time>2009-11-11T14:50:48Z</time>
      </trkpt>
      <trkpt lat="45.1968" lon="5.12503">
        <ele>354.73498535156</ele>
        <time>2009-11-11T14:50:57Z</time>
      </trkpt>
      <trkpt lat="45.19678" lon="5.12492">
        <ele>354.35998535156</ele>
        <time>2009-11-11T14:50:58Z</time>
      </trkpt>
      <trkpt lat="45.19654" lon="5.12394">
        <ele>353.85299682617</ele>
        <time>2009-11-11T14:51:08Z</time>
      </trkpt>
      <trkpt lat="45.19629" lon="5.12287">
        <ele>352.09399414062</ele>
        <time>2009-11-11T14:51:19Z</time>
      </trkpt>
      <trkpt lat="45.19604" lon="5.12187">
        <ele>350.91400146484</ele>
        <time>2009-11-11T14:51:29Z</time>
      </trkpt>
      <trkpt lat="45.19576" lon="5.12066">
        <ele>350.60998535156</ele>
        <time>2009-11-11T14:51:41Z</time>
      </trkpt>
      <trkpt lat="45.19574" lon="5.12056">
        <ele>350.22601318359</ele>
        <time>2009-11-11T14:51:42Z</time>
      </trkpt>
      <trkpt lat="45.19576" lon="5.12017">
        <ele>350.63198852539</ele>
        <time>2009-11-11T14:51:46Z</time>
      </trkpt>
      <trkpt lat="45.19579" lon="5.1201">
        <ele>350.59799194336</ele>
        <time>2009-11-11T14:51:47Z</time>
      </trkpt>
      <trkpt lat="45.19587" lon="5.11996">
        <ele>350.85299682617</ele>
        <time>2009-11-11T14:51:49Z</time>
      </trkpt>
      <trkpt lat="45.19597" lon="5.11973">
        <ele>350.65399169922</ele>
        <time>2009-11-11T14:51:52Z</time>
      </trkpt>
      <trkpt lat="45.19601" lon="5.11926">
        <ele>351.51098632812</ele>
        <time>2009-11-11T14:51:57Z</time>
      </trkpt>
      <trkpt lat="45.19596" lon="5.11854">
        <ele>352.69900512695</ele>
        <time>2009-11-11T14:52:05Z</time>
      </trkpt>
      <trkpt lat="45.1959" lon="5.11788">
        <ele>354.22500610352</ele>
        <time>2009-11-11T14:52:13Z</time>
      </trkpt>
      <trkpt lat="45.19587" lon="5.11758">
        <ele>355.33200073242</ele>
        <time>2009-11-11T14:52:17Z</time>
      </trkpt>
      <trkpt lat="45.19587" lon="5.11735">
        <ele>355.9580078125</ele>
        <time>2009-11-11T14:52:22Z</time>
      </trkpt>
      <trkpt lat="45.19587" lon="5.11731">
        <ele>356.15600585938</ele>
        <time>2009-11-11T14:52:24Z</time>
      </trkpt>
      <trkpt lat="45.19579" lon="5.1172">
        <ele>355.95199584961</ele>
        <time>2009-11-11T14:52:29Z</time>
      </trkpt>
      <trkpt lat="45.19554" lon="5.11699">
        <ele>355.76300048828</ele>
        <time>2009-11-11T14:52:39Z</time>
      </trkpt>
      <trkpt lat="45.19536" lon="5.11685">
        <ele>355.35998535156</ele>
        <time>2009-11-11T14:52:43Z</time>
      </trkpt>
      <trkpt lat="45.19527" lon="5.11675">
        <ele>355.07299804688</ele>
        <time>2009-11-11T14:52:45Z</time>
      </trkpt>
      <trkpt lat="45.19505" lon="5.11633">
        <ele>354.70901489258</ele>
        <time>2009-11-11T14:52:51Z</time>
      </trkpt>
      <trkpt lat="45.19486" lon="5.11573">
        <ele>354.52600097656</ele>
        <time>2009-11-11T14:52:57Z</time>
      </trkpt>
      <trkpt lat="45.19466" lon="5.11503">
        <ele>354.05899047852</ele>
        <time>2009-11-11T14:53:03Z</time>
      </trkpt>
      <trkpt lat="45.19439" lon="5.11412">
        <ele>353.17300415039</ele>
        <time>2009-11-11T14:53:10Z</time>
      </trkpt>
      <trkpt lat="45.19419" lon="5.11345">
        <ele>352.52499389648</ele>
        <time>2009-11-11T14:53:15Z</time>
      </trkpt>
      <trkpt lat="45.19398" lon="5.11278">
        <ele>352.68099975586</ele>
        <time>2009-11-11T14:53:20Z</time>
      </trkpt>
      <trkpt lat="45.1937" lon="5.11179">
        <ele>349.62200927734</ele>
        <time>2009-11-11T14:53:27Z</time>
      </trkpt>
      <trkpt lat="45.19331" lon="5.11048">
        <ele>345.98199462891</ele>
        <time>2009-11-11T14:53:36Z</time>
      </trkpt>
      <trkpt lat="45.19284" lon="5.10886">
        <ele>343.06100463867</ele>
        <time>2009-11-11T14:53:47Z</time>
      </trkpt>
      <trkpt lat="45.19247" lon="5.1075">
        <ele>340.06399536133</ele>
        <time>2009-11-11T14:53:56Z</time>
      </trkpt>
      <trkpt lat="45.19213" lon="5.10624">
        <ele>338.53298950195</ele>
        <time>2009-11-11T14:54:04Z</time>
      </trkpt>
      <trkpt lat="45.19164" lon="5.10449">
        <ele>336.49499511719</ele>
        <time>2009-11-11T14:54:15Z</time>
      </trkpt>
      <trkpt lat="45.19123" lon="5.10295">
        <ele>334.35299682617</ele>
        <time>2009-11-11T14:54:25Z</time>
      </trkpt>
      <trkpt lat="45.19091" lon="5.10181">
        <ele>332.64401245117</ele>
        <time>2009-11-11T14:54:33Z</time>
      </trkpt>
      <trkpt lat="45.1905" lon="5.10032">
        <ele>331.59201049805</ele>
        <time>2009-11-11T14:54:44Z</time>
      </trkpt>
      <trkpt lat="45.1902" lon="5.09927">
        <ele>330.92498779297</ele>
        <time>2009-11-11T14:54:51Z</time>
      </trkpt>
      <trkpt lat="45.18985" lon="5.09801">
        <ele>329.00799560547</ele>
        <time>2009-11-11T14:54:59Z</time>
      </trkpt>
      <trkpt lat="45.18948" lon="5.09674">
        <ele>329.04598999023</ele>
        <time>2009-11-11T14:55:07Z</time>
      </trkpt>
      <trkpt lat="45.18914" lon="5.09572">
        <ele>327.79098510742</ele>
        <time>2009-11-11T14:55:14Z</time>
      </trkpt>
      <trkpt lat="45.18877" lon="5.09463">
        <ele>327.45700073242</ele>
        <time>2009-11-11T14:55:22Z</time>
      </trkpt>
      <trkpt lat="45.18841" lon="5.09353">
        <ele>325.6369934082</ele>
        <time>2009-11-11T14:55:30Z</time>
      </trkpt>
      <trkpt lat="45.18804" lon="5.09243">
        <ele>324.22698974609</ele>
        <time>2009-11-11T14:55:38Z</time>
      </trkpt>
      <trkpt lat="45.18777" lon="5.09161">
        <ele>323.8450012207</ele>
        <time>2009-11-11T14:55:44Z</time>
      </trkpt>
      <trkpt lat="45.18745" lon="5.09066">
        <ele>322.43301391602</ele>
        <time>2009-11-11T14:55:51Z</time>
      </trkpt>
      <trkpt lat="45.1871" lon="5.08956">
        <ele>320.73599243164</ele>
        <time>2009-11-11T14:55:59Z</time>
      </trkpt>
      <trkpt lat="45.18667" lon="5.08829">
        <ele>318.99099731445</ele>
        <time>2009-11-11T14:56:08Z</time>
      </trkpt>
      <trkpt lat="45.18628" lon="5.08714">
        <ele>317.14099121094</ele>
        <time>2009-11-11T14:56:16Z</time>
      </trkpt>
      <trkpt lat="45.18594" lon="5.0865">
        <ele>316.90600585938</ele>
        <time>2009-11-11T14:56:21Z</time>
      </trkpt>
      <trkpt lat="45.18543" lon="5.08579">
        <ele>316.98699951172</ele>
        <time>2009-11-11T14:56:27Z</time>
      </trkpt>
      <trkpt lat="45.1846" lon="5.08462">
        <ele>314.22100830078</ele>
        <time>2009-11-11T14:56:37Z</time>
      </trkpt>
      <trkpt lat="45.18394" lon="5.0837">
        <ele>312.00698852539</ele>
        <time>2009-11-11T14:56:45Z</time>
      </trkpt>
      <trkpt lat="45.18361" lon="5.08324">
        <ele>310.26400756836</ele>
        <time>2009-11-11T14:56:49Z</time>
      </trkpt>
      <trkpt lat="45.18269" lon="5.08194">
        <ele>307.95401000977</ele>
        <time>2009-11-11T14:57:00Z</time>
      </trkpt>
      <trkpt lat="45.18206" lon="5.08107">
        <ele>306.08999633789</ele>
        <time>2009-11-11T14:57:07Z</time>
      </trkpt>
      <trkpt lat="45.18142" lon="5.08019">
        <ele>304.47399902344</ele>
        <time>2009-11-11T14:57:14Z</time>
      </trkpt>
      <trkpt lat="45.18069" lon="5.07915">
        <ele>302.70599365234</ele>
        <time>2009-11-11T14:57:22Z</time>
      </trkpt>
      <trkpt lat="45.17989" lon="5.07802">
        <ele>301.27600097656</ele>
        <time>2009-11-11T14:57:31Z</time>
      </trkpt>
      <trkpt lat="45.17928" lon="5.07716">
        <ele>300.19500732422</ele>
        <time>2009-11-11T14:57:38Z</time>
      </trkpt>
      <trkpt lat="45.17873" lon="5.07641">
        <ele>299.97900390625</ele>
        <time>2009-11-11T14:57:44Z</time>
      </trkpt>
      <trkpt lat="45.17822" lon="5.07567">
        <ele>297.94100952148</ele>
        <time>2009-11-11T14:57:50Z</time>
      </trkpt>
      <trkpt lat="45.17729" lon="5.07437">
        <ele>295.96099853516</ele>
        <time>2009-11-11T14:58:01Z</time>
      </trkpt>
      <trkpt lat="45.17684" lon="5.07373">
        <ele>295.60400390625</ele>
        <time>2009-11-11T14:58:07Z</time>
      </trkpt>
      <trkpt lat="45.17651" lon="5.07326">
        <ele>295.13598632812</ele>
        <time>2009-11-11T14:58:12Z</time>
      </trkpt>
      <trkpt lat="45.17609" lon="5.07267">
        <ele>294.94500732422</ele>
        <time>2009-11-11T14:58:19Z</time>
      </trkpt>
      <trkpt lat="45.17578" lon="5.07225">
        <ele>294.67001342773</ele>
        <time>2009-11-11T14:58:25Z</time>
      </trkpt>
      <trkpt lat="45.17556" lon="5.07193">
        <ele>294.40899658203</ele>
        <time>2009-11-11T14:58:30Z</time>
      </trkpt>
      <trkpt lat="45.17525" lon="5.07147">
        <ele>294.27301025391</ele>
        <time>2009-11-11T14:58:38Z</time>
      </trkpt>
      <trkpt lat="45.17497" lon="5.07107">
        <ele>293.65600585938</ele>
        <time>2009-11-11T14:58:46Z</time>
      </trkpt>
      <trkpt lat="45.1748" lon="5.07084">
        <ele>293.65399169922</ele>
        <time>2009-11-11T14:58:51Z</time>
      </trkpt>
      <trkpt lat="45.17477" lon="5.07079">
        <ele>293.51098632812</ele>
        <time>2009-11-11T14:58:52Z</time>
      </trkpt>
      <trkpt lat="45.17458" lon="5.07061">
        <ele>293.17401123047</ele>
        <time>2009-11-11T14:58:57Z</time>
      </trkpt>
      <trkpt lat="45.17425" lon="5.07042">
        <ele>292.76599121094</ele>
        <time>2009-11-11T14:59:05Z</time>
      </trkpt>
      <trkpt lat="45.17395" lon="5.07021">
        <ele>291.79598999023</ele>
        <time>2009-11-11T14:59:12Z</time>
      </trkpt>
      <trkpt lat="45.17382" lon="5.07012">
        <ele>291.25698852539</ele>
        <time>2009-11-11T14:59:15Z</time>
      </trkpt>
      <trkpt lat="45.17364" lon="5.07005">
        <ele>290.76501464844</ele>
        <time>2009-11-11T14:59:19Z</time>
      </trkpt>
      <trkpt lat="45.1733" lon="5.06997">
        <ele>290.77600097656</ele>
        <time>2009-11-11T14:59:27Z</time>
      </trkpt>
      <trkpt lat="45.1731" lon="5.06989">
        <ele>290.78698730469</ele>
        <time>2009-11-11T14:59:33Z</time>
      </trkpt>
      <trkpt lat="45.17282" lon="5.06974">
        <ele>289.76998901367</ele>
        <time>2009-11-11T14:59:40Z</time>
      </trkpt>
      <trkpt lat="45.17255" lon="5.06957">
        <ele>289.24600219727</ele>
        <time>2009-11-11T14:59:46Z</time>
      </trkpt>
      <trkpt lat="45.17249" lon="5.06954">
        <ele>289.09298706055</ele>
        <time>2009-11-11T14:59:47Z</time>
      </trkpt>
      <trkpt lat="45.1721" lon="5.06945">
        <ele>288.35699462891</ele>
        <time>2009-11-11T14:59:54Z</time>
      </trkpt>
      <trkpt lat="45.17187" lon="5.06936">
        <ele>287.67599487305</ele>
        <time>2009-11-11T14:59:58Z</time>
      </trkpt>
      <trkpt lat="45.17146" lon="5.06902">
        <ele>287.25100708008</ele>
        <time>2009-11-11T15:00:06Z</time>
      </trkpt>
      <trkpt lat="45.17122" lon="5.06878">
        <ele>286.90600585938</ele>
        <time>2009-11-11T15:00:11Z</time>
      </trkpt>
      <trkpt lat="45.17083" lon="5.06838">
        <ele>286.25299072266</ele>
        <time>2009-11-11T15:00:19Z</time>
      </trkpt>
      <trkpt lat="45.1704" lon="5.06795">
        <ele>285.49200439453</ele>
        <time>2009-11-11T15:00:28Z</time>
      </trkpt>
      <trkpt lat="45.17007" lon="5.0676">
        <ele>284.91299438477</ele>
        <time>2009-11-11T15:00:35Z</time>
      </trkpt>
      <trkpt lat="45.16977" lon="5.06729">
        <ele>284.30099487305</ele>
        <time>2009-11-11T15:00:41Z</time>
      </trkpt>
      <trkpt lat="45.16926" lon="5.06679">
        <ele>283.80700683594</ele>
        <time>2009-11-11T15:00:51Z</time>
      </trkpt>
      <trkpt lat="45.16888" lon="5.0664">
        <ele>283.76599121094</ele>
        <time>2009-11-11T15:00:59Z</time>
      </trkpt>
      <trkpt lat="45.16843" lon="5.06594">
        <ele>283.79699707031</ele>
        <time>2009-11-11T15:01:08Z</time>
      </trkpt>
      <trkpt lat="45.16796" lon="5.06546">
        <ele>283.27099609375</ele>
        <time>2009-11-11T15:01:17Z</time>
      </trkpt>
      <trkpt lat="45.16764" lon="5.06502">
        <ele>283.57998657227</ele>
        <time>2009-11-11T15:01:24Z</time>
      </trkpt>
      <trkpt lat="45.16744" lon="5.06456">
        <ele>284.05200195312</ele>
        <time>2009-11-11T15:01:30Z</time>
      </trkpt>
      <trkpt lat="45.1673" lon="5.06396">
        <ele>285.03201293945</ele>
        <time>2009-11-11T15:01:37Z</time>
      </trkpt>
      <trkpt lat="45.16715" lon="5.06314">
        <ele>285.47100830078</ele>
        <time>2009-11-11T15:01:46Z</time>
      </trkpt>
      <trkpt lat="45.16701" lon="5.06242">
        <ele>286.47198486328</ele>
        <time>2009-11-11T15:01:54Z</time>
      </trkpt>
      <trkpt lat="45.16692" lon="5.06198">
        <ele>286.98400878906</ele>
        <time>2009-11-11T15:01:59Z</time>
      </trkpt>
      <trkpt lat="45.16676" lon="5.06111">
        <ele>288.64999389648</ele>
        <time>2009-11-11T15:02:09Z</time>
      </trkpt>
      <trkpt lat="45.16662" lon="5.06043">
        <ele>289.54699707031</ele>
        <time>2009-11-11T15:02:17Z</time>
      </trkpt>
      <trkpt lat="45.16645" lon="5.05993">
        <ele>289.57901000977</ele>
        <time>2009-11-11T15:02:23Z</time>
      </trkpt>
      <trkpt lat="45.16618" lon="5.0592">
        <ele>287.84100341797</ele>
        <time>2009-11-11T15:02:31Z</time>
      </trkpt>
      <trkpt lat="45.16581" lon="5.05818">
        <ele>285.16299438477</ele>
        <time>2009-11-11T15:02:41Z</time>
      </trkpt>
      <trkpt lat="45.16541" lon="5.05711">
        <ele>282.8030090332</ele>
        <time>2009-11-11T15:02:51Z</time>
      </trkpt>
      <trkpt lat="45.16504" lon="5.05628">
        <ele>281.06900024414</ele>
        <time>2009-11-11T15:02:59Z</time>
      </trkpt>
      <trkpt lat="45.16463" lon="5.05549">
        <ele>279.50900268555</ele>
        <time>2009-11-11T15:03:07Z</time>
      </trkpt>
      <trkpt lat="45.16418" lon="5.05467">
        <ele>278.00201416016</ele>
        <time>2009-11-11T15:03:15Z</time>
      </trkpt>
      <trkpt lat="45.16373" lon="5.05383">
        <ele>275.87701416016</ele>
        <time>2009-11-11T15:03:23Z</time>
      </trkpt>
      <trkpt lat="45.1632" lon="5.0529">
        <ele>273.41000366211</ele>
        <time>2009-11-11T15:03:32Z</time>
      </trkpt>
      <trkpt lat="45.16255" lon="5.05177">
        <ele>271.15701293945</ele>
        <time>2009-11-11T15:03:43Z</time>
      </trkpt>
      <trkpt lat="45.16228" lon="5.05107">
        <ele>270.33898925781</ele>
        <time>2009-11-11T15:03:49Z</time>
      </trkpt>
      <trkpt lat="45.16195" lon="5.05001">
        <ele>268.88000488281</ele>
        <time>2009-11-11T15:03:58Z</time>
      </trkpt>
      <trkpt lat="45.16164" lon="5.04882">
        <ele>267.49899291992</ele>
        <time>2009-11-11T15:04:08Z</time>
      </trkpt>
      <trkpt lat="45.16159" lon="5.0481">
        <ele>265.98300170898</ele>
        <time>2009-11-11T15:04:14Z</time>
      </trkpt>
      <trkpt lat="45.16162" lon="5.04706">
        <ele>265.56399536133</ele>
        <time>2009-11-11T15:04:23Z</time>
      </trkpt>
      <trkpt lat="45.16169" lon="5.0457">
        <ele>265.13299560547</ele>
        <time>2009-11-11T15:04:35Z</time>
      </trkpt>
      <trkpt lat="45.16182" lon="5.04507">
        <ele>265.82699584961</ele>
        <time>2009-11-11T15:04:41Z</time>
      </trkpt>
      <trkpt lat="45.16211" lon="5.04398">
        <ele>265.1669921875</ele>
        <time>2009-11-11T15:04:52Z</time>
      </trkpt>
      <trkpt lat="45.16237" lon="5.04288">
        <ele>263.79501342773</ele>
        <time>2009-11-11T15:05:03Z</time>
      </trkpt>
      <trkpt lat="45.16235" lon="5.04235">
        <ele>262.74499511719</ele>
        <time>2009-11-11T15:05:08Z</time>
      </trkpt>
      <trkpt lat="45.16217" lon="5.04138">
        <ele>264.16500854492</ele>
        <time>2009-11-11T15:05:17Z</time>
      </trkpt>
      <trkpt lat="45.16195" lon="5.04023">
        <ele>262.27301025391</ele>
        <time>2009-11-11T15:05:28Z</time>
      </trkpt>
      <trkpt lat="45.1618" lon="5.03945">
        <ele>262.71099853516</ele>
        <time>2009-11-11T15:05:36Z</time>
      </trkpt>
      <trkpt lat="45.16177" lon="5.03937">
        <ele>262.8450012207</ele>
        <time>2009-11-11T15:05:37Z</time>
      </trkpt>
      <trkpt lat="45.16177" lon="5.03906">
        <ele>262.87899780273</ele>
        <time>2009-11-11T15:05:41Z</time>
      </trkpt>
      <trkpt lat="45.16182" lon="5.03892">
        <ele>263.15200805664</ele>
        <time>2009-11-11T15:05:43Z</time>
      </trkpt>
      <trkpt lat="45.16194" lon="5.03865">
        <ele>264.45001220703</ele>
        <time>2009-11-11T15:05:47Z</time>
      </trkpt>
      <trkpt lat="45.16196" lon="5.03823">
        <ele>262.76400756836</ele>
        <time>2009-11-11T15:05:52Z</time>
      </trkpt>
      <trkpt lat="45.16196" lon="5.03814">
        <ele>262.62399291992</ele>
        <time>2009-11-11T15:05:53Z</time>
      </trkpt>
      <trkpt lat="45.16196" lon="5.03714">
        <ele>263.29299926758</ele>
        <time>2009-11-11T15:06:04Z</time>
      </trkpt>
      <trkpt lat="45.16193" lon="5.03619">
        <ele>262.51901245117</ele>
        <time>2009-11-11T15:06:14Z</time>
      </trkpt>
      <trkpt lat="45.16184" lon="5.0353">
        <ele>262.34201049805</ele>
        <time>2009-11-11T15:06:23Z</time>
      </trkpt>
      <trkpt lat="45.16168" lon="5.03453">
        <ele>261.89700317383</ele>
        <time>2009-11-11T15:06:31Z</time>
      </trkpt>
      <trkpt lat="45.16147" lon="5.03389">
        <ele>262.28799438477</ele>
        <time>2009-11-11T15:06:38Z</time>
      </trkpt>
      <trkpt lat="45.16116" lon="5.03332">
        <ele>262.42199707031</ele>
        <time>2009-11-11T15:06:45Z</time>
      </trkpt>
      <trkpt lat="45.16064" lon="5.03244">
        <ele>262.43301391602</ele>
        <time>2009-11-11T15:06:56Z</time>
      </trkpt>
      <trkpt lat="45.16033" lon="5.0318">
        <ele>262.20599365234</ele>
        <time>2009-11-11T15:07:03Z</time>
      </trkpt>
      <trkpt lat="45.15994" lon="5.03111">
        <ele>261.15399169922</ele>
        <time>2009-11-11T15:07:11Z</time>
      </trkpt>
      <trkpt lat="45.15946" lon="5.03044">
        <ele>260.05200195312</ele>
        <time>2009-11-11T15:07:19Z</time>
      </trkpt>
      <trkpt lat="45.15885" lon="5.0296">
        <ele>258.68600463867</ele>
        <time>2009-11-11T15:07:29Z</time>
      </trkpt>
      <trkpt lat="45.15846" lon="5.0291">
        <ele>257.65899658203</ele>
        <time>2009-11-11T15:07:35Z</time>
      </trkpt>
      <trkpt lat="45.15778" lon="5.02843">
        <ele>255.83000183106</ele>
        <time>2009-11-11T15:07:44Z</time>
      </trkpt>
      <trkpt lat="45.15687" lon="5.02756">
        <ele>254.45399475098</ele>
        <time>2009-11-11T15:07:56Z</time>
      </trkpt>
      <trkpt lat="45.15622" lon="5.0269">
        <ele>253.32000732422</ele>
        <time>2009-11-11T15:08:05Z</time>
      </trkpt>
      <trkpt lat="45.15558" lon="5.02613">
        <ele>251.72599792481</ele>
        <time>2009-11-11T15:08:14Z</time>
      </trkpt>
      <trkpt lat="45.15491" lon="5.0252">
        <ele>250.6309967041</ele>
        <time>2009-11-11T15:08:24Z</time>
      </trkpt>
      <trkpt lat="45.1544" lon="5.0245">
        <ele>249.82699584961</ele>
        <time>2009-11-11T15:08:32Z</time>
      </trkpt>
      <trkpt lat="45.15394" lon="5.02392">
        <ele>248.78999328613</ele>
        <time>2009-11-11T15:08:39Z</time>
      </trkpt>
      <trkpt lat="45.15327" lon="5.02324">
        <ele>248.77400207519</ele>
        <time>2009-11-11T15:08:48Z</time>
      </trkpt>
      <trkpt lat="45.15298" lon="5.02282">
        <ele>249.24800109863</ele>
        <time>2009-11-11T15:08:53Z</time>
      </trkpt>
      <trkpt lat="45.15249" lon="5.02198">
        <ele>248.82200622559</ele>
        <time>2009-11-11T15:09:03Z</time>
      </trkpt>
      <trkpt lat="45.15224" lon="5.0215">
        <ele>248.44000244141</ele>
        <time>2009-11-11T15:09:09Z</time>
      </trkpt>
      <trkpt lat="45.15201" lon="5.02113">
        <ele>248.57099914551</ele>
        <time>2009-11-11T15:09:14Z</time>
      </trkpt>
      <trkpt lat="45.15192" lon="5.021">
        <ele>248.62699890137</ele>
        <time>2009-11-11T15:09:16Z</time>
      </trkpt>
      <trkpt lat="45.15179" lon="5.0207">
        <ele>248.47099304199</ele>
        <time>2009-11-11T15:09:20Z</time>
      </trkpt>
      <trkpt lat="45.15165" lon="5.02053">
        <ele>248.65600585938</ele>
        <time>2009-11-11T15:09:23Z</time>
      </trkpt>
      <trkpt lat="45.15137" lon="5.02013">
        <ele>248.26499938965</ele>
        <time>2009-11-11T15:09:29Z</time>
      </trkpt>
      <trkpt lat="45.15084" lon="5.01937">
        <ele>248.17999267578</ele>
        <time>2009-11-11T15:09:40Z</time>
      </trkpt>
      <trkpt lat="45.15039" lon="5.01875">
        <ele>247.87399291992</ele>
        <time>2009-11-11T15:09:49Z</time>
      </trkpt>
      <trkpt lat="45.14999" lon="5.01818">
        <ele>247.68899536133</ele>
        <time>2009-11-11T15:09:57Z</time>
      </trkpt>
      <trkpt lat="45.14968" lon="5.01773">
        <ele>247.35200500488</ele>
        <time>2009-11-11T15:10:03Z</time>
      </trkpt>
      <trkpt lat="45.14952" lon="5.01752">
        <ele>246.84399414062</ele>
        <time>2009-11-11T15:10:06Z</time>
      </trkpt>
      <trkpt lat="45.14906" lon="5.01684">
        <ele>246.19999694824</ele>
        <time>2009-11-11T15:10:15Z</time>
      </trkpt>
      <trkpt lat="45.14864" lon="5.0163">
        <ele>246.71000671387</ele>
        <time>2009-11-11T15:10:23Z</time>
      </trkpt>
      <trkpt lat="45.14834" lon="5.01596">
        <ele>247.76100158691</ele>
        <time>2009-11-11T15:10:29Z</time>
      </trkpt>
      <trkpt lat="45.14807" lon="5.01567">
        <ele>247.44400024414</ele>
        <time>2009-11-11T15:10:35Z</time>
      </trkpt>
      <trkpt lat="45.14778" lon="5.01538">
        <ele>245.97799682617</ele>
        <time>2009-11-11T15:10:41Z</time>
      </trkpt>
      <trkpt lat="45.14754" lon="5.01515">
        <ele>244.53700256348</ele>
        <time>2009-11-11T15:10:45Z</time>
      </trkpt>
      <trkpt lat="45.14742" lon="5.01501">
        <ele>243.58500671387</ele>
        <time>2009-11-11T15:10:47Z</time>
      </trkpt>
      <trkpt lat="45.14711" lon="5.01435">
        <ele>241.56300354004</ele>
        <time>2009-11-11T15:10:54Z</time>
      </trkpt>
      <trkpt lat="45.1469" lon="5.01373">
        <ele>240.64100646973</ele>
        <time>2009-11-11T15:11:00Z</time>
      </trkpt>
      <trkpt lat="45.14669" lon="5.01312">
        <ele>240.30099487305</ele>
        <time>2009-11-11T15:11:06Z</time>
      </trkpt>
      <trkpt lat="45.14646" lon="5.01255">
        <ele>240.62100219727</ele>
        <time>2009-11-11T15:11:12Z</time>
      </trkpt>
      <trkpt lat="45.14612" lon="5.01212">
        <ele>240.48899841309</ele>
        <time>2009-11-11T15:11:19Z</time>
      </trkpt>
      <trkpt lat="45.14594" lon="5.01192">
        <ele>241.73699951172</ele>
        <time>2009-11-11T15:11:24Z</time>
      </trkpt>
      <trkpt lat="45.1458" lon="5.01171">
        <ele>243.51600646973</ele>
        <time>2009-11-11T15:11:30Z</time>
      </trkpt>
      <trkpt lat="45.14575" lon="5.01155">
        <ele>244.97700500488</ele>
        <time>2009-11-11T15:11:34Z</time>
      </trkpt>
      <trkpt lat="45.14571" lon="5.01138">
        <ele>246.22099304199</ele>
        <time>2009-11-11T15:11:38Z</time>
      </trkpt>
      <trkpt lat="45.14565" lon="5.01119">
        <ele>248.38200378418</ele>
        <time>2009-11-11T15:11:43Z</time>
      </trkpt>
      <trkpt lat="45.14557" lon="5.01105">
        <ele>249.18899536133</ele>
        <time>2009-11-11T15:11:47Z</time>
      </trkpt>
      <trkpt lat="45.14541" lon="5.01082">
        <ele>251.37300109863</ele>
        <time>2009-11-11T15:11:54Z</time>
      </trkpt>
      <trkpt lat="45.1453" lon="5.01063">
        <ele>252.20100402832</ele>
        <time>2009-11-11T15:11:59Z</time>
      </trkpt>
      <trkpt lat="45.14516" lon="5.01037">
        <ele>254.22500610352</ele>
        <time>2009-11-11T15:12:06Z</time>
      </trkpt>
      <trkpt lat="45.14506" lon="5.01021">
        <ele>255.6130065918</ele>
        <time>2009-11-11T15:12:11Z</time>
      </trkpt>
      <trkpt lat="45.14492" lon="5.01002">
        <ele>257.42401123047</ele>
        <time>2009-11-11T15:12:17Z</time>
      </trkpt>
      <trkpt lat="45.14477" lon="5.00981">
        <ele>259.76901245117</ele>
        <time>2009-11-11T15:12:24Z</time>
      </trkpt>
      <trkpt lat="45.14463" lon="5.0096">
        <ele>261.42001342773</ele>
        <time>2009-11-11T15:12:31Z</time>
      </trkpt>
      <trkpt lat="45.14449" lon="5.00945">
        <ele>262.9580078125</ele>
        <time>2009-11-11T15:12:37Z</time>
      </trkpt>
      <trkpt lat="45.1443" lon="5.00935">
        <ele>264.38500976562</ele>
        <time>2009-11-11T15:12:43Z</time>
      </trkpt>
      <trkpt lat="45.14423" lon="5.00917">
        <ele>265.92700195312</ele>
        <time>2009-11-11T15:12:47Z</time>
      </trkpt>
      <trkpt lat="45.14433" lon="5.00904">
        <ele>267.85198974609</ele>
        <time>2009-11-11T15:12:51Z</time>
      </trkpt>
      <trkpt lat="45.14439" lon="5.00907">
        <ele>268.43301391602</ele>
        <time>2009-11-11T15:12:53Z</time>
      </trkpt>
      <trkpt lat="45.14457" lon="5.00933">
        <ele>270.38598632812</ele>
        <time>2009-11-11T15:13:00Z</time>
      </trkpt>
      <trkpt lat="45.14476" lon="5.00947">
        <ele>272.08599853516</ele>
        <time>2009-11-11T15:13:06Z</time>
      </trkpt>
      <trkpt lat="45.14502" lon="5.00963">
        <ele>274.48901367188</ele>
        <time>2009-11-11T15:13:15Z</time>
      </trkpt>
      <trkpt lat="45.14524" lon="5.00977">
        <ele>277.14199829102</ele>
        <time>2009-11-11T15:13:24Z</time>
      </trkpt>
      <trkpt lat="45.14547" lon="5.00996">
        <ele>279.79000854492</ele>
        <time>2009-11-11T15:13:33Z</time>
      </trkpt>
      <trkpt lat="45.14571" lon="5.01022">
        <ele>282.81600952148</ele>
        <time>2009-11-11T15:13:43Z</time>
      </trkpt>
      <trkpt lat="45.14595" lon="5.01043">
        <ele>285.34100341797</ele>
        <time>2009-11-11T15:13:53Z</time>
      </trkpt>
      <trkpt lat="45.14611" lon="5.01054">
        <ele>287.23599243164</ele>
        <time>2009-11-11T15:13:59Z</time>
      </trkpt>
      <trkpt lat="45.14631" lon="5.01067">
        <ele>288.72799682617</ele>
        <time>2009-11-11T15:14:06Z</time>
      </trkpt>
      <trkpt lat="45.14649" lon="5.01072">
        <ele>290.71099853516</ele>
        <time>2009-11-11T15:14:12Z</time>
      </trkpt>
      <trkpt lat="45.14663" lon="5.01069">
        <ele>292.53601074219</ele>
        <time>2009-11-11T15:14:17Z</time>
      </trkpt>
      <trkpt lat="45.14681" lon="5.01062">
        <ele>294.38000488281</ele>
        <time>2009-11-11T15:14:22Z</time>
      </trkpt>
      <trkpt lat="45.14701" lon="5.01058">
        <ele>296.53399658203</ele>
        <time>2009-11-11T15:14:28Z</time>
      </trkpt>
      <trkpt lat="45.14729" lon="5.01055">
        <ele>298.54901123047</ele>
        <time>2009-11-11T15:14:36Z</time>
      </trkpt>
      <trkpt lat="45.14759" lon="5.01051">
        <ele>300.78298950195</ele>
        <time>2009-11-11T15:14:45Z</time>
      </trkpt>
      <trkpt lat="45.14776" lon="5.01039">
        <ele>301.91000366211</ele>
        <time>2009-11-11T15:14:51Z</time>
      </trkpt>
      <trkpt lat="45.14785" lon="5.01016">
        <ele>303.64099121094</ele>
        <time>2009-11-11T15:14:57Z</time>
      </trkpt>
      <trkpt lat="45.14785" lon="5.00995">
        <ele>304.85299682617</ele>
        <time>2009-11-11T15:15:02Z</time>
      </trkpt>
      <trkpt lat="45.14783" lon="5.00963">
        <ele>306.60000610352</ele>
        <time>2009-11-11T15:15:08Z</time>
      </trkpt>
      <trkpt lat="45.14784" lon="5.0093">
        <ele>308.08200073242</ele>
        <time>2009-11-11T15:15:14Z</time>
      </trkpt>
      <trkpt lat="45.14787" lon="5.00903">
        <ele>308.85900878906</ele>
        <time>2009-11-11T15:15:19Z</time>
      </trkpt>
      <trkpt lat="45.14795" lon="5.00881">
        <ele>310.11898803711</ele>
        <time>2009-11-11T15:15:23Z</time>
      </trkpt>
      <trkpt lat="45.14811" lon="5.00864">
        <ele>311.24600219727</ele>
        <time>2009-11-11T15:15:28Z</time>
      </trkpt>
      <trkpt lat="45.14843" lon="5.00843">
        <ele>312.83200073242</ele>
        <time>2009-11-11T15:15:37Z</time>
      </trkpt>
      <trkpt lat="45.14861" lon="5.00821">
        <ele>314.45999145508</ele>
        <time>2009-11-11T15:15:43Z</time>
      </trkpt>
      <trkpt lat="45.14864" lon="5.00798">
        <ele>315.50299072266</ele>
        <time>2009-11-11T15:15:47Z</time>
      </trkpt>
      <trkpt lat="45.14859" lon="5.00775">
        <ele>316.56600952148</ele>
        <time>2009-11-11T15:15:51Z</time>
      </trkpt>
      <trkpt lat="45.14837" lon="5.0072">
        <ele>318.95498657227</ele>
        <time>2009-11-11T15:16:01Z</time>
      </trkpt>
      <trkpt lat="45.14811" lon="5.00681">
        <ele>320.59899902344</ele>
        <time>2009-11-11T15:16:09Z</time>
      </trkpt>
      <trkpt lat="45.14793" lon="5.00652">
        <ele>322.10900878906</ele>
        <time>2009-11-11T15:16:15Z</time>
      </trkpt>
      <trkpt lat="45.1478" lon="5.00614">
        <ele>323.4460144043</ele>
        <time>2009-11-11T15:16:22Z</time>
      </trkpt>
      <trkpt lat="45.14775" lon="5.00569">
        <ele>325.85101318359</ele>
        <time>2009-11-11T15:16:30Z</time>
      </trkpt>
      <trkpt lat="45.14782" lon="5.00525">
        <ele>328.45599365234</ele>
        <time>2009-11-11T15:16:38Z</time>
      </trkpt>
      <trkpt lat="45.1479" lon="5.00486">
        <ele>331.23999023438</ele>
        <time>2009-11-11T15:16:45Z</time>
      </trkpt>
      <trkpt lat="45.14793" lon="5.0045">
        <ele>332.91500854492</ele>
        <time>2009-11-11T15:16:51Z</time>
      </trkpt>
      <trkpt lat="45.14789" lon="5.00408">
        <ele>334.91000366211</ele>
        <time>2009-11-11T15:16:58Z</time>
      </trkpt>
      <trkpt lat="45.14782" lon="5.00379">
        <ele>336.07699584961</ele>
        <time>2009-11-11T15:17:04Z</time>
      </trkpt>
      <trkpt lat="45.14775" lon="5.00351">
        <ele>335.93899536133</ele>
        <time>2009-11-11T15:17:11Z</time>
      </trkpt>
      <trkpt lat="45.14778" lon="5.00318">
        <ele>334.98199462891</ele>
        <time>2009-11-11T15:17:16Z</time>
      </trkpt>
      <trkpt lat="45.14782" lon="5.00255">
        <ele>335.10800170898</ele>
        <time>2009-11-11T15:17:24Z</time>
      </trkpt>
      <trkpt lat="45.14783" lon="5.00197">
        <ele>335.82998657227</ele>
        <time>2009-11-11T15:17:31Z</time>
      </trkpt>
      <trkpt lat="45.1479" lon="5.00141">
        <ele>336.77200317383</ele>
        <time>2009-11-11T15:17:38Z</time>
      </trkpt>
      <trkpt lat="45.14795" lon="5.00117">
        <ele>336.72198486328</ele>
        <time>2009-11-11T15:17:41Z</time>
      </trkpt>
      <trkpt lat="45.14812" lon="5.00067">
        <ele>334.35800170898</ele>
        <time>2009-11-11T15:17:47Z</time>
      </trkpt>
      <trkpt lat="45.14827" lon="5.00026">
        <ele>332.79901123047</ele>
        <time>2009-11-11T15:17:51Z</time>
      </trkpt>
      <trkpt lat="45.14831" lon="4.99996">
        <ele>331.66400146484</ele>
        <time>2009-11-11T15:17:54Z</time>
      </trkpt>
      <trkpt lat="45.14815" lon="4.99987">
        <ele>328.91101074219</ele>
        <time>2009-11-11T15:17:56Z</time>
      </trkpt>
      <trkpt lat="45.14805" lon="4.99986">
        <ele>326.98498535156</ele>
        <time>2009-11-11T15:17:57Z</time>
      </trkpt>
      <trkpt lat="45.1477" lon="4.99987">
        <ele>322.56900024414</ele>
        <time>2009-11-11T15:18:00Z</time>
      </trkpt>
      <trkpt lat="45.14721" lon="5.00006">
        <ele>317.34399414062</ele>
        <time>2009-11-11T15:18:04Z</time>
      </trkpt>
      <trkpt lat="45.14698" lon="5.0002">
        <ele>314.73300170898</ele>
        <time>2009-11-11T15:18:06Z</time>
      </trkpt>
      <trkpt lat="45.14656" lon="5.00026">
        <ele>312.39898681641</ele>
        <time>2009-11-11T15:18:10Z</time>
      </trkpt>
      <trkpt lat="45.14606" lon="5.00013">
        <ele>311.38000488281</ele>
        <time>2009-11-11T15:18:15Z</time>
      </trkpt>
      <trkpt lat="45.14576" lon="4.99988">
        <ele>310.40301513672</ele>
        <time>2009-11-11T15:18:19Z</time>
      </trkpt>
      <trkpt lat="45.14567" lon="4.9998">
        <ele>310.16500854492</ele>
        <time>2009-11-11T15:18:20Z</time>
      </trkpt>
      <trkpt lat="45.14537" lon="4.9997">
        <ele>310.66101074219</ele>
        <time>2009-11-11T15:18:24Z</time>
      </trkpt>
      <trkpt lat="45.14523" lon="4.99973">
        <ele>310.87298583984</ele>
        <time>2009-11-11T15:18:26Z</time>
      </trkpt>
      <trkpt lat="45.1451" lon="4.99974">
        <ele>311.49499511719</ele>
        <time>2009-11-11T15:18:28Z</time>
      </trkpt>
      <trkpt lat="45.14478" lon="4.99976">
        <ele>311.65100097656</ele>
        <time>2009-11-11T15:18:33Z</time>
      </trkpt>
      <trkpt lat="45.14453" lon="4.99957">
        <ele>308.3869934082</ele>
        <time>2009-11-11T15:18:37Z</time>
      </trkpt>
      <trkpt lat="45.14448" lon="4.99933">
        <ele>305.89498901367</ele>
        <time>2009-11-11T15:18:39Z</time>
      </trkpt>
      <trkpt lat="45.14437" lon="4.9986">
        <ele>299.98498535156</ele>
        <time>2009-11-11T15:18:44Z</time>
      </trkpt>
      <trkpt lat="45.1442" lon="4.9982">
        <ele>296.19799804688</ele>
        <time>2009-11-11T15:18:47Z</time>
      </trkpt>
      <trkpt lat="45.14398" lon="4.99779">
        <ele>292.55200195312</ele>
        <time>2009-11-11T15:18:50Z</time>
      </trkpt>
      <trkpt lat="45.1438" lon="4.9976">
        <ele>290.98999023438</ele>
        <time>2009-11-11T15:18:52Z</time>
      </trkpt>
      <trkpt lat="45.14369" lon="4.99755">
        <ele>290.72698974609</ele>
        <time>2009-11-11T15:18:53Z</time>
      </trkpt>
      <trkpt lat="45.14358" lon="4.99753">
        <ele>290.33999633789</ele>
        <time>2009-11-11T15:18:54Z</time>
      </trkpt>
      <trkpt lat="45.14315" lon="4.99744">
        <ele>288.79000854492</ele>
        <time>2009-11-11T15:18:58Z</time>
      </trkpt>
      <trkpt lat="45.14243" lon="4.99733">
        <ele>285.72698974609</ele>
        <time>2009-11-11T15:19:05Z</time>
      </trkpt>
      <trkpt lat="45.14196" lon="4.99712">
        <ele>283.34399414062</ele>
        <time>2009-11-11T15:19:10Z</time>
      </trkpt>
      <trkpt lat="45.14179" lon="4.99699">
        <ele>281.17300415039</ele>
        <time>2009-11-11T15:19:12Z</time>
      </trkpt>
      <trkpt lat="45.14154" lon="4.99662">
        <ele>276.61599731445</ele>
        <time>2009-11-11T15:19:16Z</time>
      </trkpt>
      <trkpt lat="45.14149" lon="4.99621">
        <ele>273.93099975586</ele>
        <time>2009-11-11T15:19:19Z</time>
      </trkpt>
      <trkpt lat="45.14159" lon="4.99576">
        <ele>270.92300415039</ele>
        <time>2009-11-11T15:19:22Z</time>
      </trkpt>
      <trkpt lat="45.14168" lon="4.99547">
        <ele>269.36700439453</ele>
        <time>2009-11-11T15:19:24Z</time>
      </trkpt>
      <trkpt lat="45.14178" lon="4.99519">
        <ele>268.36199951172</ele>
        <time>2009-11-11T15:19:26Z</time>
      </trkpt>
      <trkpt lat="45.14194" lon="4.99502">
        <ele>268.52099609375</ele>
        <time>2009-11-11T15:19:28Z</time>
      </trkpt>
      <trkpt lat="45.14211" lon="4.99492">
        <ele>269.1369934082</ele>
        <time>2009-11-11T15:19:30Z</time>
      </trkpt>
      <trkpt lat="45.14268" lon="4.99468">
        <ele>270.82998657227</ele>
        <time>2009-11-11T15:19:38Z</time>
      </trkpt>
      <trkpt lat="45.14305" lon="4.99452">
        <ele>270.14599609375</ele>
        <time>2009-11-11T15:19:43Z</time>
      </trkpt>
      <trkpt lat="45.1435" lon="4.9943">
        <ele>267.36898803711</ele>
        <time>2009-11-11T15:19:49Z</time>
      </trkpt>
      <trkpt lat="45.14365" lon="4.99423">
        <ele>266.6669921875</ele>
        <time>2009-11-11T15:19:51Z</time>
      </trkpt>
      <trkpt lat="45.14395" lon="4.99383">
        <ele>264.93399047852</ele>
        <time>2009-11-11T15:19:56Z</time>
      </trkpt>
      <trkpt lat="45.14412" lon="4.99355">
        <ele>263.65600585938</ele>
        <time>2009-11-11T15:19:59Z</time>
      </trkpt>
      <trkpt lat="45.14444" lon="4.99325">
        <ele>260.14599609375</ele>
        <time>2009-11-11T15:20:03Z</time>
      </trkpt>
      <trkpt lat="45.14452" lon="4.99317">
        <ele>259.67001342773</ele>
        <time>2009-11-11T15:20:04Z</time>
      </trkpt>
      <trkpt lat="45.14486" lon="4.99299">
        <ele>256.32501220703</ele>
        <time>2009-11-11T15:20:08Z</time>
      </trkpt>
      <trkpt lat="45.14495" lon="4.99299">
        <ele>256.01800537109</ele>
        <time>2009-11-11T15:20:09Z</time>
      </trkpt>
      <trkpt lat="45.14516" lon="4.99272">
        <ele>251.02799987793</ele>
        <time>2009-11-11T15:20:14Z</time>
      </trkpt>
      <trkpt lat="45.14512" lon="4.99265">
        <ele>251.02799987793</ele>
        <time>2009-11-11T15:20:15Z</time>
      </trkpt>
      <trkpt lat="45.14498" lon="4.99248">
        <ele>248.86700439453</ele>
        <time>2009-11-11T15:20:18Z</time>
      </trkpt>
      <trkpt lat="45.1448" lon="4.99222">
        <ele>249.94099426269</ele>
        <time>2009-11-11T15:20:22Z</time>
      </trkpt>
      <trkpt lat="45.14459" lon="4.99195">
        <ele>252.17300415039</ele>
        <time>2009-11-11T15:20:28Z</time>
      </trkpt>
      <trkpt lat="45.14449" lon="4.99185">
        <ele>253.51600646973</ele>
        <time>2009-11-11T15:20:31Z</time>
      </trkpt>
      <trkpt lat="45.14446" lon="4.99181">
        <ele>253.77200317383</ele>
        <time>2009-11-11T15:20:32Z</time>
      </trkpt>
      <trkpt lat="45.14431" lon="4.99171">
        <ele>255.42500305176</ele>
        <time>2009-11-11T15:20:36Z</time>
      </trkpt>
      <trkpt lat="45.1442" lon="4.99164">
        <ele>256.19000244141</ele>
        <time>2009-11-11T15:20:39Z</time>
      </trkpt>
      <trkpt lat="45.14403" lon="4.99152">
        <ele>257.51501464844</ele>
        <time>2009-11-11T15:20:44Z</time>
      </trkpt>
      <trkpt lat="45.14385" lon="4.99136">
        <ele>259.71099853516</ele>
        <time>2009-11-11T15:20:50Z</time>
      </trkpt>
      <trkpt lat="45.14372" lon="4.99131">
        <ele>261.19100952148</ele>
        <time>2009-11-11T15:20:54Z</time>
      </trkpt>
      <trkpt lat="45.14349" lon="4.99128">
        <ele>264.37200927734</ele>
        <time>2009-11-11T15:21:01Z</time>
      </trkpt>
      <trkpt lat="45.14335" lon="4.99123">
        <ele>266.36599731445</ele>
        <time>2009-11-11T15:21:06Z</time>
      </trkpt>
      <trkpt lat="45.14321" lon="4.99119">
        <ele>266.83499145508</ele>
        <time>2009-11-11T15:21:10Z</time>
      </trkpt>
      <trkpt lat="45.14285" lon="4.9912">
        <ele>268.04501342773</ele>
        <time>2009-11-11T15:21:19Z</time>
      </trkpt>
      <trkpt lat="45.14256" lon="4.99122">
        <ele>268.64199829102</ele>
        <time>2009-11-11T15:21:26Z</time>
      </trkpt>
      <trkpt lat="45.1422" lon="4.99118">
        <ele>269.72601318359</ele>
        <time>2009-11-11T15:21:34Z</time>
      </trkpt>
      <trkpt lat="45.14183" lon="4.99101">
        <ele>270.96798706055</ele>
        <time>2009-11-11T15:21:42Z</time>
      </trkpt>
      <trkpt lat="45.14156" lon="4.99087">
        <ele>271.95199584961</ele>
        <time>2009-11-11T15:21:48Z</time>
      </trkpt>
      <trkpt lat="45.14111" lon="4.99079">
        <ele>272.98999023438</ele>
        <time>2009-11-11T15:21:57Z</time>
      </trkpt>
      <trkpt lat="45.14059" lon="4.99077">
        <ele>273.33599853516</ele>
        <time>2009-11-11T15:22:06Z</time>
      </trkpt>
      <trkpt lat="45.13993" lon="4.99075">
        <ele>273.84600830078</ele>
        <time>2009-11-11T15:22:17Z</time>
      </trkpt>
      <trkpt lat="45.13924" lon="4.99078">
        <ele>274.50900268555</ele>
        <time>2009-11-11T15:22:28Z</time>
      </trkpt>
      <trkpt lat="45.13881" lon="4.99093">
        <ele>274.86700439453</ele>
        <time>2009-11-11T15:22:35Z</time>
      </trkpt>
      <trkpt lat="45.13817" lon="4.99129">
        <ele>275.04000854492</ele>
        <time>2009-11-11T15:22:45Z</time>
      </trkpt>
      <trkpt lat="45.13762" lon="4.99162">
        <ele>276.00799560547</ele>
        <time>2009-11-11T15:22:54Z</time>
      </trkpt>
      <trkpt lat="45.13709" lon="4.99194">
        <ele>276.51300048828</ele>
        <time>2009-11-11T15:23:03Z</time>
      </trkpt>
      <trkpt lat="45.13658" lon="4.99217">
        <ele>276.51998901367</ele>
        <time>2009-11-11T15:23:11Z</time>
      </trkpt>
      <trkpt lat="45.13617" lon="4.9922">
        <ele>276.95999145508</ele>
        <time>2009-11-11T15:23:17Z</time>
      </trkpt>
      <trkpt lat="45.13584" lon="4.99207">
        <ele>276.68499755859</ele>
        <time>2009-11-11T15:23:22Z</time>
      </trkpt>
      <trkpt lat="45.13533" lon="4.99175">
        <ele>276.33898925781</ele>
        <time>2009-11-11T15:23:30Z</time>
      </trkpt>
      <trkpt lat="45.13491" lon="4.9914">
        <ele>275.21798706055</ele>
        <time>2009-11-11T15:23:37Z</time>
      </trkpt>
      <trkpt lat="45.13441" lon="4.99093">
        <ele>273.00201416016</ele>
        <time>2009-11-11T15:23:45Z</time>
      </trkpt>
      <trkpt lat="45.13407" lon="4.99059">
        <ele>270.41598510742</ele>
        <time>2009-11-11T15:23:50Z</time>
      </trkpt>
      <trkpt lat="45.13391" lon="4.99044">
        <ele>269.36499023438</ele>
        <time>2009-11-11T15:23:52Z</time>
      </trkpt>
      <trkpt lat="45.13375" lon="4.9903">
        <ele>268.50100708008</ele>
        <time>2009-11-11T15:23:54Z</time>
      </trkpt>
      <trkpt lat="45.13366" lon="4.99023">
        <ele>267.78601074219</ele>
        <time>2009-11-11T15:23:55Z</time>
      </trkpt>
      <trkpt lat="45.13329" lon="4.98995">
        <ele>265.2619934082</ele>
        <time>2009-11-11T15:23:59Z</time>
      </trkpt>
      <trkpt lat="45.13267" lon="4.98962">
        <ele>261.06201171875</ele>
        <time>2009-11-11T15:24:05Z</time>
      </trkpt>
      <trkpt lat="45.13234" lon="4.98948">
        <ele>259.28799438477</ele>
        <time>2009-11-11T15:24:08Z</time>
      </trkpt>
      <trkpt lat="45.13154" lon="4.98917">
        <ele>254.46200561523</ele>
        <time>2009-11-11T15:24:15Z</time>
      </trkpt>
      <trkpt lat="45.13075" lon="4.98888">
        <ele>251.26400756836</ele>
        <time>2009-11-11T15:24:22Z</time>
      </trkpt>
      <trkpt lat="45.13002" lon="4.98862">
        <ele>249.51100158691</ele>
        <time>2009-11-11T15:24:29Z</time>
      </trkpt>
      <trkpt lat="45.12956" lon="4.98848">
        <ele>247.26499938965</ele>
        <time>2009-11-11T15:24:34Z</time>
      </trkpt>
      <trkpt lat="45.12938" lon="4.98842">
        <ele>246.41499328613</ele>
        <time>2009-11-11T15:24:36Z</time>
      </trkpt>
      <trkpt lat="45.12894" lon="4.9883">
        <ele>245.28999328613</ele>
        <time>2009-11-11T15:24:41Z</time>
      </trkpt>
      <trkpt lat="45.12841" lon="4.98816">
        <ele>243.38800048828</ele>
        <time>2009-11-11T15:24:47Z</time>
      </trkpt>
      <trkpt lat="45.12789" lon="4.98796">
        <ele>240.82400512695</ele>
        <time>2009-11-11T15:24:53Z</time>
      </trkpt>
      <trkpt lat="45.1278" lon="4.98791">
        <ele>239.95899963379</ele>
        <time>2009-11-11T15:24:54Z</time>
      </trkpt>
      <trkpt lat="45.12753" lon="4.98774">
        <ele>237.95500183106</ele>
        <time>2009-11-11T15:24:57Z</time>
      </trkpt>
      <trkpt lat="45.12722" lon="4.98733">
        <ele>235.16400146484</ele>
        <time>2009-11-11T15:25:01Z</time>
      </trkpt>
      <trkpt lat="45.12689" lon="4.98668">
        <ele>230.73399353027</ele>
        <time>2009-11-11T15:25:06Z</time>
      </trkpt>
      <trkpt lat="45.12662" lon="4.98639">
        <ele>227.58200073242</ele>
        <time>2009-11-11T15:25:09Z</time>
      </trkpt>
      <trkpt lat="45.12592" lon="4.98598">
        <ele>221.94000244141</ele>
        <time>2009-11-11T15:25:15Z</time>
      </trkpt>
      <trkpt lat="45.12518" lon="4.98559">
        <ele>215.625</ele>
        <time>2009-11-11T15:25:21Z</time>
      </trkpt>
      <trkpt lat="45.12466" lon="4.98551">
        <ele>211.70899963379</ele>
        <time>2009-11-11T15:25:25Z</time>
      </trkpt>
      <trkpt lat="45.12428" lon="4.98528">
        <ele>208.67199707031</ele>
        <time>2009-11-11T15:25:29Z</time>
      </trkpt>
      <trkpt lat="45.12418" lon="4.98503">
        <ele>207.89500427246</ele>
        <time>2009-11-11T15:25:31Z</time>
      </trkpt>
      <trkpt lat="45.1241" lon="4.98478">
        <ele>207.36700439453</ele>
        <time>2009-11-11T15:25:33Z</time>
      </trkpt>
      <trkpt lat="45.12403" lon="4.98454">
        <ele>206.38800048828</ele>
        <time>2009-11-11T15:25:35Z</time>
      </trkpt>
      <trkpt lat="45.12385" lon="4.98398">
        <ele>205.34599304199</ele>
        <time>2009-11-11T15:25:40Z</time>
      </trkpt>
      <trkpt lat="45.12377" lon="4.98366">
        <ele>204.84100341797</ele>
        <time>2009-11-11T15:25:44Z</time>
      </trkpt>
      <trkpt lat="45.12375" lon="4.98361">
        <ele>204.97999572754</ele>
        <time>2009-11-11T15:25:47Z</time>
      </trkpt>
      <trkpt lat="45.12365" lon="4.9836">
        <ele>204.68499755859</ele>
        <time>2009-11-11T15:25:51Z</time>
      </trkpt>
      <trkpt lat="45.12362" lon="4.98364">
        <ele>204.71000671387</ele>
        <time>2009-11-11T15:25:52Z</time>
      </trkpt>
      <trkpt lat="45.12356" lon="4.98373">
        <ele>204.58700561523</ele>
        <time>2009-11-11T15:25:54Z</time>
      </trkpt>
      <trkpt lat="45.12343" lon="4.98405">
        <ele>204.47500610352</ele>
        <time>2009-11-11T15:25:59Z</time>
      </trkpt>
      <trkpt lat="45.12327" lon="4.98415">
        <ele>204.06500244141</ele>
        <time>2009-11-11T15:26:02Z</time>
      </trkpt>
      <trkpt lat="45.12291" lon="4.98415">
        <ele>203.60699462891</ele>
        <time>2009-11-11T15:26:08Z</time>
      </trkpt>
      <trkpt lat="45.12237" lon="4.98411">
        <ele>203.19599914551</ele>
        <time>2009-11-11T15:26:16Z</time>
      </trkpt>
      <trkpt lat="45.1219" lon="4.98416">
        <ele>202.27400207519</ele>
        <time>2009-11-11T15:26:23Z</time>
      </trkpt>
      <trkpt lat="45.12177" lon="4.98411">
        <ele>202.13400268555</ele>
        <time>2009-11-11T15:26:25Z</time>
      </trkpt>
      <trkpt lat="45.12125" lon="4.98408">
        <ele>202.38200378418</ele>
        <time>2009-11-11T15:26:33Z</time>
      </trkpt>
      <trkpt lat="45.12066" lon="4.98405">
        <ele>202.42199707031</ele>
        <time>2009-11-11T15:26:42Z</time>
      </trkpt>
      <trkpt lat="45.12044" lon="4.98393">
        <ele>202.55700683594</ele>
        <time>2009-11-11T15:26:46Z</time>
      </trkpt>
      <trkpt lat="45.12029" lon="4.98396">
        <ele>202.29800415039</ele>
        <time>2009-11-11T15:26:49Z</time>
      </trkpt>
      <trkpt lat="45.12014" lon="4.98397">
        <ele>201.66700744629</ele>
        <time>2009-11-11T15:26:52Z</time>
      </trkpt>
      <trkpt lat="45.11989" lon="4.98387">
        <ele>200.74299621582</ele>
        <time>2009-11-11T15:26:56Z</time>
      </trkpt>
      <trkpt lat="45.11972" lon="4.98391">
        <ele>200.79899597168</ele>
        <time>2009-11-11T15:26:59Z</time>
      </trkpt>
      <trkpt lat="45.11967" lon="4.98405">
        <ele>200.67500305176</ele>
        <time>2009-11-11T15:27:01Z</time>
      </trkpt>
      <trkpt lat="45.11972" lon="4.98416">
        <ele>200.8809967041</ele>
        <time>2009-11-11T15:27:03Z</time>
      </trkpt>
      <trkpt lat="45.11985" lon="4.98415">
        <ele>201.11599731445</ele>
        <time>2009-11-11T15:27:06Z</time>
      </trkpt>
      <trkpt lat="45.11988" lon="4.98415">
        <ele>201.27200317383</ele>
        <time>2009-11-11T15:27:07Z</time>
      </trkpt>
      <trkpt lat="45.11999" lon="4.98412">
        <ele>200.9880065918</ele>
        <time>2009-11-11T15:27:13Z</time>
      </trkpt>
      <trkpt lat="45.11995" lon="4.98412">
        <ele>201.20399475098</ele>
        <time>2009-11-11T15:27:17Z</time>
      </trkpt>
      <trkpt lat="45.11995" lon="4.98419">
        <ele>201.01600646973</ele>
        <time>2009-11-11T15:27:21Z</time>
      </trkpt>
      <trkpt lat="45.11995" lon="4.98413">
        <ele>201.19799804688</ele>
        <time>2009-11-11T15:27:24Z</time>
      </trkpt>
      <trkpt lat="45.11995" lon="4.98412">
        <ele>201.08799743652</ele>
        <time>2009-11-11T15:27:28Z</time>
      </trkpt>
      <trkpt lat="45.11994" lon="4.98412">
        <ele>200.96200561523</ele>
        <time>2009-11-11T15:27:30Z</time>
      </trkpt>
      <trkpt lat="45.11993" lon="4.98412">
        <ele>201.67100524902</ele>
        <time>2009-11-11T15:29:24Z</time>
      </trkpt>
      <trkpt lat="45.11988" lon="4.98413">
        <ele>201.77499389648</ele>
        <time>2009-11-11T15:29:28Z</time>
      </trkpt>
      <trkpt lat="45.11985" lon="4.98415">
        <ele>201.64799499512</ele>
        <time>2009-11-11T15:29:32Z</time>
      </trkpt>
      <trkpt lat="45.11987" lon="4.98412">
        <ele>201.57299804688</ele>
        <time>2009-11-11T15:29:35Z</time>
      </trkpt>
      <trkpt lat="45.11982" lon="4.98409">
        <ele>201.52900695801</ele>
        <time>2009-11-11T15:29:38Z</time>
      </trkpt>
      <trkpt lat="45.11979" lon="4.98396">
        <ele>201.66400146484</ele>
        <time>2009-11-11T15:29:42Z</time>
      </trkpt>
      <trkpt lat="45.11986" lon="4.98389">
        <ele>201.45700073242</ele>
        <time>2009-11-11T15:29:44Z</time>
      </trkpt>
      <trkpt lat="45.12005" lon="4.98395">
        <ele>201.9640045166</ele>
        <time>2009-11-11T15:29:47Z</time>
      </trkpt>
      <trkpt lat="45.12028" lon="4.98417">
        <ele>203.35699462891</ele>
        <time>2009-11-11T15:29:51Z</time>
      </trkpt>
      <trkpt lat="45.12037" lon="4.98429">
        <ele>203.43499755859</ele>
        <time>2009-11-11T15:29:53Z</time>
      </trkpt>
      <trkpt lat="45.12049" lon="4.98422">
        <ele>203.53100585938</ele>
        <time>2009-11-11T15:29:55Z</time>
      </trkpt>
      <trkpt lat="45.12054" lon="4.98403">
        <ele>203.6609954834</ele>
        <time>2009-11-11T15:29:57Z</time>
      </trkpt>
      <trkpt lat="45.12053" lon="4.98392">
        <ele>203.4940032959</ele>
        <time>2009-11-11T15:29:58Z</time>
      </trkpt>
      <trkpt lat="45.12063" lon="4.98312">
        <ele>202.25100708008</ele>
        <time>2009-11-11T15:30:05Z</time>
      </trkpt>
      <trkpt lat="45.12072" lon="4.98226">
        <ele>202.17900085449</ele>
        <time>2009-11-11T15:30:12Z</time>
      </trkpt>
      <trkpt lat="45.12069" lon="4.98152">
        <ele>201.79400634766</ele>
        <time>2009-11-11T15:30:18Z</time>
      </trkpt>
      <trkpt lat="45.12055" lon="4.98074">
        <ele>201.30000305176</ele>
        <time>2009-11-11T15:30:24Z</time>
      </trkpt>
      <trkpt lat="45.12024" lon="4.9796">
        <ele>200.29100036621</ele>
        <time>2009-11-11T15:30:33Z</time>
      </trkpt>
      <trkpt lat="45.12005" lon="4.97869">
        <ele>199.33099365234</ele>
        <time>2009-11-11T15:30:40Z</time>
      </trkpt>
      <trkpt lat="45.11983" lon="4.97737">
        <ele>198.42399597168</ele>
        <time>2009-11-11T15:30:50Z</time>
      </trkpt>
      <trkpt lat="45.11961" lon="4.97608">
        <ele>197.85699462891</ele>
        <time>2009-11-11T15:31:00Z</time>
      </trkpt>
      <trkpt lat="45.1194" lon="4.97494">
        <ele>196.78700256348</ele>
        <time>2009-11-11T15:31:09Z</time>
      </trkpt>
      <trkpt lat="45.11926" lon="4.97414">
        <ele>195.94099426269</ele>
        <time>2009-11-11T15:31:16Z</time>
      </trkpt>
      <trkpt lat="45.11911" lon="4.97321">
        <ele>195.07699584961</ele>
        <time>2009-11-11T15:31:25Z</time>
      </trkpt>
      <trkpt lat="45.11901" lon="4.97264">
        <ele>195.14599609375</ele>
        <time>2009-11-11T15:31:31Z</time>
      </trkpt>
      <trkpt lat="45.11887" lon="4.97182">
        <ele>195.45799255371</ele>
        <time>2009-11-11T15:31:40Z</time>
      </trkpt>
      <trkpt lat="45.11882" lon="4.97156">
        <ele>195.83000183106</ele>
        <time>2009-11-11T15:31:43Z</time>
      </trkpt>
      <trkpt lat="45.11885" lon="4.97115">
        <ele>196.37399291992</ele>
        <time>2009-11-11T15:31:48Z</time>
      </trkpt>
      <trkpt lat="45.11893" lon="4.97097">
        <ele>197.46499633789</ele>
        <time>2009-11-11T15:31:51Z</time>
      </trkpt>
      <trkpt lat="45.11905" lon="4.97069">
        <ele>197.51899719238</ele>
        <time>2009-11-11T15:31:56Z</time>
      </trkpt>
      <trkpt lat="45.11897" lon="4.97058">
        <ele>197.43800354004</ele>
        <time>2009-11-11T15:31:58Z</time>
      </trkpt>
      <trkpt lat="45.11879" lon="4.97044">
        <ele>197.52099609375</ele>
        <time>2009-11-11T15:32:01Z</time>
      </trkpt>
      <trkpt lat="45.11829" lon="4.96978">
        <ele>197.57000732422</ele>
        <time>2009-11-11T15:32:10Z</time>
      </trkpt>
      <trkpt lat="45.1178" lon="4.96901">
        <ele>197.49800109863</ele>
        <time>2009-11-11T15:32:19Z</time>
      </trkpt>
      <trkpt lat="45.11774" lon="4.96893">
        <ele>196.95100402832</ele>
        <time>2009-11-11T15:32:20Z</time>
      </trkpt>
      <trkpt lat="45.11763" lon="4.96849">
        <ele>197.4640045166</ele>
        <time>2009-11-11T15:32:24Z</time>
      </trkpt>
      <trkpt lat="45.1175" lon="4.96822">
        <ele>197.85699462891</ele>
        <time>2009-11-11T15:32:27Z</time>
      </trkpt>
      <trkpt lat="45.11726" lon="4.96808">
        <ele>197.36599731445</ele>
        <time>2009-11-11T15:32:30Z</time>
      </trkpt>
      <trkpt lat="45.11713" lon="4.96793">
        <ele>196.82499694824</ele>
        <time>2009-11-11T15:32:32Z</time>
      </trkpt>
      <trkpt lat="45.11672" lon="4.96727">
        <ele>196.34300231934</ele>
        <time>2009-11-11T15:32:39Z</time>
      </trkpt>
      <trkpt lat="45.11641" lon="4.96651">
        <ele>195.23899841309</ele>
        <time>2009-11-11T15:32:46Z</time>
      </trkpt>
      <trkpt lat="45.11595" lon="4.96534">
        <ele>195.26899719238</ele>
        <time>2009-11-11T15:32:57Z</time>
      </trkpt>
      <trkpt lat="45.11583" lon="4.96504">
        <ele>195.50399780273</ele>
        <time>2009-11-11T15:33:00Z</time>
      </trkpt>
      <trkpt lat="45.1158" lon="4.96466">
        <ele>195.66000366211</ele>
        <time>2009-11-11T15:33:04Z</time>
      </trkpt>
      <trkpt lat="45.11581" lon="4.96452">
        <ele>195.54299926758</ele>
        <time>2009-11-11T15:33:06Z</time>
      </trkpt>
      <trkpt lat="45.11576" lon="4.96445">
        <ele>195.53100585938</ele>
        <time>2009-11-11T15:33:11Z</time>
      </trkpt>
      <trkpt lat="45.11576" lon="4.96445">
        <ele>195.80700683594</ele>
        <time>2009-11-11T15:33:12Z</time>
      </trkpt>
      <trkpt lat="45.11574" lon="4.96451">
        <ele>195.6190032959</ele>
        <time>2009-11-11T15:34:19Z</time>
      </trkpt>
      <trkpt lat="45.11573" lon="4.96451">
        <ele>195.58099365234</ele>
        <time>2009-11-11T15:34:20Z</time>
      </trkpt>
      <trkpt lat="45.11569" lon="4.96448">
        <ele>195.29899597168</ele>
        <time>2009-11-11T15:35:01Z</time>
      </trkpt>
      <trkpt lat="45.11569" lon="4.96448">
        <ele>195.50500488281</ele>
        <time>2009-11-11T15:35:02Z</time>
      </trkpt>
      <trkpt lat="45.11564" lon="4.96442">
        <ele>195.47799682617</ele>
        <time>2009-11-11T15:35:11Z</time>
      </trkpt>
      <trkpt lat="45.11561" lon="4.96432">
        <ele>195.62399291992</ele>
        <time>2009-11-11T15:35:15Z</time>
      </trkpt>
      <trkpt lat="45.11568" lon="4.96426">
        <ele>196.44799804688</ele>
        <time>2009-11-11T15:35:21Z</time>
      </trkpt>
      <trkpt lat="45.11568" lon="4.96427">
        <ele>196.62699890137</ele>
        <time>2009-11-11T15:35:24Z</time>
      </trkpt>
      <trkpt lat="45.1157" lon="4.96429">
        <ele>196.50199890137</ele>
        <time>2009-11-11T15:35:28Z</time>
      </trkpt>
      <trkpt lat="45.1157" lon="4.96429">
        <ele>196.41600036621</ele>
        <time>2009-11-11T15:35:30Z</time>
      </trkpt>
    </trkseg>
  </trk>
</gpx>